[[{"header":{"parameterUnit":"m.s-1","parameterCategory":1,"la1":30.6,"la2":29.2853,"lo1":-89.7004,"lo2":-87.6739,"dy":0.0162,"dx":0.0183,"nx":112,"ny":82,"refTime":"2023-07-14T00:00:00:Z","depth":0,"parameterNumber":2,"parameterNumberName":"U-component_of_WINDS"},"data":[0.0,0.0,0.0,0.0,0.0,0.0,0.0,0.0,0.0,0.0,0.0,0.0,0.0,0.0,0.0,0.0,0.0,0.0,0.0,0.0,0.0,0.0,0.0,0.0,0.0,0.0,0.0,0.0,0.0,0.0,0.0,0.0,0.0,0.0,0.0,0.0,0.0,0.0,0.0,0.0,0.0,0.0,0.0,0.0,0.0,0.0,0.0,0.0,0.0,0.0,0.0,0.0,0.0,0.0,0.0,0.0,0.0,0.0,0.0,0.0,0.0,0.0,0.0,0.0,0.0,0.0,0.0,0.0,0.0,0.0,0.0,0.0,0.0,0.0,0.0,0.0,0.0,0.0,0.0,0.0,0.0,0.0,0.0,0.0,0.0,0.0,0.0,0.0,0.0,0.0,-0.614,-0.6626,-0.7186,-0.7534,-0.7389,-0.7105,-0.6842,-0.6555,0.0,0.0,0.0,0.0,0.0,0.0,0.0,0.0,0.0,0.0,0.0,0.0,0.0,0.0,0.0,0.0,0.0,0.0,0.0,0.0,0.0,0.0,0.0,0.0,0.0,0.0,0.0,0.0,0.0,0.0,0.0,0.0,0.0,0.0,0.0,0.0,0.0,0.0,0.0,0.0,0.0,0.0,0.0,0.0,0.0,0.0,0.0,0.0,0.0,0.0,0.0,0.0,0.0,0.0,0.0,0.0,0.0,0.0,0.0,0.0,0.0,0.0,0.0,0.0,0.0,0.0,0.0,0.0,0.0,0.0,0.0,0.0,0.0,0.0,0.0,0.0,0.0,0.0,0.0,0.0,0.0,0.0,0.0,0.0,0.0,0.0,0.0,0.0,0.0,0.0,0.0,0.0,0.0,0.0,0.0,0.0,0.0,0.0,0.0,0.0,0.0,0.0,0.0,0.0,-0.6904,-0.7737,-0.7899,-0.7921,-0.7968,-0.7633,-0.7336,-0.7091,0.0,0.0,0.0,0.0,0.0,0.0,0.0,0.0,0.0,0.0,0.0,0.0,0.0,0.0,0.0,0.0,0.0,0.0,0.0,0.0,0.0,0.0,0.0,0.0,0.0,0.0,0.0,0.0,0.0,0.0,0.0,0.0,0.0,0.0,0.0,0.0,0.0,0.0,0.0,0.0,0.0,0.0,0.0,0.0,0.0,0.0,0.0,0.0,0.0,0.0,0.0,0.0,0.0,0.0,0.0,0.0,0.0,0.0,0.0,0.0,0.0,0.0,0.0,0.0,0.0,0.0,0.0,0.0,0.0,0.0,0.0,0.0,0.0,0.0,0.0,0.0,0.0,0.0,0.0,0.0,0.0,0.0,0.0,0.0,0.0,0.0,0.0,0.0,0.0,0.0,0.0,0.0,0.0,0.0,0.0,0.0,0.0,0.0,0.0,0.0,0.0,0.0,0.0,-0.6967,-0.7545,-0.8131,-0.8303,-0.826,-0.8221,-0.8034,-0.7803,-0.7407,-0.695,0.0,0.0,0.0,0.0,0.0,0.0,0.0,0.0,0.0,0.0,0.0,0.0,0.0,0.0,0.0,0.0,0.0,0.0,0.0,0.0,0.0,0.0,0.0,0.0,0.0,0.0,0.0,0.0,0.0,0.0,0.0,0.0,0.0,0.0,0.0,0.0,0.0,0.0,0.0,0.0,0.0,0.0,0.0,0.0,0.0,0.0,0.0,0.0,0.0,0.0,0.0,0.0,0.0,0.0,0.0,0.0,0.0,0.0,0.0,0.0,0.0,0.0,0.0,0.0,0.0,0.0,0.0,0.0,0.0,0.0,0.0,0.0,0.0,0.0,0.0,0.0,0.0,0.0,0.0,0.0,0.0,0.0,0.0,0.0,0.0,0.0,0.0,0.0,0.0,0.0,0.0,0.0,0.0,0.0,0.0,0.0,0.0,0.0,0.0,0.0,0.0,0.0,-0.7681,-0.8049,-0.8419,-0.8504,-0.8577,-0.8482,-0.8348,-0.8102,-0.7666,-0.7335,0.0,0.0,0.0,0.0,0.0,0.0,0.0,0.0,0.0,0.0,0.0,0.0,0.0,0.0,0.0,0.0,0.0,0.0,0.0,0.0,0.0,0.0,0.0,0.0,0.0,0.0,0.0,0.0,0.0,0.0,0.0,0.0,0.0,0.0,0.0,0.0,0.0,0.0,0.0,0.0,0.0,0.0,0.0,0.0,0.0,0.0,0.0,0.0,0.0,0.0,0.0,0.0,0.0,0.0,0.0,0.0,0.0,0.0,0.0,0.0,0.0,0.0,0.0,0.0,0.0,0.0,0.0,0.0,0.0,0.0,0.0,0.0,0.0,0.0,0.0,0.0,0.0,0.0,0.0,0.0,0.0,0.0,0.0,0.0,0.0,0.0,0.0,0.0,0.0,0.0,0.0,0.0,0.0,0.0,0.0,0.0,0.0,0.0,0.0,0.0,0.0,0.0,-0.7999,-0.8404,-0.8821,-0.869,-0.868,-0.8867,-0.8454,-0.8127,-0.7987,-0.7463,0.0,0.0,0.0,0.0,0.0,0.0,0.0,0.0,0.0,0.0,0.0,0.0,0.0,0.0,0.0,0.0,0.0,0.0,0.0,0.0,0.0,0.0,0.0,0.0,0.0,0.0,0.0,0.0,0.0,0.0,0.0,0.0,0.0,0.0,0.0,0.0,0.0,0.0,0.0,0.0,0.0,0.0,0.0,0.0,0.0,0.0,0.0,0.0,0.0,0.0,0.0,0.0,0.0,0.0,0.0,0.0,0.0,0.0,0.0,0.0,0.0,0.0,0.0,0.0,0.0,0.0,0.0,0.0,0.0,0.0,0.0,0.0,0.0,0.0,0.0,0.0,0.0,0.0,0.0,0.0,0.0,0.0,0.0,0.0,0.0,0.0,0.0,0.0,0.0,0.0,0.0,0.0,0.0,0.0,0.0,0.0,0.0,0.0,0.0,0.0,0.0,0.0,-0.8456,-0.8794,-0.9192,-0.9125,-0.9125,-0.9063,-0.8772,-0.8436,-0.8172,0.0,0.0,0.0,0.0,0.0,0.0,0.0,0.0,0.0,0.0,0.0,0.0,0.0,0.0,0.0,0.0,0.0,0.0,0.0,0.0,0.0,0.0,0.0,0.0,0.0,0.0,0.0,0.0,0.0,0.0,0.0,0.0,0.0,0.0,0.0,0.0,0.0,0.0,0.0,0.0,0.0,0.0,0.0,0.0,0.0,0.0,0.0,0.0,0.0,0.0,0.0,0.0,0.0,0.0,0.0,0.0,0.0,0.0,0.0,0.0,0.0,0.0,0.0,0.0,0.0,0.0,0.0,0.0,0.0,0.0,0.0,0.0,0.0,0.0,0.0,0.0,0.0,0.0,0.0,0.0,0.0,0.0,0.0,0.0,0.0,0.0,0.0,0.0,0.0,0.0,0.0,0.0,0.0,0.0,0.0,0.0,0.0,0.0,0.0,0.0,0.0,0.0,-0.8679,-0.8892,-0.9226,-0.957,-0.9581,-0.9485,-0.9344,-0.9113,-0.8783,-0.8436,0.0,0.0,0.0,0.0,0.0,0.0,0.0,0.0,0.0,0.0,0.0,0.0,0.0,0.0,0.0,0.0,0.0,0.0,0.0,0.0,0.0,0.0,0.0,0.0,0.0,0.0,0.0,0.0,0.0,0.0,0.0,0.0,0.0,0.0,0.0,0.0,0.0,0.0,0.0,0.0,0.0,0.0,0.0,0.0,0.0,0.0,0.0,0.0,0.0,0.0,0.0,0.0,0.0,0.0,0.0,0.0,0.0,0.0,0.0,0.0,0.0,0.0,0.0,0.0,0.0,0.0,0.0,0.0,0.0,0.0,0.0,0.0,0.0,0.0,0.0,0.0,0.0,0.0,0.0,0.0,0.0,0.0,0.0,0.0,0.0,0.0,0.0,0.0,0.0,0.0,0.0,0.0,0.0,0.0,0.0,0.0,0.0,0.0,0.0,0.0,0.0,0.0,-0.917,-0.9332,-0.9564,-1.0037,-0.9927,-0.976,-0.9714,-0.9405,-0.9092,0.0,0.0,0.0,0.0,0.0,0.0,0.0,0.0,0.0,0.0,0.0,0.0,0.0,0.0,0.0,0.0,0.0,0.0,0.0,0.0,0.0,0.0,0.0,0.0,0.0,0.0,0.0,0.0,0.0,0.0,0.0,0.0,0.0,0.0,0.0,0.0,0.0,0.0,0.0,0.0,0.0,0.0,0.0,0.0,0.0,0.0,0.0,0.0,0.0,0.0,0.0,0.0,0.0,0.0,0.0,0.0,0.0,0.0,0.0,0.0,0.0,0.0,0.0,0.0,0.0,0.0,0.0,0.0,0.0,0.0,0.0,0.0,0.0,0.0,0.0,0.0,0.0,0.0,0.0,0.0,0.0,0.0,0.0,0.0,0.0,0.0,0.0,0.0,0.0,0.0,0.0,0.0,0.0,0.0,0.0,0.0,0.0,0.0,0.0,0.0,0.0,0.0,0.0,-0.9315,-0.984,-1.0237,-1.0527,-1.0462,-1.0367,-1.0296,-0.9668,-0.9292,-0.9097,0.0,0.0,0.0,0.0,0.0,0.0,0.0,0.0,0.0,0.0,0.0,0.0,0.0,0.0,0.0,0.0,0.0,0.0,0.0,0.0,0.0,0.0,0.0,0.0,0.0,0.0,0.0,0.0,0.0,0.0,0.0,0.0,0.0,0.0,0.0,0.0,0.0,0.0,0.0,0.0,0.0,0.0,0.0,0.0,0.0,0.0,0.0,0.0,0.0,0.0,0.0,0.0,0.0,0.0,0.0,0.0,0.0,0.0,0.0,0.0,0.0,0.0,0.0,0.0,0.0,0.0,0.0,0.0,0.0,0.0,0.0,0.0,0.0,0.0,0.0,0.0,0.0,0.0,0.0,0.0,0.0,0.0,0.0,0.0,0.0,0.0,0.0,0.0,0.0,0.0,0.0,0.0,0.0,0.0,0.0,0.0,0.0,0.0,0.0,0.0,0.0,0.0,-0.9806,-1.0243,-1.0623,-1.0864,-1.0876,-1.0761,-1.0593,-1.0079,-0.9611,-0.9271,0.0,0.0,0.0,0.0,0.0,0.0,0.0,0.0,0.0,0.0,0.0,0.0,0.0,0.0,0.0,0.0,0.0,0.0,0.0,0.0,0.0,0.0,0.0,0.0,0.0,0.0,0.0,0.0,0.0,0.0,0.0,0.0,0.0,0.0,0.0,0.0,0.0,0.0,0.0,0.0,0.0,0.0,0.0,0.0,0.0,0.0,0.0,0.0,0.0,0.0,0.0,0.0,0.0,0.0,0.0,0.0,0.0,0.0,0.0,0.0,0.0,0.0,0.0,0.0,0.0,0.0,0.0,0.0,0.0,0.0,0.0,0.0,0.0,0.0,0.0,0.0,0.0,0.0,0.0,0.0,0.0,0.0,0.0,0.0,0.0,0.0,0.0,0.0,0.0,0.0,0.0,0.0,0.0,0.0,0.0,0.0,0.0,0.0,0.0,0.0,0.0,0.0,-1.0378,-1.0677,-1.0846,-1.1087,-1.1111,-1.1015,-1.0701,-1.0382,-0.9953,-0.9491,0.0,0.0,0.0,0.0,0.0,0.0,0.0,0.0,0.0,0.0,0.0,0.0,0.0,0.0,0.0,0.0,0.0,0.0,0.0,0.0,0.0,0.0,0.0,0.0,0.0,0.0,0.0,0.0,0.0,0.0,0.0,0.0,0.0,0.0,0.0,0.0,0.0,0.0,0.0,0.0,0.0,0.0,0.0,0.0,0.0,0.0,0.0,0.0,0.0,0.0,0.0,0.0,0.0,0.0,0.0,0.0,0.0,0.0,0.0,0.0,-1.2538,-1.2138,0.0,0.0,0.0,0.0,0.0,0.0,0.0,0.0,0.0,0.0,0.0,0.0,0.0,0.0,0.0,0.0,0.0,0.0,0.0,0.0,0.0,0.0,0.0,0.0,0.0,0.0,0.0,0.0,0.0,0.0,0.0,0.0,0.0,0.0,0.0,0.0,0.0,0.0,0.0,0.0,-1.0503,-1.0833,-1.1051,-1.1105,-1.1111,-1.1013,-1.081,-1.0408,-1.0107,-0.9785,-0.8853,0.0,0.0,0.0,0.0,0.0,0.0,0.0,0.0,0.0,0.0,0.0,0.0,0.0,0.0,0.0,0.0,0.0,0.0,0.0,0.0,0.0,0.0,0.0,0.0,0.0,0.0,0.0,0.0,0.0,0.0,0.0,0.0,0.0,0.0,0.0,0.0,0.0,0.0,0.0,0.0,0.0,0.0,0.0,0.0,0.0,0.0,0.0,0.0,0.0,0.0,0.0,0.0,0.0,0.0,0.0,0.0,0.0,0.0,0.0,-1.4056,-1.3621,0.0,0.0,0.0,0.0,0.0,0.0,0.0,0.0,0.0,0.0,0.0,0.0,0.0,0.0,0.0,0.0,0.0,0.0,0.0,0.0,0.0,0.0,0.0,0.0,0.0,0.0,0.0,0.0,0.0,0.0,0.0,0.0,0.0,0.0,0.0,0.0,0.0,0.0,0.0,0.0,-1.0748,-1.0953,-1.1111,-1.1111,-1.1037,-1.0887,-1.0812,-1.0399,-1.0058,-0.9801,-0.9051,0.0,0.0,0.0,0.0,0.0,0.0,0.0,0.0,0.0,0.0,0.0,0.0,0.0,0.0,0.0,0.0,0.0,0.0,0.0,0.0,0.0,0.0,0.0,0.0,0.0,0.0,0.0,0.0,0.0,0.0,0.0,0.0,0.0,0.0,0.0,0.0,0.0,0.0,0.0,0.0,0.0,0.0,0.0,0.0,0.0,0.0,0.0,0.0,0.0,0.0,0.0,0.0,0.0,-1.5401,-1.5676,-1.5931,-1.6248,-1.6181,-1.5899,-1.5526,-1.5177,-1.4909,-1.4562,0.0,0.0,0.0,0.0,0.0,0.0,0.0,0.0,0.0,0.0,0.0,0.0,0.0,0.0,0.0,0.0,0.0,0.0,0.0,0.0,0.0,0.0,-1.0626,-1.0804,-1.0707,-1.0444,-0.9917,0.0,0.0,0.0,0.0,0.0,0.0,0.0,0.0,0.0,0.0,0.0,-1.1226,-1.1256,-1.1238,-1.1115,-1.0958,-1.079,-1.0743,-1.0368,-1.006,-0.9647,-0.9223,-0.8824,0.0,0.0,0.0,0.0,0.0,0.0,0.0,0.0,0.0,0.0,0.0,0.0,0.0,0.0,0.0,0.0,0.0,0.0,0.0,0.0,0.0,0.0,0.0,0.0,0.0,0.0,0.0,0.0,0.0,0.0,0.0,0.0,-0.6268,-0.6733,0.0,0.0,0.0,0.0,0.0,0.0,0.0,0.0,0.0,0.0,0.0,0.0,0.0,-1.4622,-1.5202,-1.5747,-1.6329,-1.676,-1.6847,-1.69,-1.6903,-1.728,-1.7244,-1.6987,-1.7194,0.0,-1.5546,-1.5546,0.0,0.0,0.0,0.0,0.0,0.0,0.0,0.0,0.0,0.0,0.0,0.0,0.0,0.0,0.0,0.0,0.0,0.0,0.0,0.0,0.0,0.0,-1.1283,-1.1308,-1.1384,-1.1535,-1.1413,-1.0766,-1.0181,-1.023,-1.0359,-1.0487,0.0,0.0,0.0,0.0,0.0,0.0,-1.1811,-1.1817,-1.1648,-1.1266,-1.1165,-1.0918,-1.031,-1.0218,-1.0056,-0.9653,-0.9237,-0.8895,-0.8651,-0.8084,0.0,0.0,0.0,0.0,0.0,0.0,0.0,0.0,0.0,0.0,0.0,0.0,0.0,0.0,0.0,0.0,0.0,0.0,0.0,0.0,0.0,0.0,0.0,0.0,0.0,0.0,0.0,0.0,0.0,-0.6385,-0.7139,-0.7597,-0.83,-0.9038,0.0,0.0,0.0,0.0,0.0,0.0,0.0,0.0,0.0,-1.4754,-1.529,-1.5778,-1.6215,-1.6578,-1.6987,-1.7354,-1.754,-1.764,-1.7644,-1.7987,-1.8072,-1.7976,-1.7938,-1.7749,-1.7341,-1.6893,-1.6628,-1.6455,0.0,0.0,0.0,0.0,-1.5351,-1.5168,-1.5064,-1.4771,-1.4484,-1.4484,0.0,0.0,0.0,0.0,0.0,0.0,0.0,-1.1652,-1.1789,-1.1899,-1.2005,-1.2136,-1.2162,-1.2066,-1.2066,-1.1642,-1.1181,-1.0921,-1.0958,-1.1033,-1.1168,-1.1203,0.0,0.0,0.0,-1.184,-1.176,-1.1766,-1.1558,-1.1209,-1.1112,-1.0858,-1.0456,-1.0198,-0.9909,-0.9478,-0.9155,-0.8876,-0.8571,-0.8075,-0.768,0.0,0.0,0.0,0.0,0.0,0.0,0.0,0.0,0.0,0.0,0.0,0.0,0.0,0.0,0.0,0.0,0.0,0.0,0.0,0.0,0.0,0.0,0.0,0.0,0.0,0.0,0.0,0.0,-0.7387,-0.7953,-0.8398,-0.9163,-0.9894,0.0,0.0,0.0,0.0,0.0,0.0,-1.4402,-1.4767,-1.5275,-1.6102,-1.6455,-1.6766,-1.7136,-1.73,-1.764,-1.7887,-1.8084,-1.8263,-1.8411,-1.8606,-1.8698,-1.872,-1.8535,-1.8476,-1.8572,-1.7945,-1.7566,-1.749,-1.7329,-1.712,-1.7021,-1.662,-1.6257,-1.6011,-1.5802,-1.5503,-1.5209,-1.5209,-1.4689,-1.4015,-1.3635,0.0,0.0,0.0,0.0,-1.2344,-1.2474,-1.2506,-1.2549,-1.2721,-1.263,-1.2506,-1.2506,-1.2361,-1.2091,-1.1623,-1.1526,-1.1484,-1.1477,-1.1487,0.0,-1.1893,-1.1962,-1.1881,-1.1723,-1.1723,-1.1613,-1.1294,-1.1126,-1.0869,-1.0559,-1.0236,-0.9808,-0.9341,-0.9052,-0.8789,-0.8403,-0.8032,-0.7733,-0.7588,0.0,0.0,0.0,0.0,0.0,0.0,0.0,0.0,0.0,0.0,0.0,0.0,0.0,0.0,0.0,0.0,0.0,0.0,0.0,0.0,0.0,0.0,0.0,0.0,0.0,0.0,0.0,0.0,0.0,-0.9275,-1.0126,0.0,0.0,0.0,0.0,-1.3499,-1.3944,-1.4409,-1.5074,-1.5637,-1.608,-1.6367,-1.6854,-1.7387,-1.7936,-1.8271,-1.8519,-1.8703,-1.8711,-1.8994,-1.9344,-1.9344,-1.9239,-1.9079,-1.9079,-1.8784,-1.8299,-1.8284,-1.8086,-1.7896,-1.7605,-1.7313,-1.7021,-1.6807,-1.6475,-1.6297,-1.6297,-1.589,-1.5481,-1.5481,-1.4974,-1.4146,-1.3642,-1.3427,0.0,0.0,-1.305,-1.3007,-1.2802,-1.2748,-1.2748,-1.2759,-1.2754,-1.2748,-1.2748,-1.2737,-1.2587,-1.2102,-1.2102,-1.2026,-1.1954,0.0,-1.2009,-1.1952,-1.2003,-1.2003,-1.2003,-1.2003,-1.1821,-1.1322,-1.13,-1.1035,-1.04,-1.0089,-0.9797,-0.9321,-0.8966,-0.8627,-0.8403,-0.8016,-0.7787,-0.7787,-0.7553,0.0,0.0,0.0,0.0,0.0,0.0,0.0,0.0,0.0,0.0,0.0,0.0,0.0,0.0,0.0,0.0,0.0,0.0,0.0,0.0,0.0,0.0,0.0,0.0,0.0,0.0,0.0,0.0,-1.0141,-1.0772,0.0,-1.1934,-1.2585,-1.3297,-1.4182,-1.4638,-1.5172,-1.5956,-1.6541,-1.6875,-1.7271,-1.7766,-1.811,-1.8294,-1.8824,-1.9091,-1.9185,-1.9391,-1.9566,-1.9693,-1.9693,-1.9689,-1.9621,-1.9522,-1.9343,-1.9227,-1.903,-1.8709,-1.8246,-1.8126,-1.7894,-1.7592,-1.7178,-1.6821,-1.6478,-1.6386,-1.607,-1.5722,-1.5338,-1.481,-1.4194,-1.3832,-1.3685,-1.3459,-1.3367,-1.3346,-1.3324,-1.3243,-1.3104,-1.298,-1.298,-1.2872,-1.2764,-1.2764,-1.2764,-1.2711,-1.2538,-1.2388,-1.2303,-1.2235,-1.2154,-1.2026,-1.2207,-1.2146,-1.1957,-1.1785,-1.1785,-1.1666,-1.1315,-1.1219,-1.0953,-1.0549,-1.0208,-0.9856,-0.948,-0.9152,-0.8786,-0.8631,-0.8194,-0.7898,-0.7824,-0.7471,-0.718,0.0,0.0,0.0,0.0,0.0,0.0,0.0,0.0,0.0,0.0,0.0,0.0,0.0,0.0,0.0,0.0,0.0,0.0,0.0,0.0,0.0,0.0,0.0,0.0,0.0,-0.9523,-1.012,-1.0781,-1.1427,-1.2062,-1.2747,-1.3345,-1.4004,-1.4912,-1.5286,-1.5878,-1.6569,-1.7059,-1.7497,-1.7807,-1.8288,-1.8629,-1.8839,-1.9162,-1.9431,-1.9542,-1.9757,-1.9924,-2.0043,-1.9945,-1.9936,-2.007,-1.9765,-1.9588,-1.9583,-1.9279,-1.8844,-1.8363,-1.845,-1.822,-1.7911,-1.7391,-1.6955,-1.663,-1.6217,-1.5897,-1.5654,-1.5153,-1.4684,-1.4339,-1.4085,-1.3931,-1.3701,-1.362,-1.3593,-1.3577,-1.3394,-1.3191,-1.2904,-1.2809,-1.2636,-1.2565,-1.2565,-1.2565,-1.2565,-1.2565,-1.2539,-1.2552,-1.2396,-1.2155,-1.2059,-1.2159,-1.1936,-1.1699,-1.1527,-1.144,-1.1348,-1.1084,-1.0997,-1.0768,-1.0519,-1.0189,-0.9839,-0.9537,-0.9128,-0.8759,-0.86,-0.8231,-0.8002,-0.7769,-0.7331,-0.7032,-0.695,0.0,0.0,0.0,0.0,0.0,0.0,0.0,0.0,0.0,0.0,0.0,0.0,0.0,0.0,0.0,0.0,0.0,0.0,0.0,0.0,0.0,0.0,0.0,-0.9658,-1.0327,-1.0911,-1.13,-1.2192,-1.2905,-1.343,-1.3911,-1.4649,-1.5658,-1.6049,-1.6408,-1.6872,-1.745,-1.7815,-1.8087,-1.8388,-1.8847,-1.9368,-1.9391,-1.9566,-1.9884,-1.9892,-2.0075,-2.0408,-2.0116,-1.9984,-2.0078,-1.9776,-1.9583,-1.9279,-1.8974,-1.8653,-1.8422,-1.8422,-1.822,-1.7911,-1.7384,-1.6955,-1.6524,-1.5797,-1.5482,-1.5374,-1.4821,-1.46,-1.4498,-1.4299,-1.4191,-1.4143,-1.39,-1.383,-1.3672,-1.3137,-1.2897,-1.2615,-1.2329,-1.2152,-1.198,-1.198,-1.198,-1.198,-1.198,-1.237,-1.2689,-1.2463,-1.2215,-1.1973,-1.1741,-1.1417,0.0,-1.1008,-1.1008,-1.0916,-1.0727,-1.0727,-1.0554,-1.0294,-1.0108,-0.9827,-0.9324,-0.8888,-0.8617,-0.8292,-0.8111,-0.7855,-0.769,-0.7191,-0.7026,-0.7033,0.0,0.0,0.0,0.0,0.0,0.0,0.0,0.0,0.0,0.0,0.0,0.0,0.0,0.0,0.0,0.0,0.0,0.0,0.0,0.0,0.0,-0.9495,-1.0032,-1.0082,-1.0722,-1.1257,-1.1768,-1.2533,-1.3199,-1.3711,-1.4173,-1.495,-1.5882,-1.6071,-1.6402,-1.7186,-1.7483,-1.7815,-1.8087,-1.8605,-1.9075,-1.9376,-1.9868,-2.0154,-2.0249,-2.031,-2.0382,-2.0476,-2.0153,-2.0002,-1.9783,-1.9783,-1.948,-1.8974,-1.8974,-1.8548,-1.8122,-1.8122,-1.7806,-1.7384,-1.6948,-1.6424,-1.5797,-1.5589,-1.5261,-1.4821,-1.4606,-1.4504,-1.4293,-1.397,-1.3862,-1.3738,-1.3562,-1.3439,-1.3424,-1.3255,-1.2949,-1.2654,-1.2557,-1.2258,-1.198,-1.198,-1.198,-1.198,-1.198,-1.2078,-1.2155,-1.2093,-1.1754,-1.1472,-1.141,-1.1071,-1.0819,-1.0819,-1.0819,-1.0733,-1.0727,-1.0554,-1.0294,-1.0125,-0.9812,-0.9611,-0.9356,-0.9044,-0.8845,-0.8759,-0.8203,-0.7735,-0.7191,-0.7105,-0.7,0.0,0.0,0.0,0.0,0.0,0.0,0.0,0.0,0.0,0.0,0.0,0.0,0.0,0.0,0.0,0.0,0.0,0.0,0.0,0.0,0.0,0.0,-0.9866,-1.0301,-1.0691,-1.1357,-1.1894,-1.2263,-1.3093,-1.376,-1.4142,-1.4669,-1.5349,-1.6202,-1.6316,-1.6579,-1.7225,-1.7527,-1.7815,-1.7908,-1.8509,-1.8946,-1.9294,-1.9834,-2.017,-2.0304,-2.031,-2.03,-2.03,-2.0086,-1.9887,-1.968,-1.948,-1.9175,-1.8876,-1.866,-1.8233,-1.7799,0.0,0.0,0.0,0.0,-1.5998,-1.5482,-1.5261,-1.4928,-1.4606,-1.4504,-1.4186,-1.3975,-1.3753,-1.3645,-1.3532,-1.3315,-1.3315,-1.3315,-1.3207,-1.277,-1.2442,-1.2334,-1.2003,-1.1683,-1.1683,-1.1683,-1.1683,-1.1683,-1.1683,0.0,-1.1683,-1.1417,-1.1308,-1.1308,-1.0929,-1.0641,-1.0554,-1.0554,-1.0467,-1.0294,-1.012,-0.9951,-0.9694,-0.9607,0.0,0.0,0.0,-0.8823,-0.8644,-0.8024,0.0,0.0,0.0,-0.7011,-0.7017,-0.7082,0.0,0.0,-0.7356,-0.7768,0.0,0.0,0.0,0.0,0.0,0.0,0.0,0.0,0.0,0.0,0.0,0.0,0.0,0.0,0.0,0.0,-1.0072,-1.0548,-1.1291,-1.2031,-1.2567,-1.2786,-1.3616,-1.4273,-1.4711,-1.514,-1.5737,-1.6473,-1.6588,-1.677,-1.7239,-1.7527,0.0,0.0,0.0,-1.8812,-1.9155,-1.9498,-1.9804,-2.0078,-2.0086,-2.0078,-2.0086,-1.9783,-1.9576,-1.9576,-1.9071,-1.8869,-1.8764,-1.8227,-1.7799,-1.7477,-1.7477,-1.7272,-1.6967,-1.6105,-1.5684,-1.5369,-1.4821,0.0,0.0,-1.4191,-1.397,-1.364,-1.3645,-1.3423,-1.3207,-1.3207,-1.3207,-1.3098,-1.2881,-1.2558,-1.2132,-1.1817,-1.1501,-1.1194,-1.1194,-1.1096,-1.1096,-1.1096,-1.1096,-1.1091,-1.1063,-1.1114,-1.1216,-1.1216,-1.084,-1.0467,-1.0207,-1.0207,-1.0033,-0.9602,-0.9602,0.0,-0.9262,-0.9262,-0.9174,-0.8823,-0.8823,-0.8556,-0.8113,-0.768,-0.7507,-0.7415,-0.7252,-0.7166,-0.7166,-0.7322,-0.7404,-0.7424,-0.756,-0.7866,0.0,0.0,0.0,0.0,0.0,0.0,0.0,0.0,0.0,0.0,0.0,0.0,0.0,0.0,0.0,-0.9581,-1.0289,-1.0979,-1.1753,-1.2331,-1.2764,-1.2831,-1.351,-1.4124,-1.4638,-1.513,-1.5677,-1.6218,-1.6494,-1.6777,-1.7066,-1.7246,-1.7646,-1.8118,-1.8529,-1.8958,-1.9506,-1.9827,-2.0025,-2.0078,-1.9879,0.0,-1.9783,-1.9279,-1.9078,-1.9078,-1.8639,-1.8325,-1.8128,-1.7799,-1.7272,-1.653,-1.653,-1.6424,-1.6105,-1.569,-1.5261,-1.4713,-1.4606,-1.4504,-1.4186,-1.3862,-1.3753,-1.3645,-1.3207,-1.2989,0.0,-1.2659,-1.255,-1.255,-1.255,-1.224,-1.1921,-1.1817,-1.1299,-1.09,-1.09,-1.0703,-1.0507,-1.0507,-1.0507,-1.0458,-1.0294,-1.0543,-1.0662,-1.0477,-1.0041,-0.9777,-0.9519,-0.9519,-0.9432,-0.9345,-0.9345,-0.9262,-0.8999,-0.8999,-0.8819,-0.8376,-0.8204,-0.7944,-0.768,-0.7507,-0.7415,-0.7143,-0.7265,-0.7326,-0.7326,-0.7482,-0.7614,-0.7726,-0.7756,-0.7962,0.0,0.0,0.0,0.0,0.0,0.0,0.0,0.0,0.0,0.0,0.0,-0.6964,-0.7826,0.0,-0.8825,-0.9628,-1.0086,-1.0613,-1.1502,-1.178,-1.2281,-1.2903,-1.3643,-1.4194,-1.4477,-1.4988,-1.5452,-1.5927,-1.6116,-1.64,-1.6784,-1.6871,-1.7101,-1.7623,-1.7934,-1.8353,-1.8782,-1.9096,-1.925,-1.925,-1.9153,-1.9049,-1.9049,-1.875,-1.8646,-1.8646,-1.8213,-1.7898,-1.7799,-1.7054,-1.653,-1.6105,-1.5791,-1.5684,-1.569,-1.5256,-1.4821,-1.46,-1.4283,-1.4072,-1.3862,-1.3645,-1.3423,-1.3207,-1.2989,-1.2767,-1.255,-1.2332,-1.2223,-1.2223,-1.2005,-1.1704,-1.1403,-1.1403,-1.0997,-1.0609,-1.0609,-1.0511,-1.0413,-1.0413,-1.0329,-1.0228,-1.0132,-1.0063,-1.0049,-0.9958,-0.962,-0.9432,-0.9349,-0.9262,-0.9262,-0.9087,-0.9087,-0.8911,-0.8556,-0.8468,-0.8292,-0.8028,-0.7927,-0.7706,-0.7617,-0.7605,-0.7464,-0.737,-0.7448,-0.7485,-0.7485,-0.7634,-0.7743,-0.7814,-0.7967,-0.822,0.0,0.0,0.0,0.0,0.0,0.0,0.0,-0.451,-0.4982,-0.5979,-0.6382,-0.6892,-0.7935,-0.8269,-0.8647,-0.9442,-0.9701,-1.0134,-1.0978,-1.1119,-1.1585,-1.2662,-1.3528,-1.4106,-1.4196,-1.4688,-1.5077,-1.5547,-1.5635,-1.5947,-1.6381,-1.6578,-1.6745,-1.7107,-1.7463,-1.7743,-1.8058,-1.8303,-1.8422,-1.8422,-1.8318,-1.8318,-1.8318,-1.8213,-1.822,-1.8115,-1.7582,-1.7371,-1.716,-1.6205,-1.5779,-1.5678,-1.5035,-1.5041,-1.5154,-1.4713,-1.4498,-1.439,-1.3856,-1.3645,-1.3532,-1.3315,-1.2989,-1.2772,-1.2767,-1.255,-1.2223,-1.2001,-1.1896,-1.1896,-1.1678,-1.1283,-1.0988,-1.0988,-1.0694,-1.0314,-1.0314,-1.0314,-1.0216,-1.0216,-1.0056,-0.991,-0.9875,-0.9679,-0.9448,-0.9538,-0.938,-0.9174,-0.9174,-0.9174,-0.9087,-0.8819,-0.8736,-0.8556,-0.8201,-0.794,-0.7856,-0.7856,-0.7735,-0.764,-0.764,-0.7609,-0.76,-0.76,-0.7628,-0.7641,-0.7641,-0.7784,-0.7872,-0.7906,-0.8184,-0.8374,-0.0555,-0.1047,-0.1664,-0.1762,-0.2478,-0.3225,0.0,-0.4219,-0.507,-0.5164,-0.6035,-0.6785,-0.6904,-0.7747,-0.8472,-0.887,-0.9366,-0.9973,-1.0558,-1.101,-1.1292,-1.1683,-1.2467,-1.3244,-1.3908,-1.4196,-1.449,-1.4783,-1.5255,-1.5543,-1.5894,-1.6316,-1.6874,-1.7442,-1.7796,-1.8065,-1.8366,-1.8408,-1.8422,-1.8422,-1.8115,-1.8016,-1.8016,-1.7595,-1.7279,-1.7285,-1.6749,-1.6318,-1.6099,-1.5672,-1.5351,-1.5035,-1.4493,-1.4277,-1.4385,-1.4277,-1.4067,-1.3748,-1.3423,-1.3315,-1.3315,-1.2989,-1.2767,-1.2441,-1.2223,-1.1896,-1.1678,-1.1678,-1.1678,-1.1678,-1.1568,-1.1283,-1.0988,-1.0988,-1.0492,-1.0019,-1.0019,-0.9826,-0.9727,-0.9727,-0.9575,-0.9399,-0.9243,-0.9046,-0.9001,-0.9178,-0.9114,-0.8911,-0.874,-0.8656,-0.8564,-0.8288,-0.8288,-0.8201,-0.794,-0.768,-0.7507,-0.7507,-0.7469,-0.7461,-0.7461,-0.7519,-0.76,-0.76,-0.7723,-0.7787,-0.7787,-0.794,-0.8085,-0.8225,-0.8384,-0.8465,0.0581,-0.0099,-0.0799,-0.1198,-0.1808,-0.2436,-0.2894,-0.3553,-0.423,-0.452,-0.5331,-0.6134,-0.6461,-0.7114,-0.7846,-0.8194,-0.8689,-0.9179,-0.9591,-1.0029,-1.0413,-1.0806,-1.1296,-1.2073,-1.3141,-1.3431,-1.3817,-1.4202,-1.454,-1.4967,-1.5373,-1.5729,-1.6205,-1.6826,-1.6942,-1.7178,-1.7364,-1.7364,-1.7364,-1.7364,-1.7265,-1.7265,-1.7265,-1.6855,-1.6537,-1.6211,-1.5885,-1.5565,-1.5137,-1.4815,-1.46,-1.418,-1.3851,-1.3635,-1.3635,-1.3635,-1.364,-1.3423,-1.3207,-1.2985,-1.2767,-1.2441,-1.2223,-1.1896,-1.1787,-1.1678,-1.1568,-1.135,-1.135,-1.1214,-1.1,-1.0669,-1.0443,-1.0232,-0.9811,-0.9529,-0.9324,-0.9225,-0.9126,-0.9126,-0.891,-0.8702,-0.8636,-0.8401,-0.831,-0.8399,-0.8512,-0.838,-0.8208,-0.8212,-0.812,-0.8028,-0.7852,-0.7768,-0.768,-0.7411,-0.7234,-0.7234,-0.7461,-0.7506,-0.7506,-0.7729,-0.7855,-0.7855,-0.7916,-0.7943,-0.7943,-0.8099,-0.8208,-0.8275,-0.8509,-0.8615,0.1601,0.0909,0.0202,-0.0404,-0.101,-0.1626,-0.2183,-0.2744,-0.3321,-0.3831,-0.455,-0.526,-0.5706,-0.6485,-0.7124,-0.7474,-0.7889,-0.8397,-0.8813,-0.9274,-0.9674,-1.0171,-1.0471,-1.1165,-1.2162,-1.2599,-1.3046,-1.3522,-1.387,-1.4248,-1.4813,-1.5089,-1.5415,-1.6112,-1.6118,-1.6317,-1.6518,-1.6518,-1.6518,-1.6518,-1.6411,-1.6411,-1.6305,-1.5998,-1.5571,-1.5244,-1.503,-1.4708,-1.4283,-1.4067,-1.3743,-1.3423,-1.3207,-1.2989,-1.2876,-1.2876,-1.2881,-1.2989,-1.2659,-1.2332,-1.2114,-1.2005,-1.1678,-1.1459,-1.135,-1.135,-1.1131,-1.0798,-1.0688,-1.0647,-1.0262,-1.0087,-0.9804,-0.9524,-0.9253,-0.9031,-0.8825,-0.8825,-0.8825,-0.8825,-0.8598,-0.8393,-0.8344,-0.8109,-0.7908,-0.7775,-0.794,-0.794,-0.7944,-0.7856,-0.7768,-0.7768,-0.7591,-0.7415,-0.7415,-0.7231,-0.7139,-0.7139,-0.7431,-0.76,-0.76,-0.7882,-0.8038,-0.8038,-0.8038,-0.8038,-0.8038,-0.8194,-0.8289,-0.8336,-0.8591,-0.8733,0.2208,0.1615,0.1111,0.101,-0.0,-0.1122,-0.1267,-0.181,-0.2475,-0.2891,-0.3807,-0.448,-0.459,-0.5483,-0.6374,-0.671,-0.7376,-0.8047,-0.8588,-0.8991,-0.9309,-0.9727,-1.014,-1.0659,-1.0966,-1.1808,-1.2489,-1.2689,-1.3217,-1.3664,-1.4206,-1.4531,-1.4855,-1.5541,-1.5767,-1.5885,-1.5891,-1.5891,-1.5891,-1.5891,-1.5672,-1.5559,-1.5559,-1.4922,-1.4606,-1.46,-1.3964,-1.3753,-1.3753,-1.3423,-1.3207,-1.2881,-1.255,-1.2219,-1.2005,-1.1787,-1.2005,-1.2327,-1.1787,-1.1678,-1.1568,-1.1568,-1.135,-1.1017,-1.0802,-1.0582,-1.0257,-0.9926,-0.9816,-0.9775,-0.9608,-0.9447,-0.9287,-0.9119,-0.8948,-0.8825,-0.8825,-0.8825,-0.8825,-0.8825,-0.8694,-0.853,-0.8367,-0.8203,-0.7956,-0.7528,-0.7507,-0.7591,-0.7856,-0.768,-0.7507,-0.7507,-0.7234,-0.7139,-0.7139,-0.7139,-0.7139,-0.7139,-0.7431,-0.76,-0.76,-0.7882,-0.8038,-0.8038,-0.8038,-0.8038,-0.8038,-0.8194,-0.834,-0.8479,-0.8635,-0.8791,0.351,0.2825,0.2119,0.1917,0.1111,0.0305,0.0312,-0.0739,-0.1608,-0.1866,-0.2557,-0.3248,-0.381,-0.459,-0.526,-0.5706,-0.6286,-0.6761,-0.7414,-0.783,-0.8269,-0.8587,-0.9003,-0.9526,-0.9739,-1.0922,-1.1704,-1.2011,-1.2521,-1.2995,-1.3393,-1.3752,-1.4196,-1.4595,-1.4702,-1.4815,-1.4815,-1.4815,-1.4815,-1.4815,-1.4702,-1.4493,-1.4283,-1.4072,-1.3856,-1.3418,-1.3315,-1.2985,-1.255,-1.2441,-1.2332,-1.2005,-1.1896,-1.1673,-1.1345,-1.1131,-1.1021,-1.1021,-1.1459,-1.135,-1.1021,-1.1021,-1.0692,-1.0253,-1.0147,-1.0036,-0.9926,-0.9816,-0.9816,-0.9775,-0.9608,-0.9447,-0.9183,-0.8915,-0.865,-0.8531,-0.8333,-0.8233,-0.8237,-0.8038,-0.7919,-0.7704,-0.7462,-0.7335,-0.7191,-0.6953,-0.7118,-0.7231,-0.7319,-0.7319,-0.7231,-0.7231,-0.7058,-0.6881,-0.6881,-0.67,-0.6646,-0.674,-0.6926,-0.7073,-0.7167,-0.7343,-0.7437,-0.7437,-0.7437,-0.754,-0.7746,-0.7984,-0.8334,-0.8486,-0.8743,-0.8889,0.4718,0.393,0.3226,0.2924,0.222,0.1623,0.1239,0.0418,-0.0531,-0.087,-0.1543,-0.2225,-0.28,-0.3474,-0.4143,-0.4812,-0.5214,-0.5729,-0.6605,-0.6972,-0.735,-0.7788,-0.8214,-0.8638,-0.8966,-0.9972,-1.0805,-1.1199,-1.169,-1.2126,-1.2447,-1.2911,-1.3202,-1.3521,-1.3521,-1.3521,-1.3521,-1.3521,-1.3521,-1.3521,-1.3521,-1.3413,-1.3207,-1.3098,-1.2876,-1.255,-1.2332,-1.2005,-1.1673,-1.1568,-1.135,-1.1131,-1.1131,-1.0911,-1.0582,-1.0472,-1.0257,-1.0147,-1.0802,-1.0692,-1.0363,-1.0363,-1.0143,-0.9816,-0.9706,-0.9596,-0.9482,-0.9372,-0.9261,-0.9116,-0.8956,-0.8807,-0.8661,-0.8299,-0.8147,-0.7935,-0.7739,-0.7739,-0.764,-0.7444,-0.7368,-0.7293,-0.7055,-0.6933,-0.681,-0.6722,-0.6816,-0.6992,-0.6887,-0.6874,-0.6874,-0.6874,-0.67,-0.6612,-0.6612,-0.652,-0.649,-0.6627,-0.6765,-0.6902,-0.704,-0.7168,-0.7238,-0.7238,-0.7238,-0.7238,-0.7444,-0.7723,-0.796,-0.8177,-0.8468,-0.8602,0.5834,0.5133,0.4431,0.4133,0.3429,0.2534,0.1856,0.1346,0.0837,0.0108,-0.0655,-0.1319,-0.1676,-0.2464,-0.3136,-0.3807,-0.4255,-0.4814,-0.604,-0.6262,-0.6599,-0.7385,-0.7721,-0.8054,-0.8383,-0.9072,-0.9709,-1.0266,-1.0728,-1.1266,-1.1489,-1.1814,-1.2032,-1.2346,-1.2346,-1.2341,-1.2327,-1.2327,-1.2327,-1.2327,-1.2327,-1.2327,-1.2327,-1.2005,-1.1896,-1.1896,-1.1345,-1.1017,-1.1017,-1.0802,-1.0472,-1.0257,-1.0257,-1.0036,-0.9706,-0.9706,-0.9706,-0.9706,-0.9706,-0.9706,-0.9706,-0.9706,-0.9706,-0.9706,-0.9379,-0.9151,-0.8813,-0.8595,-0.8263,-0.8014,-0.7883,-0.7754,-0.7623,-0.7486,-0.7348,-0.7244,-0.7238,-0.7238,-0.7238,-0.7138,-0.7138,-0.7099,-0.6979,-0.6852,-0.6765,-0.6759,-0.6756,-0.6659,-0.6474,-0.6441,-0.6438,-0.6428,-0.6428,-0.6343,-0.6343,-0.6343,-0.6403,-0.6545,-0.6674,-0.681,-0.6955,-0.7075,-0.7138,-0.7138,-0.7138,-0.7138,-0.7138,-0.741,-0.7542,-0.7654,-0.7923,-0.8156,0.7036,0.6237,0.5438,0.5039,0.4234,0.3534,0.2944,0.2053,0.1351,0.0944,0.0215,-0.0657,-0.132,-0.1779,-0.2242,-0.2688,-0.3361,-0.4145,-0.4814,-0.5371,-0.5819,-0.6156,-0.6786,-0.729,-0.7627,-0.8085,-0.8481,-0.8873,-1.0038,-1.0858,-1.0972,-1.1196,-1.1364,-1.1234,-1.123,-1.127,-1.1131,-1.1131,-1.1131,-1.1131,-1.1131,-1.1131,-1.1131,-1.1021,-1.0911,-1.0692,-1.0582,-1.0363,-1.0143,-1.0033,-0.9816,-0.9599,-0.9599,-0.9265,-0.8816,-0.8816,-0.8709,-0.8488,-0.8488,-0.8706,-0.9144,-0.8927,-0.8706,-0.8488,-0.8377,-0.8266,-0.8263,-0.8156,-0.8045,-0.8036,-0.8002,-0.7892,-0.7758,-0.7626,-0.7492,-0.7363,-0.726,-0.7238,-0.7138,-0.6942,-0.6739,-0.6628,-0.6597,-0.6564,-0.6513,-0.6426,-0.6415,-0.6421,-0.6527,-0.6584,-0.6545,-0.6441,-0.6254,-0.6169,-0.6169,-0.5994,-0.6,-0.6213,-0.6255,-0.637,-0.6583,-0.662,-0.6637,-0.6637,-0.6637,-0.6736,-0.6942,-0.72,-0.7434,-0.7654,-0.7923,-0.8045,0.7935,0.7235,0.6537,0.5939,0.5138,0.4435,0.3835,0.295,0.2157,0.1552,0.0948,0.0322,-0.0545,-0.0881,-0.1334,-0.2015,-0.2466,-0.3138,-0.4033,-0.4369,-0.4815,-0.5596,-0.6021,-0.6424,-0.6878,-0.7375,-0.771,-0.8066,-0.9179,-0.9838,-0.9838,-1.0297,-1.0486,-1.0398,-1.0439,-1.0432,-1.0257,-1.0363,-1.0363,-1.0363,-1.0363,-1.0363,-1.0253,-1.0147,-1.0036,-0.9926,-0.9592,-0.9372,-0.9261,-0.904,-0.893,-0.8823,-0.8823,-0.8598,-0.8263,-0.8263,-0.8156,-0.7934,-0.7709,-0.7817,-0.8149,-0.8263,-0.8156,-0.8045,-0.8045,-0.7934,-0.7823,-0.7712,-0.749,-0.7379,-0.7271,-0.7177,-0.7056,-0.6937,-0.6813,-0.6688,-0.6564,-0.6537,-0.6437,-0.6339,-0.6137,-0.6034,-0.6034,-0.6137,-0.6218,-0.6158,-0.6246,-0.6371,-0.6464,-0.6389,-0.6305,-0.6175,-0.6074,-0.5964,-0.5911,-0.5822,-0.5836,-0.607,-0.6086,-0.6192,-0.6426,-0.6437,-0.6437,-0.6437,-0.6437,-0.6437,-0.6639,-0.6889,-0.7118,-0.7232,-0.7483,-0.7712,0.8829,0.8131,0.7531,0.6734,0.5937,0.524,0.464,0.3835,0.3041,0.2059,0.1656,0.1256,0.0324,-0.0,-0.0438,-0.1449,-0.1789,-0.2237,-0.3363,-0.3587,-0.4033,-0.5037,-0.535,-0.5641,-0.6212,-0.6752,-0.7235,-0.7592,-0.8213,-0.862,-0.8857,-0.9319,-0.9651,-0.9606,-0.9671,-0.9626,-0.9596,-0.9596,-0.9596,-0.9596,-0.9596,-0.9596,-0.9592,-0.9265,-0.9268,-0.9158,-0.8709,-0.8484,-0.8374,-0.8156,-0.7934,-0.7934,-0.7934,-0.7823,-0.7823,-0.7823,-0.7823,-0.7712,-0.7268,-0.7046,-0.7157,-0.7601,-0.7823,-0.7823,-0.7823,-0.7604,-0.7385,-0.7157,-0.6824,-0.6604,-0.6383,-0.6205,-0.6105,-0.5984,-0.5884,-0.5784,-0.566,-0.5636,-0.5636,-0.5636,-0.5636,-0.5636,-0.5636,-0.5839,-0.5942,-0.5942,-0.6139,-0.6302,-0.6206,-0.6184,-0.6064,-0.5939,-0.5926,-0.5888,-0.5787,-0.5779,-0.5874,-0.6094,-0.6111,-0.6208,-0.6429,-0.6437,-0.6437,-0.6437,-0.6437,-0.6445,-0.6461,-0.669,-0.6812,-0.6831,-0.7051,-0.7379,0.9624,0.8829,0.8131,0.7531,0.6836,0.6039,0.524,0.4437,0.3635,0.304,0.2257,0.1558,0.1359,0.053,-0.0323,-0.0767,-0.1428,-0.2097,-0.2799,-0.3251,-0.3811,-0.4148,-0.4836,-0.5391,-0.5737,-0.6264,-0.6623,-0.6994,-0.7461,-0.8057,-0.8784,-0.9026,-0.8916,-0.8681,-0.8433,-0.8291,-0.8266,-0.8266,-0.8266,-0.8266,-0.8266,-0.8266,-0.8266,-0.8266,-0.8266,-0.8266,-0.8156,-0.8045,-0.8045,-0.8045,-0.7823,-0.7604,-0.7379,-0.7157,-0.6935,-0.6717,-0.6606,-0.6606,-0.6495,-0.6497,-0.6495,-0.6606,-0.6606,-0.6606,-0.6606,-0.6609,-0.6497,-0.6497,-0.6383,-0.6386,-0.6274,-0.626,-0.6198,-0.6003,-0.5941,-0.5874,-0.5677,-0.5636,-0.5636,-0.5636,-0.5636,-0.5636,-0.5636,-0.5636,-0.5636,-0.5636,-0.5737,-0.5729,-0.5712,-0.6012,-0.6189,-0.6067,-0.6053,-0.6045,-0.6026,-0.6026,-0.6086,-0.6227,-0.6236,-0.6295,-0.6431,-0.6437,-0.6437,-0.6437,-0.6437,-0.6486,-0.6589,-0.6733,-0.6855,-0.6956,-0.7092,-0.7265,1.0314,0.9525,0.8832,0.8035,0.7335,0.6637,0.5842,0.5037,0.4234,0.353,0.2743,0.2051,0.1656,0.115,0.0529,-0.0215,-0.1196,-0.1865,-0.2212,-0.279,-0.3253,-0.3701,-0.4467,-0.4997,-0.5344,-0.5696,-0.6133,-0.6497,-0.6616,-0.7143,-0.8113,-0.8424,-0.8506,-0.835,-0.8219,-0.8118,-0.8045,-0.8045,-0.8045,-0.8045,-0.8045,-0.8045,-0.8045,-0.7826,-0.7826,-0.7826,-0.749,-0.7268,-0.7268,-0.716,-0.7014,-0.6848,-0.6626,-0.6481,-0.6322,-0.6216,-0.611,-0.6108,-0.5999,-0.5923,-0.5969,-0.5749,-0.6008,-0.6274,-0.6274,-0.6274,-0.6274,-0.6049,-0.6049,-0.6049,-0.5828,-0.5828,-0.5777,-0.5578,-0.5452,-0.5351,-0.5256,-0.5135,-0.5135,-0.5135,-0.5135,-0.5135,-0.5135,-0.5336,-0.5438,-0.5438,-0.5536,-0.5636,-0.5636,-0.5894,-0.6116,-0.5997,-0.6083,-0.6154,-0.6092,-0.6086,-0.6138,-0.626,-0.6268,-0.632,-0.6431,-0.6437,-0.6437,-0.6437,-0.6437,-0.6497,-0.6619,-0.6741,-0.6866,-0.6989,-0.7103,-0.7154,1.0806,1.0117,0.9426,0.8535,0.7736,0.7135,0.6342,0.5539,0.4634,0.393,0.3228,0.2635,0.185,0.1651,0.1246,0.0212,-0.0858,-0.1627,-0.1748,-0.2324,-0.2905,-0.3474,-0.4095,-0.4594,-0.494,-0.536,-0.5647,-0.5998,-0.6118,-0.6537,-0.7304,-0.7804,-0.8002,-0.8028,-0.8109,-0.8042,-0.7823,-0.7823,-0.7823,-0.7712,-0.7712,-0.7712,-0.7604,-0.7385,-0.7274,-0.7274,-0.6826,-0.6591,-0.6569,-0.6349,-0.6177,-0.6079,-0.5971,-0.592,-0.5955,-0.585,-0.585,-0.5744,-0.5527,-0.5472,-0.5426,-0.5106,-0.5509,-0.6051,-0.6051,-0.6051,-0.6051,-0.5712,-0.5599,-0.5599,-0.5268,-0.5142,-0.5196,-0.5018,-0.4852,-0.4736,-0.4834,-0.4834,-0.4834,-0.4834,-0.4834,-0.4834,-0.4834,-0.4937,-0.514,-0.514,-0.5338,-0.5434,-0.5434,-0.5739,-0.5907,-0.5819,-0.6108,-0.6265,-0.6168,-0.6162,-0.6203,-0.6298,-0.6306,-0.6344,-0.6431,-0.6437,-0.6437,-0.6437,-0.6437,-0.651,-0.666,-0.6755,-0.6877,-0.7024,-0.7114,-0.7154,1.1389,1.0609,0.9821,0.9232,0.8333,0.7431,0.6842,0.5942,0.5039,0.4438,0.3531,0.2726,0.2427,0.1923,0.1325,0.0519,-0.0313,-0.1055,-0.1742,-0.23,-0.2757,-0.3132,-0.3755,-0.4368,-0.4594,-0.5013,-0.5297,-0.5643,-0.623,-0.6706,-0.7074,-0.7319,-0.7358,-0.7336,-0.734,-0.7276,-0.7265,-0.7265,-0.7154,-0.6824,-0.6824,-0.6715,-0.6497,-0.6386,-0.6386,-0.6386,-0.6386,-0.622,-0.6129,-0.6129,-0.6067,-0.597,-0.5755,-0.5642,-0.5633,-0.532,-0.5214,-0.5108,-0.4892,-0.479,-0.4797,-0.4484,-0.4914,-0.5493,-0.5493,-0.5493,-0.5382,-0.5043,-0.4929,-0.4929,-0.4704,-0.4543,-0.4564,-0.4614,-0.4504,-0.4537,-0.4734,-0.4834,-0.4834,-0.4834,-0.4834,-0.4834,-0.4834,-0.4834,-0.4834,-0.4834,-0.4834,-0.4834,-0.4834,-0.5336,-0.5632,-0.5622,-0.6121,-0.6418,-0.6404,-0.6404,-0.6407,-0.642,-0.642,-0.6426,-0.6437,-0.6437,-0.6437,-0.6437,-0.6437,-0.6551,-0.6785,-0.6796,-0.6918,-0.7138,-0.7149,-0.7154,1.1683,1.0998,1.0314,0.943,0.8634,0.7836,0.7042,0.6242,0.5441,0.4539,0.3831,0.3126,0.2521,0.1918,0.1418,0.0816,-0.0103,-0.1048,-0.1611,-0.2283,-0.2642,-0.2799,-0.361,-0.4189,-0.4525,-0.4781,-0.5144,-0.5486,-0.6055,-0.6509,-0.6623,-0.7095,-0.7301,-0.7228,-0.7179,-0.7154,-0.6935,-0.6935,-0.6712,-0.6495,-0.6495,-0.6383,-0.6274,-0.6274,-0.6274,-0.6274,-0.6049,-0.5989,-0.5893,-0.5678,-0.548,-0.5339,-0.5233,-0.5197,-0.5043,-0.4739,-0.4639,-0.4639,-0.4328,-0.4359,-0.44,-0.4297,-0.4477,-0.4794,-0.4735,-0.4782,-0.4817,-0.4704,-0.4704,-0.4583,-0.4428,-0.4327,-0.4329,-0.4371,-0.4293,-0.4236,-0.4537,-0.4537,-0.4638,-0.4734,-0.4834,-0.4834,-0.4834,-0.4834,-0.4834,-0.4834,-0.4834,-0.4834,-0.5037,-0.5336,-0.5636,-0.5839,-0.6137,-0.6437,-0.6437,-0.6437,-0.6437,-0.6437,-0.6437,-0.6437,-0.6437,-0.6437,-0.6437,-0.6437,-0.651,-0.663,-0.6801,-0.6877,-0.6994,-0.7154,-0.7154,-0.7154,1.1975,1.1292,1.0609,0.9529,0.8832,0.8134,0.7141,0.6442,0.5741,0.4738,0.4033,0.3327,0.2522,0.1918,0.1415,0.0,0.0,-0.1037,-0.1584,-0.2256,-0.2623,-0.2668,-0.3354,-0.4035,-0.448,-0.4817,-0.5156,-0.5382,-0.5913,-0.6227,-0.6227,-0.6818,-0.7171,-0.7046,-0.7043,-0.6935,-0.6604,-0.6604,-0.6381,-0.6161,-0.6161,-0.6161,-0.6051,-0.6051,-0.6051,-0.6049,-0.5795,-0.5615,-0.5521,-0.5281,-0.4968,-0.483,-0.483,-0.469,-0.4535,-0.4336,-0.4236,-0.4236,-0.3934,-0.3969,-0.4013,-0.3909,-0.3958,-0.4027,-0.4077,-0.4249,-0.4414,-0.4304,-0.4304,-0.4179,-0.4111,-0.4017,-0.3935,-0.4018,-0.3972,-0.3934,-0.4236,-0.4338,-0.4438,-0.4636,-0.4734,-0.4834,-0.4834,-0.4834,-0.4834,-0.4834,-0.4834,-0.4937,-0.514,-0.5539,-0.5839,-0.5942,-0.6239,-0.6437,-0.6437,-0.6437,-0.6437,-0.6437,-0.6437,-0.6437,-0.6437,-0.6437,-0.6453,-0.6488,-0.6575,-0.6698,-0.6858,-0.6942,-0.7043,-0.7154,-0.7154,-0.7173,1.2175,1.1389,1.0609,0.9821,0.9031,0.8233,0.7338,0.6539,0.5741,0.4935,0.413,0.3327,0.2522,0.1918,0.1415,0.0909,-0.0101,-0.1017,-0.1555,-0.2215,-0.2575,-0.2621,-0.3219,-0.381,-0.448,-0.5043,-0.5382,-0.5382,-0.5847,-0.6115,-0.6115,-0.6551,-0.6808,-0.6707,-0.6715,-0.6604,-0.6274,-0.6274,-0.6161,-0.5822,-0.5822,-0.5712,-0.5382,-0.5382,-0.5382,-0.5375,-0.5286,-0.5194,-0.5102,-0.5012,-0.4718,-0.444,-0.444,-0.4237,-0.4033,-0.4033,-0.4033,-0.3934,-0.3736,-0.3636,-0.3536,-0.3332,-0.3273,-0.3322,-0.3323,-0.3785,-0.4262,-0.3942,-0.3624,-0.3399,-0.3339,-0.3322,-0.341,-0.3552,-0.3636,-0.3635,-0.3932,-0.4236,-0.4438,-0.4438,-0.4638,-0.4834,-0.4834,-0.4834,-0.4834,-0.4834,-0.5037,-0.524,-0.524,-0.5641,-0.6042,-0.6042,-0.6239,-0.6437,-0.6437,-0.6437,-0.6437,-0.6437,-0.6437,-0.6437,-0.6437,-0.6437,-0.6494,-0.6616,-0.6619,-0.6738,-0.6983,-0.6986,-0.7043,-0.7154,-0.7154,-0.711,1.1949,1.1284,1.0609,0.9826,0.9031,0.8233,0.7338,0.6539,0.5741,0.4935,0.413,0.3327,0.2522,0.2222,0.1819,0.0909,-0.0101,-0.1017,-0.1554,-0.2086,-0.254,-0.2617,-0.355,-0.4239,-0.4302,-0.4958,-0.5261,-0.52,-0.5703,-0.6005,-0.6005,-0.6396,-0.6549,-0.6593,-0.6598,-0.6416,-0.5935,-0.5935,-0.5824,-0.5491,-0.5491,-0.5491,-0.5382,-0.5382,-0.5347,-0.5286,-0.5037,-0.4836,-0.4704,-0.4571,-0.4307,-0.4135,-0.4135,-0.4034,-0.3934,-0.3835,-0.3736,-0.3734,-0.3432,-0.3332,-0.3331,-0.3027,-0.2939,-0.2953,-0.2749,-0.3121,-0.3624,-0.3624,-0.3487,-0.3346,-0.3326,-0.329,-0.3255,-0.3337,-0.3332,-0.3432,-0.3633,-0.3934,-0.4135,-0.4338,-0.4638,-0.4834,-0.4834,-0.4834,-0.4834,-0.5037,-0.514,-0.534,-0.5741,-0.5942,-0.607,-0.635,-0.646,-0.6526,-0.6442,-0.6437,-0.6437,-0.6437,-0.6437,-0.6475,-0.6556,-0.6562,-0.6619,-0.6741,-0.6825,-0.6907,-0.6986,-0.7062,-0.7008,-0.6824,-0.6824,-0.6774,0.0,1.0863,1.0289,0.9421,0.8642,0.7865,0.7085,0.6401,0.5618,0.4734,0.4046,0.3358,0.2569,0.2388,0.2,0.07,-0.0201,-0.1014,-0.1745,-0.217,-0.2621,-0.3021,-0.3825,-0.438,-0.4442,-0.4868,-0.5169,-0.5112,-0.5499,-0.5793,-0.5793,-0.5959,-0.6091,-0.6095,-0.6136,-0.5973,-0.5492,-0.5494,-0.5494,-0.5277,-0.5277,-0.5277,-0.5168,-0.5168,-0.5029,-0.4868,-0.462,-0.455,0.0,-0.422,-0.3975,-0.3835,-0.3835,-0.3833,-0.3632,-0.3533,-0.3433,-0.323,-0.313,-0.3027,-0.2826,-0.2724,-0.2623,-0.2623,-0.2422,-0.2666,-0.3029,-0.3029,-0.3108,-0.3081,-0.3081,-0.3157,-0.323,-0.323,-0.323,-0.323,-0.3433,-0.3734,-0.4033,-0.4236,-0.4535,-0.4834,-0.4834,-0.4834,-0.4935,-0.514,-0.524,-0.5539,-0.5942,-0.6178,-0.6334,-0.6611,-0.666,-0.6657,-0.6581,-0.6575,-0.6575,-0.6575,-0.6575,-0.6608,-0.6684,-0.6687,-0.6747,-0.6869,-0.6945,-0.7008,-0.7048,-0.7011,-0.6935,-0.6715,-0.6604,-0.6417,0.0,1.0089,0.9647,0.8897,0.8052,0.7396,0.6646,0.5984,0.0,0.4377,0.381,0.3242,0.2672,0.2424,0.1768,0.0196,-0.0499,-0.1212,-0.2123,-0.236,-0.2818,-0.3711,-0.415,-0.447,-0.4672,-0.4886,-0.5096,-0.509,-0.5222,-0.5379,-0.5379,-0.5489,-0.5482,-0.5375,-0.5461,-0.5409,-0.5108,-0.5108,-0.5108,-0.5108,-0.5108,-0.4894,-0.468,-0.468,-0.4574,-0.4249,-0.4177,-0.4145,-0.4133,-0.3962,-0.3833,-0.3534,-0.3534,-0.3433,-0.313,-0.313,-0.3027,-0.2725,-0.2725,-0.2623,-0.2422,-0.2422,-0.2321,-0.2321,-0.2321,-0.2321,-0.2422,-0.2422,-0.2623,-0.2826,-0.2826,-0.3027,-0.313,-0.323,-0.323,-0.323,-0.323,-0.3632,-0.4033,-0.4033,-0.4435,-0.4834,-0.4834,-0.4834,-0.4937,-0.514,-0.5438,-0.5739,-0.6052,-0.6347,-0.6627,-0.6643,-0.6747,-0.682,-0.6825,-0.6812,-0.6801,-0.6801,-0.6801,-0.6806,-0.6815,-0.6815,-0.6872,-0.6994,-0.6997,-0.7048,-0.7154,-0.6824,-0.6715,-0.6715,-0.6383,-0.6049,0.8629,0.0,0.908,0.834,0.7587,0.6923,0.0,0.0,0.4664,0.4093,0.0,0.2764,0.229,0.1357,0.0393,0.0098,-0.0798,-0.1617,-0.2123,-0.2771,-0.3221,-0.3649,-0.4222,-0.4552,-0.4596,-0.4798,-0.4975,-0.4904,-0.5084,-0.5275,-0.5275,-0.5253,-0.5251,-0.5275,-0.509,-0.5068,-0.5106,-0.5108,-0.5,-0.4786,-0.4786,-0.4682,-0.4367,-0.4367,-0.4334,-0.4172,-0.3946,-0.3806,-0.3759,-0.3438,-0.3331,-0.323,-0.3029,-0.2927,-0.2826,-0.2623,-0.2522,-0.2522,-0.2522,-0.2422,-0.2321,-0.2121,-0.192,-0.1818,-0.1818,-0.212,-0.2422,-0.2422,-0.2422,-0.2522,-0.2725,-0.2826,-0.2927,-0.313,-0.323,-0.323,-0.323,-0.3632,-0.4033,-0.4033,-0.4435,-0.4834,-0.4834,-0.4834,-0.4935,-0.5436,-0.5536,-0.5766,-0.6361,-0.65,-0.6692,-0.688,-0.6923,-0.6978,-0.7065,-0.6907,-0.6801,-0.6801,-0.6801,-0.6844,-0.694,-0.6942,-0.6997,-0.7111,-0.7114,-0.7127,-0.7154,-0.6824,-0.6604,-0.6386,-0.6047,-0.5712,0.7339,0.7771,0.8197,0.7475,0.674,0.6098,0.5552,0.0,0.0,0.0,0.0,0.0,0.167,0.0754,-0.0192,-0.0871,-0.1477,-0.2001,-0.2623,-0.3159,-0.3586,-0.3992,-0.4336,-0.4553,-0.461,-0.4808,-0.4888,-0.4839,-0.4937,-0.5037,-0.5037,-0.5037,-0.5037,-0.5037,-0.4736,-0.4681,-0.4981,-0.4882,-0.4673,-0.457,-0.4464,-0.4259,-0.3951,-0.3951,-0.393,-0.3687,-0.3585,-0.3462,-0.323,-0.3029,-0.2927,-0.2826,-0.2623,-0.2623,-0.2623,-0.2422,-0.2321,-0.2222,-0.2222,-0.2121,-0.2019,-0.1819,-0.1718,-0.1617,-0.1617,-0.1818,-0.2019,-0.2019,-0.212,-0.2222,-0.2424,-0.2624,-0.2826,-0.3027,-0.313,-0.323,-0.323,-0.3533,-0.3835,-0.3934,-0.4334,-0.4636,-0.4734,-0.4834,-0.4935,-0.5536,-0.5677,-0.5933,-0.6508,-0.6717,-0.6836,-0.6972,-0.7032,-0.7089,-0.7149,-0.7037,-0.6964,-0.6964,-0.6964,-0.6994,-0.7059,-0.7062,-0.7092,-0.7154,-0.7154,-0.7154,-0.6935,-0.6715,-0.6381,-0.6049,-0.5712,-0.5491,0.6188,0.6534,0.689,0.628,0.5681,0.5078,0.4636,0.0,0.0,0.0,0.0,0.0,0.0,0.0274,-0.0558,-0.1894,-0.2227,-0.2471,-0.3122,-0.3534,-0.3932,-0.4321,-0.442,-0.4514,-0.4796,-0.4794,-0.4794,-0.4794,-0.4794,-0.4794,-0.4794,-0.4794,-0.4794,-0.4794,-0.4499,-0.4499,-0.4694,-0.4423,-0.4338,-0.4237,-0.4034,-0.3835,-0.3534,-0.3534,-0.3332,-0.313,-0.313,-0.2927,-0.2725,-0.2725,-0.2623,-0.2422,-0.2321,-0.2321,-0.2321,-0.2321,-0.2121,-0.1921,-0.1921,-0.1819,-0.1617,-0.1617,-0.1617,-0.1617,-0.1617,-0.1617,-0.1617,-0.1617,-0.1718,-0.1921,-0.2022,-0.2324,-0.2725,-0.2826,-0.2927,-0.313,-0.323,-0.3433,-0.3635,-0.3932,-0.4236,-0.4437,-0.4734,-0.4834,-0.4939,-0.5457,-0.5637,-0.5911,-0.6461,-0.6749,-0.6991,-0.701,-0.7097,-0.7154,-0.7154,-0.7154,-0.7154,-0.7154,-0.7154,-0.7154,-0.7154,-0.7154,-0.7154,-0.7154,-0.7154,-0.7043,-0.6715,-0.6383,-0.6161,-0.5822,-0.5491,-0.5382,0.467,0.4634,0.4744,0.5002,0.4554,0.4008,0.3751,0.0,0.0,0.0,0.0,0.0,0.0,-0.0456,-0.1204,-0.1859,-0.2492,-0.2964,-0.3222,-0.3835,-0.4312,-0.4341,-0.4532,-0.46,-0.462,-0.4612,-0.4612,-0.4612,-0.4612,-0.4612,-0.4612,-0.4612,-0.4612,-0.4612,-0.4323,-0.4227,-0.4321,-0.4168,-0.3934,-0.3736,-0.3635,-0.3534,-0.323,-0.3029,-0.2927,-0.2826,-0.2623,-0.2522,-0.2422,-0.2422,-0.2422,-0.2422,-0.2121,-0.2021,-0.2021,-0.1818,-0.1718,-0.1617,-0.1617,-0.1617,-0.1617,-0.1617,-0.1617,-0.1617,-0.1617,-0.1617,-0.1617,-0.1617,-0.1617,-0.1718,-0.1921,-0.2021,-0.2223,-0.2725,-0.2826,-0.2927,-0.313,-0.3433,-0.3635,-0.3932,-0.4236,-0.4437,-0.4734,-0.4834,-0.4962,-0.5353,-0.5482,-0.5758,-0.6468,-0.6521,-0.6689,-0.7116,-0.7143,-0.7154,-0.7154,-0.7154,-0.7154,-0.7154,-0.7154,-0.7154,-0.7154,-0.7154,-0.7154,-0.7154,-0.7154,-0.7043,-0.6715,-0.6383,-0.6161,-0.5822,-0.5491,-0.5382,0.3308,0.2831,0.2668,0.2668,0.3076,0.3328,0.2559,0.2151,0.0,0.0,0.0,0.0,0.0,-0.1446,-0.2193,-0.2678,-0.3129,-0.3586,-0.391,-0.4206,-0.4582,-0.4829,-0.4921,-0.5001,-0.4955,-0.495,-0.495,-0.4759,-0.4759,-0.4759,-0.4573,-0.4573,-0.4571,-0.4381,-0.4096,-0.3906,-0.381,-0.3588,-0.3541,-0.3581,-0.3316,-0.313,-0.2927,-0.2724,-0.2623,-0.2623,-0.2422,-0.2321,-0.2222,-0.2222,-0.212,-0.1919,-0.1819,-0.1819,-0.1819,-0.1617,-0.1617,-0.1617,-0.1617,-0.1415,-0.1212,-0.1212,-0.1212,-0.1212,-0.1212,-0.1212,-0.1212,-0.1212,-0.1415,-0.1617,-0.1718,-0.1921,-0.2021,-0.2323,-0.2625,-0.2826,-0.2927,-0.323,-0.3433,-0.3734,-0.4034,-0.4236,-0.4537,-0.4776,-0.5026,-0.5382,-0.5477,-0.579,-0.6207,-0.6381,-0.6438,-0.671,-0.6715,-0.6826,-0.6935,-0.6935,-0.7046,-0.7154,-0.7154,-0.7154,-0.7154,-0.7154,-0.7154,-0.6935,-0.6935,-0.6712,-0.6267,-0.6047,-0.5826,-0.5601,-0.5493,-0.5406,0.1785,0.1166,0.0778,0.0469,0.0,0.2252,0.1334,0.0837,0.0506,0.0,0.0,-0.1128,-0.1508,-0.2415,-0.3163,-0.341,-0.3748,-0.4171,-0.4567,-0.4666,-0.4847,-0.52,-0.5291,-0.5282,-0.5256,-0.5253,-0.516,-0.4877,-0.4877,-0.4786,-0.4508,-0.451,-0.4321,-0.4131,-0.3852,-0.3573,-0.3384,-0.3116,-0.3067,-0.3338,-0.2988,-0.2712,-0.2724,-0.2423,-0.2321,-0.2322,-0.222,-0.212,-0.1921,-0.1921,-0.1819,-0.1617,-0.1415,-0.1415,-0.1415,-0.1415,-0.1415,-0.1415,-0.1516,-0.1314,-0.0909,-0.0707,-0.0606,-0.0606,-0.0606,-0.0707,-0.0808,-0.0808,-0.1212,-0.1617,-0.1617,-0.1718,-0.1921,-0.2022,-0.2323,-0.2624,-0.2725,-0.2927,-0.323,-0.3534,-0.3734,-0.4034,-0.4236,-0.4608,-0.4981,-0.5212,-0.5461,-0.5684,-0.6037,-0.6111,-0.6163,-0.6274,-0.6274,-0.6386,-0.6604,-0.6604,-0.6715,-0.6935,-0.7043,-0.7043,-0.7043,-0.7046,-0.6824,-0.6604,-0.6604,-0.6381,-0.5822,-0.5822,-0.5712,-0.5382,-0.5402,-0.5445,-0.015,-0.0378,-0.0457,-0.1013,-0.0479,0.0244,0.0163,-0.0331,0.0,-0.101,-0.1854,-0.2547,-0.2953,-0.3366,-0.361,-0.3867,-0.4348,-0.4756,-0.4838,-0.5043,-0.5197,-0.5099,-0.5087,-0.505,-0.5041,-0.5032,-0.4945,-0.477,-0.4681,-0.4589,-0.4318,-0.4053,-0.3965,-0.3965,-0.3512,-0.3151,-0.297,-0.2757,-0.2648,-0.2746,-0.275,-0.2579,-0.2422,-0.2121,-0.2122,-0.2224,-0.1819,-0.1617,-0.1617,-0.1617,-0.1617,-0.1516,-0.101,-0.0808,-0.0808,-0.0808,-0.0808,-0.0909,-0.1415,-0.1617,-0.1415,-0.0404,-0.0101,-0.0101,-0.0101,-0.0404,-0.0808,-0.0808,-0.1212,-0.1617,-0.1617,-0.1617,-0.1718,-0.1921,-0.2022,-0.2223,-0.2725,-0.2826,-0.3027,-0.3534,-0.3636,-0.3736,-0.3934,-0.4406,-0.4692,-0.4765,-0.5072,-0.5383,-0.5799,-0.5817,-0.5935,-0.6274,-0.6274,-0.6274,-0.6274,-0.6274,-0.6386,-0.6386,-0.6604,-0.6712,-0.6712,-0.6495,-0.6386,-0.6274,-0.6274,-0.6161,-0.5822,-0.5822,-0.5712,-0.5384,-0.5463,-0.5502,-0.221,-0.2361,-0.2438,-0.2387,-0.236,0.0,0.0,-0.2242,-0.2346,-0.246,-0.2796,-0.3314,-0.3812,-0.3939,-0.4142,-0.4353,-0.4619,-0.4807,-0.5105,-0.52,-0.5359,-0.5662,-0.5572,-0.547,-0.5424,-0.5331,-0.5074,-0.4737,-0.4734,-0.4592,-0.4218,-0.3957,-0.3805,-0.3676,-0.3406,-0.3048,-0.2691,-0.2533,-0.2395,-0.2178,-0.2232,-0.2267,-0.2184,-0.1909,-0.1819,-0.1819,-0.1314,-0.1111,-0.1111,-0.1111,-0.1313,-0.1516,-0.0606,-0.0303,-0.0303,-0.0303,-0.0303,-0.0303,-0.0505,-0.0606,-0.0505,-0.0101,-0.0,-0.0,-0.0,-0.0101,-0.0303,-0.0303,-0.0404,-0.0707,-0.101,-0.1314,-0.1617,-0.1718,-0.1718,-0.1819,-0.2223,-0.2423,-0.2623,-0.3029,-0.323,-0.3432,-0.3736,-0.4099,-0.4382,-0.4459,-0.4753,-0.5056,-0.5252,-0.5377,-0.5603,-0.5717,-0.5938,-0.5935,-0.5935,-0.6161,-0.6274,-0.6274,-0.6386,-0.6495,-0.6495,-0.6386,-0.6163,-0.6047,-0.5935,-0.5824,-0.5603,-0.5603,-0.5518,-0.5459,-0.5266,-0.5222,-0.3587,-0.3808,-0.3882,-0.3695,0.0,0.0,-0.3969,-0.3801,-0.3624,-0.3679,-0.3873,-0.4157,-0.447,-0.4675,-0.4785,-0.4954,-0.5035,-0.5202,-0.5449,-0.5535,-0.5618,-0.5951,-0.5871,-0.5791,-0.571,-0.5541,-0.5288,-0.4701,-0.4703,-0.4482,-0.4038,-0.3783,-0.3635,-0.3427,-0.3098,-0.2753,-0.24,-0.2325,-0.2079,-0.1651,-0.1803,-0.1845,-0.1966,-0.1502,-0.1415,-0.1617,-0.1212,-0.0707,-0.0,-0.0,-0.0404,-0.0808,-0.0,0.0101,-0.0,-0.0,-0.0,-0.0,-0.0,-0.0,-0.0,-0.0,0.0202,0.0505,0.0505,0.0303,-0.0,-0.0,-0.0,-0.0101,-0.0404,-0.0808,-0.1111,-0.1314,-0.1516,-0.1617,-0.1819,-0.2121,-0.2322,-0.2623,-0.2927,-0.313,-0.3332,-0.3791,-0.4068,-0.4143,-0.4432,-0.4728,-0.4806,-0.5043,-0.5268,-0.5382,-0.5603,-0.5712,-0.5712,-0.5938,-0.6051,-0.6051,-0.6051,-0.6051,-0.6161,-0.6051,-0.5938,-0.5712,-0.5712,-0.5601,-0.5382,-0.5268,-0.5312,-0.5281,-0.5081,-0.4932,-0.4365,-0.4533,-0.4769,-0.5042,0.0,0.0,-0.5372,-0.4908,-0.446,-0.4696,-0.4944,-0.51,-0.51,-0.5366,-0.5618,-0.5618,-0.5865,-0.6031,-0.6031,-0.6031,-0.6031,-0.6031,-0.6031,-0.5948,-0.5705,-0.5705,-0.5452,-0.4782,-0.4701,-0.4365,-0.3695,-0.3528,-0.3276,-0.303,-0.2579,-0.2347,-0.2086,-0.1864,-0.1705,-0.1436,-0.1466,-0.1513,-0.1572,-0.1001,-0.1111,-0.1617,-0.1617,-0.0404,0.1616,0.1616,0.1313,0.0808,0.0808,0.0505,-0.0,-0.0,-0.0,-0.0,-0.0,-0.0,-0.0,-0.0,0.0707,0.1617,0.1617,0.0808,-0.0,-0.0,-0.0,-0.0,-0.0,-0.0,-0.0101,-0.0707,-0.1212,-0.1617,-0.1617,-0.1819,-0.2122,-0.2321,-0.2623,-0.2826,-0.2826,-0.3379,-0.3857,-0.3928,-0.4216,-0.4399,-0.447,-0.4706,-0.5043,-0.5382,-0.5382,-0.5382,-0.5382,-0.5382,-0.5382,-0.5382,-0.5382,-0.5491,-0.5822,-0.5491,-0.5382,-0.5382,-0.5382,-0.5382,-0.5382,-0.5044,-0.4974,-0.4943,-0.4791,-0.4749,-0.5658,-0.5783,-0.5975,-0.5837,0.0,0.0,0.0,-0.5649,0.0,-0.5548,-0.5673,-0.573,-0.5821,-0.5953,-0.5984,-0.5829,-0.5909,-0.5909,-0.5909,-0.5909,-0.5988,-0.6152,-0.5915,-0.5677,-0.5598,-0.536,-0.5042,-0.4559,-0.4477,-0.427,-0.3689,-0.3366,-0.3144,-0.2775,-0.2539,-0.2225,-0.1912,-0.1836,-0.1679,-0.1436,-0.0733,-0.0844,-0.1444,-0.0589,0.01,0.0606,0.0202,0.0401,0.0989,0.1366,0.1456,0.1262,0.1262,0.1165,0.0972,0.069,0.0594,0.0595,0.0603,0.0606,0.0606,0.0606,0.0808,0.1111,0.1516,0.1415,0.101,0.0707,0.0606,0.0606,0.0606,0.0303,-0.0,-0.0202,-0.0404,-0.0707,-0.1415,-0.1617,-0.1718,-0.1818,-0.202,-0.2323,-0.2522,-0.2838,-0.3071,-0.3232,-0.3714,-0.4121,-0.4463,-0.4592,-0.4704,-0.4706,-0.4817,-0.4817,-0.4817,-0.4817,-0.4817,-0.4817,-0.4817,-0.5041,-0.5491,-0.5266,-0.5043,-0.5043,-0.4817,-0.4817,-0.4817,-0.4761,-0.4714,-0.4793,-0.4512,-0.4463,-0.6884,-0.6944,-0.6997,-0.6814,-0.6877,-0.697,-0.697,-0.6483,-0.6046,-0.6284,-0.6379,-0.6334,-0.6353,-0.6417,-0.6384,-0.6235,-0.621,-0.6227,-0.609,-0.6083,-0.6063,-0.6084,-0.5825,-0.5628,-0.5555,-0.5295,-0.4935,-0.4462,-0.4384,-0.4099,-0.3443,-0.3287,-0.2986,-0.2537,-0.2312,-0.2096,-0.1801,-0.1731,-0.1406,-0.0807,-0.0273,-0.0092,-0.0283,0.0096,0.0782,0.1581,0.1186,0.1079,0.1067,0.1342,0.1526,0.1526,0.1526,0.1526,0.1433,0.116,0.1073,0.1082,0.1094,0.1104,0.1111,0.1111,0.1111,0.1212,0.1516,0.1617,0.1516,0.1212,0.1111,0.1111,0.1111,0.0909,0.0505,0.0101,-0.0,-0.0202,-0.0808,-0.1111,-0.1314,-0.1516,-0.1718,-0.192,-0.2019,-0.2423,-0.2641,-0.269,-0.3179,-0.3687,-0.4093,-0.4241,-0.4369,-0.4479,-0.448,-0.448,-0.448,-0.448,-0.448,-0.448,-0.448,-0.4704,-0.5043,-0.4817,-0.4706,-0.4706,-0.4592,-0.448,-0.448,-0.4443,-0.4402,-0.4472,-0.4306,-0.4132,-0.8051,-0.7966,-0.7937,-0.7918,-0.775,-0.7587,-0.7587,-0.7278,-0.7045,-0.6991,-0.6995,-0.6932,-0.6738,-0.6868,-0.6896,-0.6678,-0.6802,-0.6768,-0.6318,-0.63,-0.6173,-0.582,-0.5698,-0.5557,-0.5414,-0.5304,-0.4991,-0.4448,-0.4377,-0.3995,-0.3141,-0.3062,-0.2747,-0.2196,-0.2003,-0.1802,-0.1676,-0.1459,-0.0877,-0.0,0.009,0.0544,0.1385,0.0942,0.1047,0.1526,0.1523,0.1522,0.1522,0.1519,0.1517,0.1517,0.1517,0.1517,0.1518,0.1521,0.1541,0.1568,0.157,0.1592,0.1617,0.1617,0.1617,0.1617,0.1617,0.1617,0.1617,0.1617,0.1617,0.1617,0.1617,0.1617,0.1314,0.0404,0.0101,0.0101,-0.0,-0.0404,-0.0909,-0.1415,-0.1516,-0.1516,-0.1617,-0.2019,-0.2335,-0.2483,-0.2774,-0.3161,-0.3387,-0.3657,-0.4029,-0.4257,-0.4369,-0.4369,-0.4369,-0.4369,-0.4369,-0.4369,-0.4369,-0.4369,-0.4369,-0.4369,-0.448,-0.448,-0.448,-0.4369,-0.4369,-0.411,-0.4062,-0.4118,-0.3955,-0.3776,-0.9311,-0.9095,0.0,-0.8701,-0.8485,-0.8317,-0.8317,-0.8199,-0.8046,-0.7601,-0.7431,-0.7415,-0.742,-0.741,-0.7225,-0.6865,-0.6893,-0.6687,-0.6223,-0.6147,-0.5988,-0.5594,-0.5397,-0.527,-0.5131,-0.48,-0.4566,-0.4268,-0.4033,-0.3684,-0.3141,-0.2826,-0.2433,-0.1964,-0.1737,-0.1602,-0.1393,-0.1007,-0.0515,-0.0,0.0712,0.1169,0.1355,0.1384,0.1409,0.1525,0.1501,0.1491,0.1489,0.1465,0.1455,0.1455,0.1455,0.1455,0.1457,0.1482,0.151,0.1539,0.1563,0.1592,0.1617,0.1617,0.1617,0.1617,0.1617,0.1617,0.1617,0.1617,0.1617,0.1617,0.1617,0.1617,0.1516,0.1314,0.0909,0.0505,0.0101,-0.0101,-0.0303,-0.0909,-0.101,-0.1111,-0.1516,-0.1718,-0.1931,-0.238,-0.2611,-0.2651,-0.2834,-0.2852,-0.2985,-0.3025,-0.3141,-0.3141,-0.3141,-0.3141,-0.3141,-0.3141,-0.3141,-0.3141,-0.3141,-0.3701,-0.4148,-0.4148,-0.3923,-0.3811,-0.3811,-0.358,-0.3521,-0.3533,-0.3272,-0.3198,-1.0347,0.0,0.0,-0.9485,-0.9205,-0.8958,-0.8894,-0.8894,-0.8798,-0.8393,-0.8087,-0.7793,-0.7627,-0.7592,-0.7451,-0.6962,-0.6962,-0.6844,-0.6209,-0.6128,-0.5958,-0.5392,-0.5163,-0.4995,-0.4779,-0.46,-0.4301,-0.4008,-0.3757,-0.3501,-0.3084,-0.27,-0.2249,-0.1886,-0.1729,-0.151,-0.1302,-0.0659,-0.0084,0.0348,0.1056,0.1511,0.1616,0.1452,0.1559,0.1667,0.1466,0.1459,0.1457,0.1442,0.1436,0.1436,0.1436,0.1436,0.1438,0.1453,0.1487,0.1528,0.1544,0.1579,0.1617,0.1617,0.1617,0.1617,0.1617,0.1617,0.1617,0.1617,0.1617,0.1617,0.1617,0.1617,0.1617,0.1617,0.1405,0.1096,0.0797,0.0297,-0.0099,-0.0398,-0.0399,-0.07,-0.1513,-0.1617,-0.1723,-0.2046,-0.2063,-0.22,-0.2369,-0.2503,-0.2643,-0.2689,-0.2693,-0.2693,-0.2693,-0.2693,-0.2693,-0.2693,-0.2693,-0.2693,-0.2693,-0.3142,-0.3366,-0.3366,-0.3253,-0.3141,-0.3141,-0.3105,-0.3037,-0.3063,-0.3016,-0.294,-1.1186,0.0,-1.0685,-1.0178,-0.9854,-0.9588,-0.9466,-0.9402,-0.9338,-0.9145,-0.8624,-0.8107,-0.7722,-0.7669,-0.7518,-0.7048,-0.7034,-0.6941,-0.6257,-0.6101,-0.5841,-0.5103,-0.4928,-0.4792,-0.4439,-0.4336,-0.4116,-0.3759,-0.3555,-0.3231,-0.2928,-0.2491,-0.2139,-0.1874,-0.1725,-0.1429,-0.1052,-0.0325,0.0249,0.0775,0.1214,0.1672,0.1885,0.1615,0.1615,0.1884,0.1615,0.1436,0.1436,0.1436,0.1436,0.1436,0.1436,0.1436,0.1436,0.1436,0.147,0.1519,0.1524,0.1562,0.161,0.1615,0.1617,0.1617,0.1617,0.1617,0.1617,0.1617,0.1617,0.1617,0.1617,0.1617,0.1617,0.1617,0.159,0.1467,0.1472,0.087,0.0192,0.0097,-0.0,-0.0296,-0.1209,-0.1415,-0.1415,-0.1415,-0.1534,-0.1766,-0.201,-0.2262,-0.2522,-0.2566,-0.2576,-0.2581,-0.2581,-0.2581,-0.2581,-0.2581,-0.2581,-0.2581,-0.2581,-0.2581,-0.2581,-0.2581,-0.2693,-0.2693,-0.2693,-0.2736,-0.2666,-0.2709,-0.2753,-0.2796,-1.1632,0.0,-1.0798,0.0,-1.0192,-0.9919,-0.9919,-0.9798,-0.967,-0.946,-0.8888,-0.8447,-0.8382,-0.8017,-0.7574,-0.724,-0.7003,-0.668,-0.6058,-0.5785,-0.5446,-0.4897,-0.4582,-0.4322,-0.4118,-0.3873,-0.3657,-0.3451,-0.3164,-0.2843,-0.2487,-0.2094,-0.1821,-0.1675,-0.1477,-0.0944,-0.0158,-0.0081,0.0408,0.1233,0.1537,0.1934,0.2424,0.2154,0.2154,0.2154,0.1884,0.1705,0.1705,0.1525,0.1436,0.1436,0.1436,0.1436,0.1436,0.1436,0.1457,0.1491,0.1517,0.1549,0.1582,0.1608,0.1617,0.1617,0.1617,0.1617,0.1617,0.1617,0.1617,0.1617,0.1617,0.1617,0.1617,0.1617,0.1573,0.1539,0.1468,0.1354,0.1145,0.067,0.0194,-0.0099,-0.0201,-0.0606,-0.0909,-0.0909,-0.1316,-0.1634,-0.1664,-0.18,-0.1832,-0.1863,-0.189,-0.1908,-0.1908,-0.1908,-0.1908,-0.1908,-0.1908,-0.1908,-0.1908,-0.1908,-0.1908,-0.1908,-0.2469,-0.2693,-0.2693,-0.251,-0.232,-0.2358,-0.2156,-0.2068,-1.2305,-1.1948,-1.1471,-1.1202,-1.083,-1.0428,-1.0238,-1.0117,-0.9989,-0.9728,-0.928,-0.8829,-0.8576,-0.8187,-0.7727,-0.7265,-0.7012,-0.6683,-0.602,-0.5752,-0.5418,-0.4894,-0.45,-0.4164,-0.3892,-0.3666,-0.3421,-0.3217,-0.2906,-0.2665,-0.2279,-0.202,-0.1765,-0.159,-0.0918,-0.0387,-0.0,0.0476,0.0964,0.1466,0.1958,0.2271,0.2471,0.259,0.2513,0.2334,0.2154,0.1974,0.1794,0.1705,0.1525,0.1436,0.1436,0.1436,0.1436,0.1436,0.1455,0.1485,0.1515,0.1546,0.1577,0.1607,0.1617,0.1617,0.1617,0.1617,0.1617,0.1617,0.1617,0.1617,0.1617,0.1617,0.1617,0.1617,0.157,0.153,0.1543,0.1508,0.1392,0.1235,0.0775,0.0395,0.0403,-0.0,-0.0303,-0.0303,-0.0505,-0.0814,-0.114,-0.1151,-0.1269,-0.1292,-0.1303,-0.1309,-0.1309,-0.1309,-0.1309,-0.1309,-0.1309,-0.1314,-0.1326,-0.1327,-0.1333,-0.1346,-0.1907,-0.2244,-0.2244,-0.2034,-0.207,-0.2004,-0.19,-0.1931,-1.2826,0.0,-1.2081,-1.186,-1.1372,-1.0839,-1.0504,-1.0371,-1.0238,-0.9926,-0.96,-0.921,-0.8705,-0.8312,-0.7857,-0.733,-0.7077,-0.6683,-0.602,-0.5686,-0.5355,-0.4827,-0.4431,-0.403,-0.3758,-0.3496,-0.3228,-0.2956,-0.2688,-0.2443,-0.208,-0.1886,-0.1642,-0.1336,-0.0451,0.0076,0.0311,0.1018,0.1511,0.1791,0.2273,0.2493,0.2608,0.2828,0.2858,0.2693,0.2423,0.2154,0.1885,0.1794,0.1615,0.1436,0.1436,0.1436,0.1436,0.1436,0.145,0.1474,0.1513,0.1541,0.1566,0.1605,0.1617,0.1617,0.1617,0.1617,0.1617,0.1617,0.1617,0.1617,0.1617,0.1617,0.1617,0.1617,0.157,0.1522,0.1506,0.1468,0.1453,0.1514,0.1254,0.0983,0.1006,0.0707,0.0404,0.0202,0.0202,0.0101,-0.0309,-0.0414,-0.0418,-0.0423,-0.0426,-0.0427,-0.0427,-0.0427,-0.0427,-0.0427,-0.0427,-0.043,-0.0437,-0.0437,-0.0441,-0.0448,-0.0897,-0.1234,-0.157,-0.157,-0.1598,-0.1532,-0.165,-0.1678,-1.29,-1.2662,-1.2424,-1.2053,-1.1604,-1.1163,-1.0869,-1.0555,-1.0238,-1.0047,-0.9722,-0.9396,-0.9017,-0.8436,-0.7917,-0.7521,-0.7138,-0.6683,-0.602,-0.5624,-0.5226,-0.4691,-0.4159,-0.3758,-0.3565,-0.3226,-0.2956,-0.2753,-0.2421,-0.202,-0.1685,-0.1589,-0.1193,-0.0562,-0.0222,0.0379,0.1214,0.1476,0.1829,0.2276,0.2525,0.2752,0.3038,0.3041,0.3077,0.3138,0.2691,0.2334,0.2154,0.1885,0.1615,0.1436,0.1436,0.1436,0.1436,0.1436,0.1436,0.1446,0.1506,0.1527,0.1538,0.1598,0.1617,0.1617,0.1617,0.1617,0.1617,0.1617,0.1617,0.1617,0.1617,0.1617,0.1617,0.1617,0.157,0.151,0.1453,0.1438,0.1453,0.1514,0.1528,0.1547,0.1607,0.1516,0.1314,0.0808,0.0808,0.0707,0.0708,0.0719,0.0727,0.0728,0.0739,0.0747,0.0747,0.0747,0.0747,0.0747,0.0747,0.0752,0.0765,0.0765,0.0771,0.0785,0.0785,0.0224,-0.0897,-0.0897,-0.0913,-0.0942,-0.0942,-0.0959,-1.3273,-1.3035,-1.2769,-1.2591,-1.1967,-1.1355,-1.1187,-1.0823,-1.0371,-1.0047,-0.9856,-0.9536,-0.9081,-0.8501,-0.7977,-0.7587,-0.7068,-0.6548,-0.5954,-0.5491,-0.5024,-0.4625,-0.4159,-0.3692,-0.3362,-0.3092,-0.2891,-0.2555,-0.2288,-0.2085,-0.1748,-0.1629,-0.117,-0.021,0.0143,0.0659,0.1439,0.1784,0.2128,0.2463,0.2664,0.2951,0.3167,0.3043,0.3099,0.3161,0.2813,0.2482,0.2154,0.2064,0.1794,0.1436,0.1436,0.1436,0.1436,0.1436,0.1436,0.1444,0.1505,0.1526,0.1536,0.1597,0.1617,0.1617,0.1617,0.1617,0.1617,0.1617,0.1617,0.1617,0.1617,0.1617,0.1612,0.1592,0.1556,0.1515,0.1473,0.1449,0.1453,0.1514,0.1526,0.1545,0.1607,0.1617,0.1516,0.1314,0.1617,0.1819,0.1819,0.1828,0.1835,0.1835,0.1846,0.1647,0.134,0.134,0.134,0.134,0.134,0.1351,0.1375,0.1391,0.1519,0.1434,0.145,0.1121,0.0224,0.0224,0.0227,0.0232,0.0352,0.0358,-1.3492,-1.3338,-1.3148,-1.2897,-1.2412,-1.184,-1.1431,-1.1101,-1.0681,-1.013,-0.9926,-0.967,-0.9081,-0.863,-0.8107,-0.7587,-0.7064,-0.6544,-0.5954,-0.5422,-0.4954,-0.4556,-0.4092,-0.3625,-0.3159,-0.3023,-0.2757,-0.2356,-0.2154,-0.1884,-0.1681,-0.1278,-0.0613,0.049,0.07,0.1078,0.1666,0.2077,0.2411,0.2589,0.295,0.3145,0.3336,0.3141,0.3115,0.3178,0.2946,0.2552,0.2243,0.2243,0.1885,0.1436,0.1436,0.1436,0.1436,0.1436,0.1436,0.1442,0.1493,0.1517,0.1534,0.1585,0.1609,0.1617,0.1617,0.1617,0.1617,0.1617,0.1617,0.1617,0.1617,0.1617,0.1609,0.1579,0.1556,0.1533,0.1596,0.1564,0.1466,0.1611,0.163,0.1752,0.1808,0.1919,0.1919,0.1919,0.2223,0.2425,0.2425,0.2423,0.2422,0.2422,0.2422,0.222,0.1919,0.1919,0.1919,0.1919,0.1919,0.1833,0.1867,0.2007,0.2043,0.2077,0.2113,0.1907,0.1458,0.1346,0.1244,0.115,0.1286,0.1311,0.0,0.0,0.0,-1.3104,-1.2875,-1.257,-1.1748,-1.1411,-1.1059,-1.0181,-0.9996,-0.9798,-0.9151,-0.87,-0.8252,-0.7591,-0.7064,-0.6478,-0.5954,-0.5422,-0.4888,-0.4353,-0.4023,-0.3558,-0.3023,-0.282,-0.2554,-0.2221,-0.1817,-0.1547,-0.1412,-0.0471,0.0478,0.1469,0.1471,0.1725,0.2119,0.2269,0.2527,0.2826,0.3292,0.3568,0.3568,0.3331,0.3289,0.3362,0.2922,0.2549,0.2241,0.2243,0.1885,0.1436,0.1436,0.1436,0.1436,0.1436,0.1436,0.135,0.1378,0.1407,0.1531,0.1562,0.1592,0.1617,0.1617,0.1617,0.1617,0.1617,0.1617,0.1617,0.1617,0.1617,0.1609,0.158,0.1572,0.1661,0.1822,0.1692,0.1585,0.1902,0.194,0.2074,0.2313,0.2422,0.2422,0.2422,0.2422,0.2422,0.2422,0.2422,0.2422,0.2422,0.2422,0.2422,0.2422,0.2422,0.2422,0.2422,0.2422,0.2441,0.2486,0.2531,0.2577,0.2623,0.2669,0.2692,0.2693,0.2132,0.181,0.184,0.1871,0.1918,-1.3492,0.0,0.0,0.0,0.0,0.0,-1.2297,-1.1806,-1.1162,-1.0475,-1.0352,-1.0093,-0.918,-0.87,-0.8252,-0.7591,-0.6937,-0.635,-0.5958,-0.5292,-0.4758,-0.4353,-0.4023,-0.3558,-0.282,-0.2753,-0.2487,-0.2018,-0.1748,-0.1614,-0.1547,-0.0067,0.1014,0.1429,0.1596,0.1781,0.2064,0.2475,0.2758,0.2984,0.337,0.3618,0.372,0.3329,0.3214,0.3203,0.2644,0.2287,0.2108,0.214,0.1885,0.1436,0.1436,0.1436,0.1436,0.1436,0.1166,0.0899,0.0919,0.0938,0.0957,0.0976,0.0995,0.101,0.101,0.101,0.1111,0.1516,0.1617,0.1617,0.1617,0.1617,0.1615,0.1607,0.1588,0.1667,0.1951,0.1941,0.1936,0.2236,0.2248,0.227,0.2413,0.2422,0.2422,0.2422,0.2522,0.2725,0.2927,0.313,0.3331,0.353,0.353,0.353,0.3327,0.3226,0.3228,0.3027,0.2826,0.2731,0.2745,0.2588,0.253,0.2575,0.2622,0.2661,0.2693,0.2581,0.2362,0.2035,0.1978,0.1907,-1.3697,-1.3601,-1.3499,-1.3419,0.0,0.0,-1.2473,-1.2018,-1.153,-1.0831,-1.0482,-1.0151,-0.9331,-0.8766,-0.8177,-0.7591,-0.6872,-0.6284,-0.5954,-0.5296,-0.4694,-0.4353,-0.4023,-0.3491,-0.2753,-0.2686,-0.2418,-0.1816,-0.1681,-0.1412,-0.0941,0.0337,0.1213,0.148,0.1571,0.1886,0.2297,0.265,0.2943,0.3172,0.3511,0.3604,0.3684,0.3295,0.3086,0.2967,0.2509,0.2228,0.2034,0.2099,0.178,0.1436,0.1436,0.1256,0.1166,0.1345,0.1256,0.0899,0.0546,0.0371,0.0378,0.0482,0.0492,0.05,0.0504,0.0505,0.0606,0.1111,0.1415,0.1617,0.1617,0.1617,0.1617,0.1617,0.1603,0.169,0.2087,0.2185,0.2279,0.2554,0.2566,0.259,0.2719,0.2826,0.2927,0.2927,0.3128,0.333,0.3531,0.3633,0.3833,0.4033,0.4033,0.3932,0.383,0.3729,0.3731,0.3531,0.343,0.3328,0.3328,0.3184,0.3242,0.3301,0.3361,0.331,0.3254,0.2918,0.2591,0.2383,0.2328,0.2257,-1.3989,-1.377,-1.3462,-1.3207,-1.3127,0.0,-1.2414,-1.2203,-1.1908,-1.1127,-1.0597,-1.0068,-0.9466,-0.8744,-0.8072,-0.7526,-0.6872,-0.6284,-0.5954,-0.5296,-0.4694,-0.4356,-0.4023,-0.3491,-0.282,-0.2686,-0.2418,-0.1681,-0.1548,-0.1076,-0.0067,0.0674,0.128,0.1547,0.1614,0.1909,0.2455,0.2807,0.3101,0.3257,0.3645,0.3684,0.3526,0.3139,0.2904,0.2749,0.2408,0.2108,0.1875,0.1873,0.1666,0.1431,0.1255,0.0987,0.0628,0.1076,0.1166,0.1077,0.018,-0.0091,-0.0093,-0.0094,-0.0,-0.0,-0.0,-0.0,0.0101,0.0606,0.101,0.1415,0.1617,0.1617,0.1617,0.1617,0.1617,0.1717,0.222,0.2422,0.251,0.2764,0.2794,0.2927,0.323,0.3433,0.3636,0.3635,0.3835,0.4033,0.4033,0.4033,0.4033,0.4133,0.4133,0.4133,0.4133,0.4133,0.4133,0.4133,0.4033,0.4033,0.4033,0.4097,0.4171,0.4247,0.4331,0.4191,0.4036,0.3142,0.2714,0.2755,0.2798,0.2842,-1.3896,-1.3705,-1.3522,-1.311,-1.2826,0.0,-1.2531,-1.2291,-1.1913,-1.1339,-1.0889,-1.0295,-0.94,-0.8824,-0.8266,-0.7424,-0.6745,-0.6284,-0.5954,-0.5296,-0.4761,-0.4558,-0.4092,-0.3558,-0.3023,-0.282,-0.2418,-0.1681,-0.1347,-0.0944,-0.0337,0.0607,0.1213,0.1412,0.1547,0.1841,0.2244,0.2733,0.3025,0.3028,0.3411,0.3526,0.3448,0.2901,0.2589,0.2511,0.1973,0.176,0.1713,0.1509,0.1374,0.1316,0.0535,0.0179,0.009,-0.0179,-0.0269,-0.0359,-0.0538,-0.0546,-0.0556,-0.0558,-0.0286,-0.0,-0.0,-0.0,-0.0,0.0101,0.0202,0.0505,0.1415,0.1617,0.1617,0.1617,0.1617,0.1718,0.2021,0.2221,0.2519,0.2711,0.302,0.323,0.3433,0.3534,0.3635,0.3934,0.3934,0.4034,0.4338,0.4338,0.4437,0.4636,0.4634,0.4634,0.4634,0.4634,0.4634,0.4634,0.4437,0.4338,0.4338,0.4149,0.4091,0.4167,0.4196,0.4299,0.4369,0.3474,0.3032,0.3042,0.2866,0.2797,-1.4188,-1.3831,-1.3395,-1.3009,-1.2783,0.0,0.0,-1.2231,-1.189,-1.1601,-1.1033,-1.0354,-0.9682,-0.905,-0.8383,-0.7655,-0.7022,-0.6547,-0.6203,-0.5386,-0.4761,-0.4625,-0.4159,-0.3558,-0.3023,-0.282,-0.2418,-0.1681,-0.1279,-0.0876,-0.0404,0.0337,0.101,0.1412,0.1547,0.1841,0.2314,0.2662,0.2878,0.3028,0.3179,0.3215,0.2979,0.2666,0.2433,0.2277,0.1807,0.1504,0.1203,0.0747,0.0594,0.0601,0.0177,-0.0269,-0.0718,-0.0987,-0.1076,-0.1076,-0.1076,-0.1084,-0.1004,-0.1014,-0.0844,-0.067,-0.0488,-0.0398,-0.0303,-0.0101,-0.0,0.0101,0.0707,0.101,0.1313,0.1516,0.1617,0.1718,0.1921,0.2222,0.2522,0.2725,0.3027,0.3331,0.3534,0.3736,0.3935,0.4135,0.4334,0.4435,0.4535,0.4738,0.4839,0.4937,0.5135,0.5236,0.5236,0.5236,0.5236,0.5236,0.5035,0.5037,0.5037,0.4834,0.4798,0.4829,0.4745,0.4739,0.4704,0.4143,0.3808,0.381,0.3649,0.3578,-1.4543,-1.3952,-1.3272,-1.2981,-1.2743,-1.2526,0.0,0.0,0.0,-1.1706,-1.1022,-1.0356,-0.9947,-0.9272,-0.8563,-0.7881,-0.7304,-0.6877,-0.6448,-0.5527,-0.4907,-0.4701,-0.4225,-0.3682,-0.3209,-0.2852,-0.237,-0.1695,-0.1281,-0.0875,-0.0472,0.0136,0.0747,0.1355,0.1499,0.1866,0.2403,0.2536,0.2742,0.2951,0.2948,0.2826,0.2511,0.2433,0.2199,0.1965,0.1572,0.11,0.0631,-0.0,-0.0335,-0.0423,-0.0353,-0.0807,-0.1525,-0.1525,-0.1525,-0.1525,-0.1525,-0.1525,-0.153,-0.1464,-0.148,-0.1406,-0.1069,-0.0995,-0.0909,-0.0404,-0.0202,-0.0,-0.0,0.0303,0.0707,0.1212,0.1415,0.1617,0.1921,0.2222,0.2422,0.2724,0.3027,0.3331,0.3635,0.3835,0.4135,0.4437,0.4736,0.4834,0.4834,0.5138,0.524,0.524,0.5436,0.5636,0.5636,0.5636,0.5636,0.5636,0.5636,0.5636,0.5636,0.5636,0.5627,0.5609,0.5388,0.5261,0.5129,0.4921,0.4704,0.4482,0.4543,0.4467,-1.4274,-1.3787,-1.3386,-1.2966,-1.2593,-1.2305,-1.2077,0.0,-1.1706,-1.1484,0.0,-1.033,-0.9739,0.0,0.0,-0.7691,-0.7375,-0.7091,-0.6448,-0.5847,-0.5331,-0.5182,-0.447,-0.3968,-0.375,-0.2898,-0.2163,-0.1744,-0.1296,-0.0942,-0.0539,0.0069,0.0628,0.1186,0.1499,0.181,0.2034,0.2456,0.2715,0.2725,0.2637,0.2511,0.251,0.2042,0.1807,0.165,0.0628,0.0157,0.0079,-0.0485,-0.1074,-0.1689,-0.1676,-0.1705,-0.1884,-0.2064,-0.2064,-0.2064,-0.2064,-0.2064,-0.2065,-0.18,-0.1662,-0.1527,-0.1463,-0.1493,-0.1516,-0.1415,-0.0707,-0.0,-0.0,-0.0,0.0101,0.0202,0.0909,0.1617,0.1617,0.2019,0.2422,0.2422,0.2826,0.3331,0.3833,0.3934,0.4133,0.4634,0.4937,0.514,0.514,0.5438,0.5536,0.5536,0.5534,0.5636,0.5636,0.5636,0.5636,0.5636,0.5636,0.5636,0.5636,0.5636,0.5691,0.5813,0.5814,0.592,0.5914,0.6005,0.5601,0.448,0.4489,0.453,-1.4331,-1.3913,-1.346,-1.3086,-1.2786,-1.2512,-1.2116,-1.1855,-1.1632,-1.1409,0.0,0.0,0.0,0.0,0.0,0.0,-0.7703,-0.7401,-0.6809,-0.6293,-0.578,-0.5246,-0.4581,-0.3858,-0.3348,-0.2813,-0.2294,-0.1721,-0.1491,-0.1199,-0.0847,-0.0214,0.043,0.1219,0.1378,0.1542,0.1864,0.2109,0.2212,0.2244,0.2188,0.212,0.2042,0.1807,0.1335,0.0707,0.0236,-0.0393,-0.1023,-0.1209,-0.1567,-0.2024,-0.2263,-0.2309,-0.2064,-0.2154,-0.2243,-0.2243,-0.2243,-0.2243,-0.2158,-0.2093,-0.1957,-0.1915,-0.1856,-0.1792,-0.1819,-0.1617,-0.1313,-0.0808,-0.0202,-0.0,-0.0,-0.0,0.0303,0.0808,0.1516,0.1818,0.2019,0.2321,0.2724,0.3229,0.3831,0.4033,0.4234,0.4937,0.514,0.524,0.5438,0.5639,0.5839,0.5839,0.5937,0.6034,0.6034,0.6034,0.6034,0.6034,0.6034,0.6034,0.6034,0.6034,0.609,0.6002,0.6051,0.616,0.6115,0.616,0.5992,0.5489,0.5375,0.5058,-1.4314,-1.3884,-1.3474,-1.3267,-1.2913,-1.249,-1.2055,-1.1781,-1.1558,-1.126,-1.0812,0.0,0.0,0.0,-0.9018,-0.8331,0.0,-0.7633,-0.7015,-0.6641,-0.61,-0.5362,-0.4675,-0.3865,-0.305,-0.2809,-0.2429,-0.1768,-0.1611,-0.1459,-0.1166,-0.0514,0.0147,0.0884,0.1113,0.1353,0.1684,0.176,0.1853,0.1965,0.1887,0.1808,0.1729,0.1415,0.0786,-0.0,-0.0314,-0.0943,-0.1732,-0.1841,-0.205,-0.2274,-0.274,-0.2804,-0.2602,-0.2602,-0.2602,-0.2602,-0.2512,-0.2432,-0.2269,-0.2303,-0.2355,-0.2314,-0.2151,-0.209,-0.1921,-0.1718,-0.1617,-0.1415,-0.0606,-0.0202,-0.0,-0.0,-0.0,0.0303,0.1212,0.1516,0.1717,0.2321,0.2623,0.3027,0.3831,0.4033,0.4234,0.5039,0.524,0.5438,0.5636,0.5939,0.6139,0.6139,0.6339,0.6539,0.6539,0.6537,0.6637,0.6637,0.6637,0.6637,0.6637,0.6637,0.6581,0.6471,0.6503,0.65,0.6455,0.6408,0.6481,0.6453,0.6146,0.5712,-1.4166,-1.3667,-1.322,-1.3213,-1.2606,-1.1942,-1.1787,-1.1558,-1.1335,-1.0887,-1.0663,-1.0368,-0.9997,-0.9544,-0.9094,-0.8479,-0.8255,0.0,0.0,-0.6714,-0.6328,-0.5702,-0.4844,-0.4064,-0.321,-0.3066,-0.2646,-0.1892,-0.1702,-0.1531,-0.1239,-0.0671,-0.0227,-0.0,0.0852,0.1333,0.1334,0.1727,0.1963,0.2123,0.1808,0.1807,0.1887,0.0628,-0.0,-0.0079,-0.1178,-0.165,-0.1729,-0.2278,-0.2583,-0.2692,-0.3196,-0.3456,-0.3587,-0.3587,-0.3587,-0.3497,-0.3227,-0.2909,-0.2591,-0.2592,-0.2471,-0.2352,-0.2353,-0.2188,-0.2022,-0.2022,-0.1819,-0.1617,-0.1516,-0.0808,-0.0,-0.0,-0.0,0.0202,0.0707,0.1212,0.1717,0.2321,0.2623,0.3027,0.3831,0.4033,0.4234,0.5039,0.5436,0.5636,0.5942,0.6239,0.6437,0.6437,0.6639,0.6745,0.6745,0.7039,0.7135,0.7135,0.7135,0.7135,0.7135,0.7135,0.7138,0.7144,0.7274,0.7343,0.7352,0.7399,0.72,0.6883,0.6448,0.6274,-1.3848,-1.3647,-1.3326,-1.2863,-1.2536,-1.2181,-1.1602,-1.1484,-1.126,-1.0887,-1.0663,-1.0368,-0.9771,-0.9473,-0.9094,-0.8479,-0.8255,-0.7949,0.0,-0.6795,-0.618,-0.5479,-0.4774,-0.4151,-0.3608,-0.3272,-0.2869,-0.2326,-0.2002,-0.1687,-0.1303,-0.0772,-0.0388,-0.0,0.0313,0.0707,0.1257,0.1415,0.1493,0.1572,0.0864,0.0628,0.0628,0.0236,-0.0393,-0.1178,-0.1572,-0.1885,-0.2276,-0.2433,-0.2743,-0.3193,-0.3446,-0.3714,-0.3767,-0.3676,-0.3587,-0.3587,-0.3497,-0.3366,-0.3339,-0.3196,-0.3171,-0.3049,-0.2788,-0.2611,-0.2424,-0.2122,-0.1921,-0.1819,-0.1617,-0.1314,-0.0909,-0.0202,-0.0,0.0101,0.0707,0.1212,0.1717,0.2321,0.2522,0.2825,0.3831,0.4033,0.4334,0.5336,0.5536,0.5737,0.6237,0.6539,0.6642,0.6642,0.6939,0.7039,0.7039,0.7138,0.7238,0.7238,0.7238,0.7238,0.7238,0.7238,0.7238,0.7238,0.7284,0.7351,0.7443,0.7521,0.7547,0.7522,0.7433,0.7049,-1.3378,-1.3253,-1.3008,-1.2479,-1.2235,-1.1948,-1.1527,-1.126,-1.1111,-1.0738,-1.0513,-1.0218,-0.9695,-0.9473,-0.9094,-0.8632,-0.825,-0.7949,0.0,-0.6718,-0.6122,-0.5538,-0.4878,-0.4309,-0.3841,-0.3374,-0.2904,-0.2511,-0.212,-0.1729,-0.1335,-0.1021,-0.0629,-0.0236,-0.0157,0.0157,0.0707,0.0786,0.0864,0.0864,0.0236,-0.0236,-0.0707,-0.0628,-0.1021,-0.1887,-0.1963,-0.2199,-0.2511,-0.2744,-0.3145,-0.3697,-0.3865,-0.4056,-0.4212,-0.3944,-0.3765,-0.3678,-0.3678,-0.3746,-0.3748,-0.3608,-0.3494,-0.3479,-0.3218,-0.2927,-0.2725,-0.2424,-0.2122,-0.1921,-0.1819,-0.1718,-0.1415,-0.0707,-0.0303,0.0101,0.0404,0.1111,0.1718,0.2019,0.222,0.2724,0.353,0.3833,0.4332,0.5436,0.5636,0.5837,0.6337,0.6639,0.6845,0.6845,0.7141,0.7341,0.7437,0.7437,0.7437,0.7437,0.7437,0.7437,0.7437,0.7437,0.7437,0.7437,0.7437,0.7481,0.7572,0.761,0.7747,0.788,0.7907,0.7558]},{"header":{"parameterUnit":"m.s-1","parameterCategory":1,"la1":30.6,"la2":29.2853,"lo1":-89.7004,"lo2":-87.6739,"dy":0.0162,"dx":0.0183,"nx":112,"ny":82,"refTime":"2023-07-14T00:00:00:Z","depth":0,"parameterNumber":3,"parameterNumberName":"V-component_of_WINDS"},"data":[0.0,0.0,0.0,0.0,0.0,0.0,0.0,0.0,0.0,0.0,0.0,0.0,0.0,0.0,0.0,0.0,0.0,0.0,0.0,0.0,0.0,0.0,0.0,0.0,0.0,0.0,0.0,0.0,0.0,0.0,0.0,0.0,0.0,0.0,0.0,0.0,0.0,0.0,0.0,0.0,0.0,0.0,0.0,0.0,0.0,0.0,0.0,0.0,0.0,0.0,0.0,0.0,0.0,0.0,0.0,0.0,0.0,0.0,0.0,0.0,0.0,0.0,0.0,0.0,0.0,0.0,0.0,0.0,0.0,0.0,0.0,0.0,0.0,0.0,0.0,0.0,0.0,0.0,0.0,0.0,0.0,0.0,0.0,0.0,0.0,0.0,0.0,0.0,0.0,0.0,-3.273,-3.2934,-3.4174,-3.4699,-3.4031,-3.3073,-3.2191,-3.1513,0.0,0.0,0.0,0.0,0.0,0.0,0.0,0.0,0.0,0.0,0.0,0.0,0.0,0.0,0.0,0.0,0.0,0.0,0.0,0.0,0.0,0.0,0.0,0.0,0.0,0.0,0.0,0.0,0.0,0.0,0.0,0.0,0.0,0.0,0.0,0.0,0.0,0.0,0.0,0.0,0.0,0.0,0.0,0.0,0.0,0.0,0.0,0.0,0.0,0.0,0.0,0.0,0.0,0.0,0.0,0.0,0.0,0.0,0.0,0.0,0.0,0.0,0.0,0.0,0.0,0.0,0.0,0.0,0.0,0.0,0.0,0.0,0.0,0.0,0.0,0.0,0.0,0.0,0.0,0.0,0.0,0.0,0.0,0.0,0.0,0.0,0.0,0.0,0.0,0.0,0.0,0.0,0.0,0.0,0.0,0.0,0.0,0.0,0.0,0.0,0.0,0.0,0.0,0.0,-3.2138,-3.3513,-3.3876,-3.3971,-3.384,-3.2414,-3.1461,-3.1337,0.0,0.0,0.0,0.0,0.0,0.0,0.0,0.0,0.0,0.0,0.0,0.0,0.0,0.0,0.0,0.0,0.0,0.0,0.0,0.0,0.0,0.0,0.0,0.0,0.0,0.0,0.0,0.0,0.0,0.0,0.0,0.0,0.0,0.0,0.0,0.0,0.0,0.0,0.0,0.0,0.0,0.0,0.0,0.0,0.0,0.0,0.0,0.0,0.0,0.0,0.0,0.0,0.0,0.0,0.0,0.0,0.0,0.0,0.0,0.0,0.0,0.0,0.0,0.0,0.0,0.0,0.0,0.0,0.0,0.0,0.0,0.0,0.0,0.0,0.0,0.0,0.0,0.0,0.0,0.0,0.0,0.0,0.0,0.0,0.0,0.0,0.0,0.0,0.0,0.0,0.0,0.0,0.0,0.0,0.0,0.0,0.0,0.0,0.0,0.0,0.0,0.0,0.0,-3.1104,-3.1732,-3.2917,-3.2995,-3.2824,-3.2371,-3.1632,-3.1006,-3.056,-2.9806,0.0,0.0,0.0,0.0,0.0,0.0,0.0,0.0,0.0,0.0,0.0,0.0,0.0,0.0,0.0,0.0,0.0,0.0,0.0,0.0,0.0,0.0,0.0,0.0,0.0,0.0,0.0,0.0,0.0,0.0,0.0,0.0,0.0,0.0,0.0,0.0,0.0,0.0,0.0,0.0,0.0,0.0,0.0,0.0,0.0,0.0,0.0,0.0,0.0,0.0,0.0,0.0,0.0,0.0,0.0,0.0,0.0,0.0,0.0,0.0,0.0,0.0,0.0,0.0,0.0,0.0,0.0,0.0,0.0,0.0,0.0,0.0,0.0,0.0,0.0,0.0,0.0,0.0,0.0,0.0,0.0,0.0,0.0,0.0,0.0,0.0,0.0,0.0,0.0,0.0,0.0,0.0,0.0,0.0,0.0,0.0,0.0,0.0,0.0,0.0,0.0,0.0,-3.1097,-3.1407,-3.1977,-3.2015,-3.1732,-3.1111,-3.0884,-3.0505,-2.9912,-2.915,0.0,0.0,0.0,0.0,0.0,0.0,0.0,0.0,0.0,0.0,0.0,0.0,0.0,0.0,0.0,0.0,0.0,0.0,0.0,0.0,0.0,0.0,0.0,0.0,0.0,0.0,0.0,0.0,0.0,0.0,0.0,0.0,0.0,0.0,0.0,0.0,0.0,0.0,0.0,0.0,0.0,0.0,0.0,0.0,0.0,0.0,0.0,0.0,0.0,0.0,0.0,0.0,0.0,0.0,0.0,0.0,0.0,0.0,0.0,0.0,0.0,0.0,0.0,0.0,0.0,0.0,0.0,0.0,0.0,0.0,0.0,0.0,0.0,0.0,0.0,0.0,0.0,0.0,0.0,0.0,0.0,0.0,0.0,0.0,0.0,0.0,0.0,0.0,0.0,0.0,0.0,0.0,0.0,0.0,0.0,0.0,0.0,0.0,0.0,0.0,0.0,0.0,-3.0653,-3.1091,-3.1016,-3.1073,-3.1036,-3.0922,-3.0227,-2.981,-2.9808,-2.9117,0.0,0.0,0.0,0.0,0.0,0.0,0.0,0.0,0.0,0.0,0.0,0.0,0.0,0.0,0.0,0.0,0.0,0.0,0.0,0.0,0.0,0.0,0.0,0.0,0.0,0.0,0.0,0.0,0.0,0.0,0.0,0.0,0.0,0.0,0.0,0.0,0.0,0.0,0.0,0.0,0.0,0.0,0.0,0.0,0.0,0.0,0.0,0.0,0.0,0.0,0.0,0.0,0.0,0.0,0.0,0.0,0.0,0.0,0.0,0.0,0.0,0.0,0.0,0.0,0.0,0.0,0.0,0.0,0.0,0.0,0.0,0.0,0.0,0.0,0.0,0.0,0.0,0.0,0.0,0.0,0.0,0.0,0.0,0.0,0.0,0.0,0.0,0.0,0.0,0.0,0.0,0.0,0.0,0.0,0.0,0.0,0.0,0.0,0.0,0.0,0.0,0.0,-3.049,-3.0922,-3.0786,-3.0806,-3.0806,-3.0844,-3.0095,-2.9664,-2.9717,0.0,0.0,0.0,0.0,0.0,0.0,0.0,0.0,0.0,0.0,0.0,0.0,0.0,0.0,0.0,0.0,0.0,0.0,0.0,0.0,0.0,0.0,0.0,0.0,0.0,0.0,0.0,0.0,0.0,0.0,0.0,0.0,0.0,0.0,0.0,0.0,0.0,0.0,0.0,0.0,0.0,0.0,0.0,0.0,0.0,0.0,0.0,0.0,0.0,0.0,0.0,0.0,0.0,0.0,0.0,0.0,0.0,0.0,0.0,0.0,0.0,0.0,0.0,0.0,0.0,0.0,0.0,0.0,0.0,0.0,0.0,0.0,0.0,0.0,0.0,0.0,0.0,0.0,0.0,0.0,0.0,0.0,0.0,0.0,0.0,0.0,0.0,0.0,0.0,0.0,0.0,0.0,0.0,0.0,0.0,0.0,0.0,0.0,0.0,0.0,0.0,0.0,-3.002,-3.0508,-3.0898,-3.1059,-3.1096,-3.1024,-3.0801,-3.0279,-2.9889,-2.9664,0.0,0.0,0.0,0.0,0.0,0.0,0.0,0.0,0.0,0.0,0.0,0.0,0.0,0.0,0.0,0.0,0.0,0.0,0.0,0.0,0.0,0.0,0.0,0.0,0.0,0.0,0.0,0.0,0.0,0.0,0.0,0.0,0.0,0.0,0.0,0.0,0.0,0.0,0.0,0.0,0.0,0.0,0.0,0.0,0.0,0.0,0.0,0.0,0.0,0.0,0.0,0.0,0.0,0.0,0.0,0.0,0.0,0.0,0.0,0.0,0.0,0.0,0.0,0.0,0.0,0.0,0.0,0.0,0.0,0.0,0.0,0.0,0.0,0.0,0.0,0.0,0.0,0.0,0.0,0.0,0.0,0.0,0.0,0.0,0.0,0.0,0.0,0.0,0.0,0.0,0.0,0.0,0.0,0.0,0.0,0.0,0.0,0.0,0.0,0.0,0.0,0.0,-3.0711,-3.0764,-3.104,-3.1834,-3.1971,-3.1675,-3.0809,-3.0762,-3.0449,0.0,0.0,0.0,0.0,0.0,0.0,0.0,0.0,0.0,0.0,0.0,0.0,0.0,0.0,0.0,0.0,0.0,0.0,0.0,0.0,0.0,0.0,0.0,0.0,0.0,0.0,0.0,0.0,0.0,0.0,0.0,0.0,0.0,0.0,0.0,0.0,0.0,0.0,0.0,0.0,0.0,0.0,0.0,0.0,0.0,0.0,0.0,0.0,0.0,0.0,0.0,0.0,0.0,0.0,0.0,0.0,0.0,0.0,0.0,0.0,0.0,0.0,0.0,0.0,0.0,0.0,0.0,0.0,0.0,0.0,0.0,0.0,0.0,0.0,0.0,0.0,0.0,0.0,0.0,0.0,0.0,0.0,0.0,0.0,0.0,0.0,0.0,0.0,0.0,0.0,0.0,0.0,0.0,0.0,0.0,0.0,0.0,0.0,0.0,0.0,0.0,0.0,0.0,-3.0708,-3.1691,-3.2467,-3.2641,-3.2683,-3.2631,-3.2408,-3.1376,-3.0633,-3.0468,0.0,0.0,0.0,0.0,0.0,0.0,0.0,0.0,0.0,0.0,0.0,0.0,0.0,0.0,0.0,0.0,0.0,0.0,0.0,0.0,0.0,0.0,0.0,0.0,0.0,0.0,0.0,0.0,0.0,0.0,0.0,0.0,0.0,0.0,0.0,0.0,0.0,0.0,0.0,0.0,0.0,0.0,0.0,0.0,0.0,0.0,0.0,0.0,0.0,0.0,0.0,0.0,0.0,0.0,0.0,0.0,0.0,0.0,0.0,0.0,0.0,0.0,0.0,0.0,0.0,0.0,0.0,0.0,0.0,0.0,0.0,0.0,0.0,0.0,0.0,0.0,0.0,0.0,0.0,0.0,0.0,0.0,0.0,0.0,0.0,0.0,0.0,0.0,0.0,0.0,0.0,0.0,0.0,0.0,0.0,0.0,0.0,0.0,0.0,0.0,0.0,0.0,-3.1579,-3.2486,-3.3185,-3.3436,-3.3473,-3.3366,-3.3092,-3.221,-3.1435,-3.0803,0.0,0.0,0.0,0.0,0.0,0.0,0.0,0.0,0.0,0.0,0.0,0.0,0.0,0.0,0.0,0.0,0.0,0.0,0.0,0.0,0.0,0.0,0.0,0.0,0.0,0.0,0.0,0.0,0.0,0.0,0.0,0.0,0.0,0.0,0.0,0.0,0.0,0.0,0.0,0.0,0.0,0.0,0.0,0.0,0.0,0.0,0.0,0.0,0.0,0.0,0.0,0.0,0.0,0.0,0.0,0.0,0.0,0.0,0.0,0.0,0.0,0.0,0.0,0.0,0.0,0.0,0.0,0.0,0.0,0.0,0.0,0.0,0.0,0.0,0.0,0.0,0.0,0.0,0.0,0.0,0.0,0.0,0.0,0.0,0.0,0.0,0.0,0.0,0.0,0.0,0.0,0.0,0.0,0.0,0.0,0.0,0.0,0.0,0.0,0.0,0.0,0.0,-3.2914,-3.3106,-3.338,-3.4123,-3.4197,-3.39,-3.318,-3.3179,-3.2555,-3.1042,0.0,0.0,0.0,0.0,0.0,0.0,0.0,0.0,0.0,0.0,0.0,0.0,0.0,0.0,0.0,0.0,0.0,0.0,0.0,0.0,0.0,0.0,0.0,0.0,0.0,0.0,0.0,0.0,0.0,0.0,0.0,0.0,0.0,0.0,0.0,0.0,0.0,0.0,0.0,0.0,0.0,0.0,0.0,0.0,0.0,0.0,0.0,0.0,0.0,0.0,0.0,0.0,0.0,0.0,0.0,0.0,0.0,0.0,0.0,0.0,-3.5653,-3.5502,0.0,0.0,0.0,0.0,0.0,0.0,0.0,0.0,0.0,0.0,0.0,0.0,0.0,0.0,0.0,0.0,0.0,0.0,0.0,0.0,0.0,0.0,0.0,0.0,0.0,0.0,0.0,0.0,0.0,0.0,0.0,0.0,0.0,0.0,0.0,0.0,0.0,0.0,0.0,0.0,-3.3059,-3.3589,-3.4011,-3.4179,-3.4197,-3.4147,-3.4027,-3.3519,-3.306,-3.277,-3.1656,0.0,0.0,0.0,0.0,0.0,0.0,0.0,0.0,0.0,0.0,0.0,0.0,0.0,0.0,0.0,0.0,0.0,0.0,0.0,0.0,0.0,0.0,0.0,0.0,0.0,0.0,0.0,0.0,0.0,0.0,0.0,0.0,0.0,0.0,0.0,0.0,0.0,0.0,0.0,0.0,0.0,0.0,0.0,0.0,0.0,0.0,0.0,0.0,0.0,0.0,0.0,0.0,0.0,0.0,0.0,0.0,0.0,0.0,0.0,-3.7845,-3.7422,0.0,0.0,0.0,0.0,0.0,0.0,0.0,0.0,0.0,0.0,0.0,0.0,0.0,0.0,0.0,0.0,0.0,0.0,0.0,0.0,0.0,0.0,0.0,0.0,0.0,0.0,0.0,0.0,0.0,0.0,0.0,0.0,0.0,0.0,0.0,0.0,0.0,0.0,0.0,0.0,-3.3576,-3.3961,-3.4197,-3.4197,-3.4221,-3.4269,-3.4293,-3.4012,-3.3687,-3.3355,-3.2635,0.0,0.0,0.0,0.0,0.0,0.0,0.0,0.0,0.0,0.0,0.0,0.0,0.0,0.0,0.0,0.0,0.0,0.0,0.0,0.0,0.0,0.0,0.0,0.0,0.0,0.0,0.0,0.0,0.0,0.0,0.0,0.0,0.0,0.0,0.0,0.0,0.0,0.0,0.0,0.0,0.0,0.0,0.0,0.0,0.0,0.0,0.0,0.0,0.0,0.0,0.0,0.0,0.0,-3.8604,-3.9293,-4.0704,-4.0726,-4.0816,-4.0884,-3.9667,-3.9028,-3.8838,-3.8949,0.0,0.0,0.0,0.0,0.0,0.0,0.0,0.0,0.0,0.0,0.0,0.0,0.0,0.0,0.0,0.0,0.0,0.0,0.0,0.0,0.0,0.0,-3.9312,-3.9972,-3.9614,-3.8977,-3.8348,0.0,0.0,0.0,0.0,0.0,0.0,0.0,0.0,0.0,0.0,0.0,-3.455,-3.4643,-3.4587,-3.4463,-3.4492,-3.4484,-3.4335,-3.445,-3.4236,-3.3644,-3.354,-3.3223,0.0,0.0,0.0,0.0,0.0,0.0,0.0,0.0,0.0,0.0,0.0,0.0,0.0,0.0,0.0,0.0,0.0,0.0,0.0,0.0,0.0,0.0,0.0,0.0,0.0,0.0,0.0,0.0,0.0,0.0,0.0,0.0,-3.3819,-3.3849,0.0,0.0,0.0,0.0,0.0,0.0,0.0,0.0,0.0,0.0,0.0,0.0,0.0,-3.8091,-3.7863,-3.9222,-3.9914,-3.9968,-3.9931,-4.0057,-4.031,-4.0957,-4.1375,-4.1523,-4.2029,0.0,-4.0498,-4.0498,0.0,0.0,0.0,0.0,0.0,0.0,0.0,0.0,0.0,0.0,0.0,0.0,0.0,0.0,0.0,0.0,0.0,0.0,0.0,0.0,0.0,0.0,-4.1744,-4.1838,-4.1757,-4.1594,-4.1506,-3.9152,-3.7024,-3.6889,-3.6731,-3.6573,0.0,0.0,0.0,0.0,0.0,0.0,-3.6352,-3.637,-3.6117,-3.546,-3.541,-3.516,-3.4529,-3.4495,-3.4502,-3.4515,-3.3881,-3.3487,-3.345,-3.2727,0.0,0.0,0.0,0.0,0.0,0.0,0.0,0.0,0.0,0.0,0.0,0.0,0.0,0.0,0.0,0.0,0.0,0.0,0.0,0.0,0.0,0.0,0.0,0.0,0.0,0.0,0.0,0.0,0.0,-3.4035,-3.4703,-3.4626,-3.5247,-3.5589,0.0,0.0,0.0,0.0,0.0,0.0,0.0,0.0,0.0,-3.8688,-3.9319,-3.9547,-3.939,-4.0023,-4.0508,-4.0883,-4.0825,-4.1058,-4.1566,-4.1866,-4.2318,-4.2868,-4.3307,-4.3385,-4.3192,-4.2886,-4.2759,-4.2868,0.0,0.0,0.0,0.0,-4.4269,-4.4683,-4.4698,-4.4795,-4.491,-4.491,0.0,0.0,0.0,0.0,0.0,0.0,0.0,-4.1663,-4.2152,-4.2547,-4.2923,-4.3393,-4.3122,-4.2784,-4.2784,-4.128,-3.9645,-3.8724,-3.8531,-3.8164,-3.7106,-3.6932,0.0,0.0,0.0,-3.6712,-3.6738,-3.6756,-3.6658,-3.6379,-3.6347,-3.6077,-3.53,-3.5274,-3.5133,-3.4766,-3.4469,-3.432,-3.4377,-3.3634,-3.3266,0.0,0.0,0.0,0.0,0.0,0.0,0.0,0.0,0.0,0.0,0.0,0.0,0.0,0.0,0.0,0.0,0.0,0.0,0.0,0.0,0.0,0.0,0.0,0.0,0.0,0.0,0.0,0.0,-3.513,-3.5507,-3.5665,-3.6081,-3.6293,0.0,0.0,0.0,0.0,0.0,0.0,-3.8779,-3.8976,-3.9534,-4.0616,-4.0727,-4.0727,-4.0615,-4.0757,-4.1058,-4.1633,-4.159,-4.2002,-4.2853,-4.279,-4.3261,-4.4101,-4.4201,-4.4606,-4.5116,-4.4696,-4.4595,-4.4687,-4.544,-4.5791,-4.5828,-4.5975,-4.6229,-4.65,-4.6551,-4.6672,-4.681,-4.681,-4.589,-4.4792,-4.495,0.0,0.0,0.0,0.0,-4.305,-4.3501,-4.3613,-4.3764,-4.4364,-4.4045,-4.3613,-4.3613,-4.3106,-4.2168,-4.0534,-4.0196,-3.9721,-3.8134,-3.7866,0.0,-3.7434,-3.737,-3.7396,-3.7466,-3.7466,-3.7399,-3.7231,-3.7261,-3.6991,-3.6227,-3.5995,-3.5668,-3.5167,-3.5001,-3.4927,-3.5001,-3.4447,-3.4175,-3.4227,0.0,0.0,0.0,0.0,0.0,0.0,0.0,0.0,0.0,0.0,0.0,0.0,0.0,0.0,0.0,0.0,0.0,0.0,0.0,0.0,0.0,0.0,0.0,0.0,0.0,0.0,0.0,0.0,0.0,-3.7201,-3.714,0.0,0.0,0.0,0.0,-3.7342,-3.8053,-3.8797,-3.9528,-4.0211,-4.0562,-4.051,-4.1197,-4.1463,-4.125,-4.202,-4.2338,-4.2257,-4.2274,-4.2662,-4.3447,-4.3447,-4.3984,-4.4946,-4.4946,-4.507,-4.5291,-4.5254,-4.5334,-4.543,-4.5565,-4.5697,-4.5828,-4.5865,-4.6524,-4.7331,-4.7331,-4.749,-4.7646,-4.7646,-4.7132,-4.6632,-4.6802,-4.6824,0.0,0.0,-4.551,-4.5359,-4.4646,-4.4458,-4.4458,-4.4496,-4.4477,-4.4458,-4.4458,-4.4421,-4.3895,-4.2205,-4.186,-4.1597,-4.0682,0.0,-4.0218,-3.9399,-3.9261,-3.9261,-3.9261,-3.9261,-3.8969,-3.8222,-3.8147,-3.7858,-3.7186,-3.6381,-3.5934,-3.6041,-3.5305,-3.4927,-3.5001,-3.5072,-3.5124,-3.5124,-3.5155,0.0,0.0,0.0,0.0,0.0,0.0,0.0,0.0,0.0,0.0,0.0,0.0,0.0,0.0,0.0,0.0,0.0,0.0,0.0,0.0,0.0,0.0,0.0,0.0,0.0,0.0,0.0,0.0,-3.7197,-3.7568,0.0,-3.7564,-3.7886,-3.8346,-3.8964,-3.915,-3.9783,-4.103,-4.1198,-4.1505,-4.1955,-4.2109,-4.2153,-4.2074,-4.278,-4.3132,-4.309,-4.3554,-4.3946,-4.4232,-4.4232,-4.4746,-4.567,-4.5713,-4.6128,-4.6705,-4.6807,-4.6599,-4.6321,-4.6913,-4.7232,-4.7366,-4.7518,-4.7832,-4.8198,-4.8271,-4.8377,-4.8389,-4.7917,-4.7695,-4.7535,-4.7072,-4.6952,-4.6936,-4.6617,-4.6542,-4.6467,-4.6186,-4.5697,-4.5266,-4.5266,-4.489,-4.4515,-4.4515,-4.4515,-4.4327,-4.3726,-4.32,-4.2554,-4.1638,-4.1031,-4.06,-4.024,-3.9728,-3.9418,-3.9469,-3.9469,-3.9383,-3.9139,-3.9126,-3.8836,-3.8037,-3.7766,-3.7435,-3.6988,-3.6708,-3.6597,-3.6654,-3.6213,-3.5999,-3.6035,-3.5531,-3.5293,0.0,0.0,0.0,0.0,0.0,0.0,0.0,0.0,0.0,0.0,0.0,0.0,0.0,0.0,0.0,0.0,0.0,0.0,0.0,0.0,0.0,0.0,0.0,0.0,0.0,-3.7843,-3.7769,-3.7911,-3.8272,-3.8548,-3.8656,-3.9032,-3.9547,-4.0152,-4.0346,-4.083,-4.1796,-4.1958,-4.2242,-4.2727,-4.2566,-4.2588,-4.2816,-4.3292,-4.3643,-4.3893,-4.4375,-4.4749,-4.5017,-4.5061,-4.5577,-4.6434,-4.6564,-4.6999,-4.7572,-4.7717,-4.7534,-4.7219,-4.7751,-4.809,-4.8226,-4.8437,-4.855,-4.8642,-4.8822,-4.8927,-4.8903,-4.8427,-4.8408,-4.8409,-4.7934,-4.7796,-4.7781,-4.75,-4.7406,-4.735,-4.7097,-4.6383,-4.5754,-4.5801,-4.518,-4.4551,-4.4551,-4.4551,-4.4551,-4.4551,-4.4091,-4.3417,-4.2527,-4.1702,-4.1038,-4.0723,-3.9975,-3.9495,-3.9546,-3.9571,-3.9577,-3.9631,-3.9656,-3.9496,-3.8916,-3.8701,-3.8388,-3.79,-3.7659,-3.7566,-3.7623,-3.7126,-3.6856,-3.6946,-3.6438,-3.6178,-3.6174,0.0,0.0,0.0,0.0,0.0,0.0,0.0,0.0,0.0,0.0,0.0,0.0,0.0,0.0,0.0,0.0,0.0,0.0,0.0,0.0,0.0,0.0,0.0,-3.8736,-3.8543,-3.8686,-3.9408,-3.9264,-3.9426,-4.0137,-4.0117,-4.0249,-4.0789,-4.1538,-4.1923,-4.1759,-4.2389,-4.2745,-4.2609,-4.2544,-4.2834,-4.35,-4.3554,-4.3946,-4.466,-4.4678,-4.5088,-4.5838,-4.5988,-4.6514,-4.7302,-4.745,-4.7572,-4.7717,-4.7861,-4.7966,-4.7992,-4.7992,-4.809,-4.8226,-4.8419,-4.855,-4.8678,-4.898,-4.9101,-4.9135,-4.9244,-4.9289,-4.934,-4.9459,-4.949,-4.9321,-4.8476,-4.8232,-4.8074,-4.7372,-4.6506,-4.5875,-4.6013,-4.5353,-4.4712,-4.4712,-4.4712,-4.4712,-4.4712,-4.4605,-4.4252,-4.3463,-4.26,-4.1755,-4.0947,-4.0146,0.0,-3.9693,-3.9693,-3.9698,-3.9689,-3.9689,-3.9735,-3.9804,-3.9085,-3.8693,-3.8838,-3.8118,-3.77,-3.7792,-3.7752,-3.7766,-3.78,-3.7878,-3.7909,-3.7947,0.0,0.0,0.0,0.0,0.0,0.0,0.0,0.0,0.0,0.0,0.0,0.0,0.0,0.0,0.0,0.0,0.0,0.0,0.0,0.0,0.0,-4.0724,-4.0997,-3.9697,-3.9326,-3.9258,-3.9413,-3.9751,-4.0028,-4.0104,-4.0585,-4.1075,-4.1645,-4.1865,-4.2177,-4.2538,-4.2734,-4.2745,-4.2609,-4.3046,-4.3352,-4.3518,-4.4624,-4.5267,-4.5481,-4.6159,-4.6597,-4.6811,-4.6908,-4.7122,-4.7468,-4.7468,-4.7615,-4.7861,-4.7861,-4.8006,-4.8148,-4.8148,-4.8265,-4.8419,-4.8532,-4.8732,-4.898,-4.9068,-4.915,-4.9244,-4.9308,-4.9358,-4.944,-4.9532,-4.9563,-4.9537,-4.9322,-4.9294,-4.9238,-4.9041,-4.791,-4.6816,-4.6862,-4.5749,-4.4712,-4.4712,-4.4712,-4.4712,-4.4712,-4.4685,-4.4584,-4.4357,-4.3114,-4.2077,-4.1851,-4.0608,-3.9684,-3.9684,-3.9684,-3.9708,-3.9689,-3.9735,-3.9804,-3.9867,-3.9724,-3.9652,-3.9734,-3.9565,-3.949,-3.9509,-3.901,-3.8448,-3.7878,-3.7874,-3.8232,0.0,0.0,0.0,0.0,0.0,0.0,0.0,0.0,0.0,0.0,0.0,0.0,0.0,0.0,0.0,0.0,0.0,0.0,0.0,0.0,0.0,0.0,-4.1901,-4.2098,-4.0972,-4.061,-4.0476,-4.0427,-4.0597,-4.0829,-4.1071,-4.1425,-4.1886,-4.2484,-4.2503,-4.2632,-4.2902,-4.2842,-4.2745,-4.2706,-4.3342,-4.3835,-4.4109,-4.5344,-4.6113,-4.6418,-4.699,-4.7249,-4.7249,-4.732,-4.7425,-4.7511,-4.7615,-4.7759,-4.792,-4.7984,-4.8126,-4.8247,0.0,0.0,0.0,0.0,-4.8874,-4.9101,-4.915,-4.9211,-4.9308,-4.9358,-4.9471,-4.9551,-4.9593,-4.9623,-4.9634,-4.9692,-4.9692,-4.9692,-4.9721,-4.8503,-4.7257,-4.7265,-4.5999,-4.477,-4.477,-4.477,-4.477,-4.477,-4.477,0.0,-4.477,-4.3366,-4.2203,-4.2203,-4.0788,-3.9712,-3.9735,-3.9735,-3.9758,-3.9804,-3.9848,-3.9911,-3.9994,-4.0015,0.0,0.0,0.0,-4.0215,-4.0234,-3.9884,0.0,0.0,0.0,-3.9262,-3.9796,-4.0162,0.0,0.0,-4.172,-4.2956,0.0,0.0,0.0,0.0,0.0,0.0,0.0,0.0,0.0,0.0,0.0,0.0,0.0,0.0,0.0,0.0,-4.2775,-4.2701,-4.251,-4.2307,-4.2089,-4.182,-4.1598,-4.1748,-4.2424,-4.2459,-4.2658,-4.3196,-4.3214,-4.3123,-4.2938,-4.2842,0.0,0.0,0.0,-4.4317,-4.5126,-4.5935,-4.6654,-4.7302,-4.732,-4.7302,-4.732,-4.7468,-4.7554,-4.7554,-4.7801,-4.7902,-4.7943,-4.8108,-4.8247,-4.8344,-4.8344,-4.8438,-4.8587,-4.8839,-4.8996,-4.9116,-4.9244,0.0,0.0,-4.949,-4.9532,-4.9604,-4.9623,-4.9663,-4.9721,-4.9721,-4.9721,-4.975,-4.9807,-4.8559,-4.7337,-4.7397,-4.6127,-4.4895,-4.4895,-4.4919,-4.4919,-4.4919,-4.4919,-4.49,-4.4787,-4.3364,-4.2227,-4.2227,-4.0811,-3.9758,-3.9826,-3.9826,-3.987,-3.9996,-3.9996,0.0,-4.0117,-4.0117,-4.0137,-4.0215,-4.0215,-4.0253,-4.0325,-4.0449,-4.0502,-4.0499,-4.0608,-4.0642,-4.0642,-4.1527,-4.1989,-4.2104,-4.2874,-4.4049,0.0,0.0,0.0,0.0,0.0,0.0,0.0,0.0,0.0,0.0,0.0,0.0,0.0,0.0,0.0,-4.3668,-4.4129,-4.4445,-4.4247,-4.4089,-4.3437,-4.1969,-4.2207,-4.252,-4.2511,-4.3023,-4.3367,-4.3376,-4.3251,-4.3142,-4.3049,-4.2956,-4.3132,-4.374,-4.4457,-4.5209,-4.5953,-4.6708,-4.7176,-4.7302,-4.7407,0.0,-4.7468,-4.7717,-4.7819,-4.7819,-4.7929,-4.805,-4.8166,-4.8247,-4.8438,-4.8697,-4.8697,-4.8732,-4.8839,-4.9015,-4.915,-4.9276,-4.9308,-4.9358,-4.9471,-4.9563,-4.9593,-4.9623,-4.9721,-4.9778,0.0,-4.9843,-4.9871,-4.9871,-4.9871,-4.864,-4.7371,-4.7397,-4.6177,-4.4967,-4.4967,-4.5014,-4.5061,-4.5061,-4.5061,-4.4851,-4.4148,-4.3084,-4.237,-4.2416,-4.1035,-3.9954,-4.0036,-4.0036,-4.0057,-4.0077,-4.0077,-4.0117,-4.0176,-4.0176,-4.0196,-4.0271,-4.0326,-4.0398,-4.0449,-4.0502,-4.0499,-4.0508,-4.12,-4.1546,-4.1546,-4.2431,-4.3181,-4.3816,-4.3989,-4.4587,0.0,0.0,0.0,0.0,0.0,0.0,0.0,0.0,0.0,0.0,0.0,-4.5248,-4.5543,0.0,-4.5937,-4.5297,-4.5497,-4.5517,-4.4878,-4.4745,-4.4285,-4.3212,-4.3271,-4.3361,-4.3267,-4.3527,-4.3634,-4.3463,-4.3393,-4.3286,-4.316,-4.3105,-4.3413,-4.4173,-4.4953,-4.5711,-4.6486,-4.7265,-4.7645,-4.7645,-4.7705,-4.7747,-4.7747,-4.7907,-4.7947,-4.7947,-4.8072,-4.819,-4.8247,-4.8495,-4.8697,-4.8839,-4.8962,-4.8996,-4.9015,-4.9131,-4.9244,-4.9289,-4.9402,-4.9483,-4.9563,-4.9623,-4.9663,-4.9721,-4.9778,-4.9816,-4.9871,-4.9925,-4.9952,-4.9952,-5.0005,-4.8751,-4.7498,-4.7498,-4.625,-4.5057,-4.5057,-4.508,-4.5103,-4.5103,-4.4741,-4.4303,-4.3885,-4.2737,-4.1857,-4.1879,-4.0855,-4.0057,-4.0096,-4.0117,-4.0117,-4.0157,-4.0157,-4.0196,-4.0253,-4.0272,-4.0308,-4.0362,-4.078,-4.108,-4.1097,-4.1536,-4.18,-4.1797,-4.2239,-4.245,-4.245,-4.3297,-4.3912,-4.4316,-4.5182,-4.603,0.0,0.0,0.0,0.0,0.0,0.0,0.0,-4.4793,-4.549,-4.6197,-4.6892,-4.753,-4.806,-4.8123,-4.7818,-4.6931,-4.6638,-4.6186,-4.529,-4.5014,-4.4796,-4.4524,-4.4248,-4.4067,-4.4017,-4.3897,-4.3786,-4.36,-4.3548,-4.3518,-4.3523,-4.347,-4.3908,-4.4856,-4.5494,-4.6223,-4.7044,-4.7682,-4.7992,-4.7992,-4.8032,-4.8032,-4.8032,-4.8072,-4.809,-4.813,-4.8306,-4.8382,-4.8458,-4.8785,-4.8925,-4.8978,-4.9179,-4.9197,-4.9183,-4.9276,-4.934,-4.9371,-4.9544,-4.9623,-4.9634,-4.9692,-4.9778,-4.9835,-4.9816,-4.9871,-4.9952,-4.9986,-5.0031,-5.0031,-5.0082,-4.8871,-4.7596,-4.7596,-4.6321,-4.5125,-4.5125,-4.5125,-4.5148,-4.5148,-4.4443,-4.3795,-4.3643,-4.2345,-4.1336,-4.1315,-4.063,-4.0137,-4.0137,-4.0137,-4.0157,-4.0196,-4.0234,-4.0253,-4.0307,-4.0379,-4.0415,-4.0415,-4.1234,-4.1728,-4.1728,-4.2607,-4.3104,-4.3104,-4.3258,-4.3335,-4.3335,-4.4143,-4.4643,-4.4836,-4.6413,-4.749,-4.2399,-4.3601,-4.4852,-4.4848,-4.5382,-4.6118,0.0,-4.7038,-4.7248,-4.8122,-4.8277,-4.8275,-4.8357,-4.8229,-4.8048,-4.7857,-4.7085,-4.6421,-4.6191,-4.5423,-4.487,-4.477,-4.4578,-4.4354,-4.4109,-4.4017,-4.3942,-4.3865,-4.3682,-4.3892,-4.4575,-4.4526,-4.5132,-4.6651,-4.6663,-4.7062,-4.7846,-4.7955,-4.7992,-4.7992,-4.813,-4.8187,-4.8187,-4.8343,-4.8457,-4.8475,-4.8642,-4.8768,-4.882,-4.8959,-4.9061,-4.9179,-4.9321,-4.9384,-4.9352,-4.9384,-4.9464,-4.9574,-4.9663,-4.9692,-4.9692,-4.9778,-4.9816,-4.9898,-4.9952,-5.0031,-5.0082,-5.0082,-5.0082,-5.0082,-5.0108,-4.8871,-4.7596,-4.7596,-4.6367,-4.5192,-4.5192,-4.5254,-4.5275,-4.5275,-4.4569,-4.3748,-4.3022,-4.2106,-4.1456,-4.1397,-4.0691,-4.0196,-4.0253,-4.0291,-4.0291,-4.0289,-4.0289,-4.0307,-4.0379,-4.0449,-4.0502,-4.0502,-4.1303,-4.178,-4.178,-4.2643,-4.3104,-4.3104,-4.3797,-4.4162,-4.4162,-4.5028,-4.5855,-4.6644,-4.7548,-4.8009,-4.4391,-4.5195,-4.5755,-4.5765,-4.6019,-4.6479,-4.7314,-4.7817,-4.835,-4.9187,-4.9676,-4.9957,-4.9916,-4.9827,-4.9539,-4.8967,-4.8049,-4.7222,-4.6621,-4.5709,-4.5103,-4.501,-4.4889,-4.4667,-4.4364,-4.4277,-4.4158,-4.4036,-4.4419,-4.473,-4.4964,-4.5358,-4.6081,-4.7187,-4.7187,-4.7518,-4.8364,-4.8364,-4.8364,-4.8364,-4.842,-4.842,-4.842,-4.8606,-4.8715,-4.8804,-4.889,-4.8993,-4.9127,-4.9225,-4.9289,-4.9452,-4.9525,-4.9585,-4.9585,-4.9585,-4.9604,-4.9663,-4.9721,-4.9759,-4.9816,-4.9898,-4.9952,-5.0031,-5.0057,-5.0082,-5.0108,-5.0158,-5.0158,-5.0068,-4.9616,-4.8628,-4.7598,-4.7125,-4.6156,-4.5317,-4.532,-4.5341,-4.5361,-4.5361,-4.4288,-4.3254,-4.2929,-4.1761,-4.0843,-4.0825,-4.0482,-4.029,-4.0345,-4.0364,-4.0363,-4.0362,-4.0396,-4.0432,-4.0449,-4.0479,-4.0511,-4.0511,-4.178,-4.2566,-4.2566,-4.3835,-4.4547,-4.4547,-4.4893,-4.5047,-4.5047,-4.5932,-4.6547,-4.6932,-4.8259,-4.8856,-4.5851,-4.628,-4.6308,-4.6307,-4.6297,-4.6573,-4.7626,-4.832,-4.9028,-5.0068,-5.0734,-5.1117,-5.1069,-5.0976,-5.0693,-5.0011,-4.9116,-4.8239,-4.7549,-4.6626,-4.6006,-4.5878,-4.5811,-4.5626,-4.5391,-4.5049,-4.4758,-4.4576,-4.5368,-4.5886,-4.5932,-4.6438,-4.7092,-4.7807,-4.7826,-4.8068,-4.866,-4.866,-4.866,-4.866,-4.8695,-4.8695,-4.8731,-4.8874,-4.9012,-4.9094,-4.916,-4.9257,-4.9402,-4.9464,-4.9555,-4.9663,-4.9721,-4.9778,-4.9788,-4.9788,-4.9807,-4.9778,-4.9843,-4.9925,-4.9978,-5.0005,-5.0082,-5.0133,-5.0158,-5.0158,-5.0207,-5.0259,-5.0283,-5.0092,-4.9335,-4.8493,-4.7654,-4.6814,-4.5992,-4.54,-4.54,-4.54,-4.54,-4.54,-4.4231,-4.3176,-4.2927,-4.1719,-4.0684,-4.0471,-4.0379,-4.0379,-4.0398,-4.0415,-4.0432,-4.0432,-4.0466,-4.0499,-4.0499,-4.0492,-4.0489,-4.0489,-4.2143,-4.3104,-4.3104,-4.4701,-4.5586,-4.5586,-4.5586,-4.5586,-4.5586,-4.6471,-4.7009,-4.7278,-4.8721,-4.9529,-4.5963,-4.6241,-4.6295,-4.6297,-4.6308,-4.6725,-4.8382,-4.8775,-4.9274,-5.0914,-5.1226,-5.1211,-5.1181,-5.1093,-5.099,-5.0966,-5.0104,-4.9408,-4.9336,-4.851,-4.7893,-4.7809,-4.7704,-4.759,-4.75,-4.6493,-4.5808,-4.5754,-4.6477,-4.7264,-4.796,-4.7903,-4.8212,-4.8919,-4.8887,-4.889,-4.8909,-4.8909,-4.8909,-4.8909,-4.8959,-4.8974,-4.8974,-4.9193,-4.9308,-4.9289,-4.9514,-4.9593,-4.9593,-4.9663,-4.9721,-4.9807,-4.9871,-4.9933,-5.0005,-5.0057,-5.0005,-4.9906,-5.0057,-5.0082,-5.0108,-5.0108,-5.0158,-5.0212,-5.0278,-5.0325,-5.0412,-5.0478,-5.05,-5.0289,-4.9426,-4.8602,-4.7778,-4.6915,-4.6033,-4.54,-4.54,-4.54,-4.54,-4.54,-4.4729,-4.3886,-4.3042,-4.2198,-4.1411,-4.0617,-4.0502,-4.0466,-4.0415,-4.0449,-4.0502,-4.0502,-4.0511,-4.0489,-4.0489,-4.0489,-4.0489,-4.0489,-4.2143,-4.3104,-4.3104,-4.4701,-4.5586,-4.5586,-4.5586,-4.5586,-4.5586,-4.6471,-4.7298,-4.8086,-4.8971,-4.9856,-4.5881,-4.6183,-4.6221,-4.623,-4.6276,-4.6581,-4.7694,-4.8373,-4.9114,-5.0278,-5.0912,-5.1264,-5.1265,-5.1181,-5.1117,-5.1069,-5.0292,-4.9679,-4.9605,-4.875,-4.8123,-4.8087,-4.7991,-4.789,-4.7867,-4.731,-4.6942,-4.6864,-4.7559,-4.8079,-4.8294,-4.8762,-4.9102,-4.927,-4.9239,-4.9225,-4.9225,-4.9225,-4.9225,-4.9225,-4.9239,-4.9321,-4.9402,-4.9483,-4.9544,-4.9644,-4.9692,-4.9759,-4.9871,-4.9898,-4.9925,-5.0005,-5.0031,-5.0063,-5.0139,-5.0207,-5.0231,-5.0231,-5.0133,-5.0158,-5.0231,-5.0231,-5.0302,-5.0393,-5.0435,-5.0457,-5.0478,-5.05,-5.05,-5.0289,-4.9426,-4.8602,-4.7798,-4.6954,-4.611,-4.5476,-4.5513,-4.5531,-4.555,-4.5586,-4.4913,-4.4256,-4.4001,-4.325,-4.2402,-4.1551,-4.0889,-4.0492,-4.0476,-4.0476,-4.0492,-4.0492,-4.0543,-4.0573,-4.0573,-4.0583,-4.081,-4.1388,-4.2526,-4.3432,-4.401,-4.5089,-4.5668,-4.5668,-4.5668,-4.5671,-4.5676,-4.7082,-4.7874,-4.8125,-4.9586,-5.0414,-4.5852,-4.6083,-4.6137,-4.6157,-4.6216,-4.6475,-4.7308,-4.7928,-4.8669,-4.9856,-5.0504,-5.0967,-5.1291,-5.1289,-5.1219,-5.1141,-5.067,-5.028,-5.0172,-4.961,-4.918,-4.9172,-4.9083,-4.899,-4.8971,-4.9015,-4.8738,-4.8028,-4.8694,-4.9091,-4.901,-4.9476,-4.9702,-4.9596,-4.9596,-4.9596,-4.9596,-4.9596,-4.9596,-4.9596,-4.9596,-4.9625,-4.9721,-4.975,-4.9788,-4.9871,-4.9925,-5.0005,-5.0063,-5.0108,-5.0158,-5.0207,-5.0207,-5.0255,-5.0325,-5.0348,-5.0412,-5.0435,-5.0278,-5.0302,-5.0371,-5.0371,-5.0416,-5.05,-5.0521,-5.0542,-5.0544,-5.0565,-5.0585,-5.0413,-4.9529,-4.8702,-4.7895,-4.7067,-4.6201,-4.5584,-4.5637,-4.5637,-4.5654,-4.5706,-4.5244,-4.4781,-4.4542,-4.3771,-4.2999,-4.244,-4.1851,-4.1228,-4.0611,-4.0534,-4.0534,-4.0534,-4.0583,-4.0598,-4.0598,-4.0593,-4.0974,-4.1842,-4.271,-4.3578,-4.4446,-4.5256,-4.57,-4.57,-4.57,-4.57,-4.5706,-4.7422,-4.8214,-4.8218,-4.9931,-5.0721,-4.5861,-4.5944,-4.6018,-4.6084,-4.6142,-4.6415,-4.7249,-4.7461,-4.7961,-4.9629,-5.0035,-5.0354,-5.1183,-5.1308,-5.1271,-5.1226,-5.121,-5.1161,-5.103,-5.1004,-5.0981,-5.0932,-5.0902,-5.085,-5.0777,-5.1452,-5.1137,-4.9354,-4.9935,-5.0297,-5.0266,-5.0171,-5.0119,-4.9982,-4.9982,-4.9963,-4.9906,-4.9906,-4.9906,-4.9906,-4.9906,-4.9906,-4.9906,-5.0005,-5.0031,-5.0031,-5.0139,-5.0212,-5.0212,-5.0278,-5.0348,-5.0412,-5.0412,-5.0457,-5.0521,-5.0521,-5.0521,-5.0521,-5.0521,-5.0521,-5.0521,-5.0521,-5.0521,-5.0521,-5.0603,-5.0605,-5.0625,-5.0682,-5.0738,-5.06,-4.977,-4.896,-4.813,-4.7262,-4.6394,-4.5738,-4.57,-4.57,-4.57,-4.5715,-4.5715,-4.5465,-4.4693,-4.3882,-4.3323,-4.3284,-4.3265,-4.2647,-4.0877,-4.0665,-4.0646,-4.0588,-4.0588,-4.0621,-4.0621,-4.0621,-4.1007,-4.1914,-4.2744,-4.3612,-4.4538,-4.531,-4.5715,-4.5715,-4.5715,-4.5715,-4.5715,-4.7452,-4.8301,-4.8323,-5.0021,-5.0775,-4.5712,-4.5827,-4.5949,-4.6014,-4.6075,-4.6193,-4.6469,-4.7025,-4.7637,-4.8077,-4.9199,-5.0171,-5.0393,-5.0945,-5.1357,-5.1297,-5.1277,-5.1239,-5.1161,-5.1105,-5.1076,-5.1056,-5.1547,-5.1873,-5.1805,-5.2526,-5.28,-5.2319,-5.2248,-5.2203,-5.2179,-5.2112,-5.1795,-5.1204,-5.1185,-5.0836,-5.0207,-5.0207,-5.0207,-5.0207,-5.0207,-5.0207,-5.0207,-5.0231,-5.0255,-5.0302,-5.0325,-5.0371,-5.0416,-5.0438,-5.05,-5.0562,-5.0562,-5.0604,-5.0645,-5.0645,-5.0683,-5.072,-5.072,-5.0664,-5.0567,-5.0625,-5.0664,-5.072,-5.0739,-5.0757,-5.0738,-5.0775,-5.0793,-5.0735,-5.0522,-4.9828,-4.8979,-4.815,-4.7301,-4.6491,-4.5835,-4.57,-4.5715,-4.5765,-4.5776,-4.5713,-4.5501,-4.5269,-4.4921,-4.4322,-4.4244,-4.3612,-4.1798,-4.1572,-4.1321,-4.0665,-4.0635,-4.0668,-4.0668,-4.0713,-4.1384,-4.2853,-4.3143,-4.3935,-4.5404,-4.5655,-4.5771,-4.5771,-4.5771,-4.5757,-4.5765,-4.7465,-4.8298,-4.8323,-5.0021,-5.0793,-4.5584,-4.568,-4.5786,-4.5887,-4.5983,-4.6056,-4.6149,-4.6567,-4.704,-4.7416,-4.8272,-4.9198,-4.9958,-5.05,-5.0939,-5.1288,-5.1347,-5.131,-5.1248,-5.122,-5.118,-5.1101,-5.1839,-5.2322,-5.2244,-5.332,-5.4003,-5.3971,-5.3416,-5.308,-5.308,-5.2973,-5.2717,-5.2276,-5.189,-5.1274,-5.0412,-5.0371,-5.0371,-5.0371,-5.0371,-5.0371,-5.0393,-5.0435,-5.0457,-5.0478,-5.0523,-5.0565,-5.0585,-5.0625,-5.0644,-5.0683,-5.0683,-5.0702,-5.0738,-5.0738,-5.0775,-5.081,-5.0825,-5.0789,-5.0736,-5.0738,-5.0775,-5.0793,-5.0793,-5.081,-5.0827,-5.0844,-5.0877,-5.0893,-5.0929,-5.0271,-4.9421,-4.8589,-4.7719,-4.6849,-4.5979,-4.5786,-4.58,-4.5833,-4.5841,-4.5835,-4.5835,-4.5841,-4.5692,-4.5247,-4.5156,-4.4626,-4.325,-4.2748,-4.2188,-4.1318,-4.1254,-4.1132,-4.0765,-4.0778,-4.1525,-4.3189,-4.3305,-4.4059,-4.5722,-4.58,-4.58,-4.58,-4.58,-4.58,-4.5791,-4.7511,-4.8346,-4.8388,-5.0069,-5.0844,-4.5419,-4.553,-4.5613,-4.5737,-4.5867,-4.5991,-4.6075,-4.6149,-4.6404,-4.7162,-4.7412,-4.7952,-4.9471,-4.9863,-5.0213,-5.1093,-5.1219,-5.124,-5.1316,-5.13,-5.1248,-5.1139,-5.1991,-5.2569,-5.2485,-5.4013,-5.4955,-5.4887,-5.4146,-5.3667,-5.3649,-5.3531,-5.3373,-5.3123,-5.2178,-5.1312,-5.0542,-5.0542,-5.0542,-5.0542,-5.0542,-5.0542,-5.0523,-5.0604,-5.0623,-5.0643,-5.0683,-5.0701,-5.072,-5.0775,-5.081,-5.081,-5.081,-5.0827,-5.0827,-5.0827,-5.0827,-5.0844,-5.0909,-5.0941,-5.0925,-5.0861,-5.0827,-5.0827,-5.0827,-5.088,-5.0932,-5.0925,-5.0971,-5.102,-5.1067,-5.0538,-4.9724,-4.8735,-4.7921,-4.7107,-4.6099,-4.5905,-4.5905,-4.5905,-4.5905,-4.5905,-4.5905,-4.5899,-4.5906,-4.5906,-4.586,-4.5562,-4.4866,-4.4001,-4.315,-4.226,-4.2164,-4.1893,-4.1177,-4.1119,-4.1796,-4.3363,-4.3479,-4.4175,-4.5742,-4.58,-4.58,-4.58,-4.58,-4.5858,-4.5974,-4.7599,-4.8469,-4.8604,-5.0171,-5.0893,-4.5277,-4.5419,-4.553,-4.5613,-4.5742,-4.5874,-4.5991,-4.6076,-4.6185,-4.6385,-4.6996,-4.7592,-4.7891,-4.8591,-4.9374,-5.0189,-5.0331,-5.0562,-5.1271,-5.1323,-5.1284,-5.1278,-5.263,-5.3538,-5.3462,-5.4976,-5.5957,-5.5951,-5.5733,-5.5571,-5.5461,-5.5422,-5.4747,-5.3302,-5.1779,-5.0911,-5.0757,-5.0757,-5.0757,-5.0757,-5.0757,-5.0757,-5.0757,-5.0757,-5.0757,-5.0757,-5.0775,-5.0793,-5.0793,-5.0793,-5.0827,-5.088,-5.0893,-5.0925,-5.0956,-5.1024,-5.1039,-5.1039,-5.1053,-5.1073,-5.1053,-5.1039,-5.1039,-5.1039,-5.1039,-5.1058,-5.1073,-5.1073,-5.1067,-5.1087,-5.1101,-5.0984,-5.048,-4.8891,-4.8387,-4.7844,-4.6235,-4.5905,-4.5905,-4.5905,-4.5905,-4.5905,-4.5905,-4.5905,-4.5905,-4.5905,-4.5893,-4.5835,-4.5699,-4.4912,-4.404,-4.3169,-4.3073,-4.3015,-4.2879,-4.2879,-4.3305,-4.4311,-4.4369,-4.4794,-4.5761,-4.58,-4.58,-4.58,-4.58,-4.6148,-4.6883,-4.7908,-4.8778,-4.9494,-5.0461,-5.089,-4.5125,-4.5298,-4.5438,-4.5566,-4.5665,-4.5771,-4.5919,-4.5994,-4.6075,-4.6135,-4.6521,-4.6967,-4.7412,-4.7896,-4.8493,-4.9335,-4.9829,-5.0258,-5.0655,-5.1096,-5.1342,-5.1312,-5.2368,-5.3105,-5.3071,-5.4194,-5.4893,-5.489,-5.4876,-5.5184,-5.5958,-5.5537,-5.4476,-5.2722,-5.1892,-5.1256,-5.0793,-5.0793,-5.0793,-5.0793,-5.0793,-5.0793,-5.0793,-5.0846,-5.0846,-5.0846,-5.0877,-5.0909,-5.0909,-5.0945,-5.0709,-5.0317,-5.0327,-5.007,-4.9697,-4.973,-4.9763,-4.9744,-4.9757,-5.0041,-5.0429,-5.0455,-5.0759,-5.1101,-5.1101,-5.1101,-5.1101,-5.1108,-5.1108,-5.1108,-5.1153,-5.1153,-5.0707,-4.896,-4.7854,-4.6962,-4.6127,-4.5964,-4.5964,-4.5964,-4.5964,-4.5964,-4.5964,-4.5941,-4.5949,-4.5949,-4.5917,-4.5905,-4.5905,-4.5538,-4.4937,-4.4066,-4.3976,-4.3788,-4.3343,-4.3305,-4.3672,-4.4543,-4.4601,-4.4968,-4.5761,-4.58,-4.58,-4.58,-4.58,-4.6225,-4.7096,-4.7966,-4.8856,-4.9726,-5.0538,-5.0906,-4.501,-4.517,-4.5319,-4.5495,-4.5618,-4.5696,-4.5852,-4.5937,-4.6017,-4.6083,-4.6157,-4.641,-4.7092,-4.7276,-4.7601,-4.8476,-4.9153,-4.97,-5.0048,-5.0689,-5.1167,-5.1289,-5.2027,-5.2514,-5.2502,-5.3227,-5.3727,-5.3689,-5.3695,-5.4217,-5.5478,-5.466,-5.3546,-5.2159,-5.1929,-5.1505,-5.0827,-5.0827,-5.0827,-5.0844,-5.0844,-5.0844,-5.088,-5.0932,-5.0948,-5.0948,-5.099,-5.0923,-5.0748,-5.0796,-5.0306,-4.9511,-4.9524,-4.9097,-4.8503,-4.8516,-4.8516,-4.8528,-4.8514,-4.8973,-4.9547,-4.9621,-5.0305,-5.1127,-5.1127,-5.1127,-5.1127,-5.1127,-5.112,-5.112,-5.1194,-5.107,-5.0495,-4.8766,-4.7153,-4.6026,-4.5997,-4.5997,-4.5997,-4.5997,-4.5997,-4.5997,-4.5997,-4.6005,-4.6003,-4.6003,-4.596,-4.591,-4.591,-4.5912,-4.5635,-4.4957,-4.4879,-4.4581,-4.3885,-4.3846,-4.4136,-4.4813,-4.4871,-4.5142,-4.5761,-4.58,-4.58,-4.58,-4.58,-4.6322,-4.7386,-4.8063,-4.8933,-4.9977,-5.0616,-5.0906,-4.4846,-4.5057,-4.5235,-4.5379,-4.5513,-4.5629,-4.5781,-4.5906,-4.6014,-4.6095,-4.6154,-4.6228,-4.6304,-4.6366,-4.67,-4.7575,-4.7772,-4.8367,-4.9891,-5.0162,-5.0491,-5.1213,-5.2072,-5.2573,-5.2514,-5.328,-5.3783,-5.3689,-5.3643,-5.3645,-5.3735,-5.2914,-5.2356,-5.2202,-5.1412,-5.0967,-5.089,-5.089,-5.0906,-5.0971,-5.0971,-5.1005,-5.1073,-5.1087,-5.1087,-5.1087,-5.1087,-5.0655,-4.9918,-4.9918,-4.9414,-4.8619,-4.8625,-4.858,-4.8502,-4.8577,-4.8588,-4.8599,-4.8582,-4.8632,-4.871,-4.8798,-4.9895,-5.119,-5.119,-5.119,-5.1202,-5.1197,-5.1189,-5.1189,-5.119,-5.0656,-4.9673,-4.7923,-4.6776,-4.6066,-4.6007,-4.5997,-4.5997,-4.5997,-4.5997,-4.5997,-4.5997,-4.5997,-4.5997,-4.5997,-4.5997,-4.5997,-4.5997,-4.5941,-4.5866,-4.5789,-4.5725,-4.5664,-4.5568,-4.5568,-4.5587,-4.5684,-4.5684,-4.5722,-4.58,-4.58,-4.58,-4.58,-4.58,-4.6612,-4.8275,-4.8353,-4.9223,-5.079,-5.0867,-5.0906,-4.477,-4.4943,-4.5125,-4.5338,-4.5477,-4.5601,-4.575,-4.5866,-4.5968,-4.6085,-4.6111,-4.6144,-4.6181,-4.6249,-4.6404,-4.6751,-4.7265,-4.8016,-4.9212,-4.9791,-5.0419,-5.1271,-5.1632,-5.1784,-5.1716,-5.2027,-5.2228,-5.2193,-5.213,-5.2075,-5.2061,-5.2136,-5.195,-5.1428,-5.108,-5.0906,-5.0956,-5.0956,-5.0986,-5.1053,-5.1053,-5.1067,-5.1101,-5.1101,-5.1101,-5.1101,-5.1108,-5.0604,-4.9789,-4.9834,-4.905,-4.7788,-4.7781,-4.7451,-4.6996,-4.7067,-4.7096,-4.7096,-4.7106,-4.7437,-4.7884,-4.7913,-4.872,-4.9789,-5.0324,-5.083,-5.12,-5.119,-5.119,-5.1103,-5.0607,-4.9459,-4.8263,-4.7573,-4.6717,-4.6095,-4.6066,-4.6066,-4.6056,-4.6007,-4.5997,-4.5997,-4.5997,-4.5997,-4.5997,-4.5997,-4.5997,-4.5997,-4.5994,-4.5941,-4.5905,-4.5899,-4.5841,-4.58,-4.58,-4.58,-4.58,-4.58,-4.58,-4.58,-4.58,-4.58,-4.58,-4.58,-4.6322,-4.7173,-4.8392,-4.8933,-4.9765,-5.0906,-5.0906,-5.0906,-4.4693,-4.487,-4.5057,-4.5317,-4.5438,-4.5549,-4.5735,-4.5838,-4.5932,-4.6046,-4.6093,-4.613,-4.6201,-4.6249,-4.6306,0.0,0.0,-4.7528,-4.8392,-4.9206,-5.0048,-5.0907,-5.1179,-5.1267,-5.1211,-5.12,-5.1206,-5.1202,-5.0908,-5.0713,-5.0713,-5.0932,-5.1022,-5.0941,-5.0921,-5.0956,-5.102,-5.102,-5.1048,-5.1095,-5.1095,-5.1095,-5.1127,-5.1127,-5.1127,-5.1108,-5.0862,-5.0254,-4.9419,-4.921,-4.828,-4.694,-4.694,-4.6581,-4.6047,-4.6085,-4.6095,-4.6095,-4.6122,-4.653,-4.7056,-4.7045,-4.7629,-4.8466,-4.9069,-4.9819,-5.0452,-5.0461,-5.0461,-5.0295,-4.9478,-4.8349,-4.7356,-4.7114,-4.6569,-4.6122,-4.6095,-4.6105,-4.6095,-4.6037,-4.6007,-4.5997,-4.5997,-4.5997,-4.5997,-4.5997,-4.5997,-4.6005,-4.6003,-4.5937,-4.5899,-4.5906,-4.5847,-4.58,-4.58,-4.58,-4.58,-4.58,-4.58,-4.58,-4.58,-4.58,-4.5916,-4.6167,-4.6786,-4.7657,-4.8798,-4.9397,-5.0113,-5.0906,-5.0906,-5.1041,-4.4659,-4.4846,-4.5057,-4.5235,-4.54,-4.5531,-4.5684,-4.5805,-4.5932,-4.5986,-4.6046,-4.613,-4.6201,-4.6249,-4.6306,-4.63,-4.6308,-4.661,-4.7494,-4.8309,-4.9132,-5.0009,-5.0816,-5.1265,-5.1211,-5.1197,-5.1202,-5.1202,-5.0345,-4.9802,-4.9802,-4.8938,-4.9219,-5.0947,-5.1005,-5.102,-5.1101,-5.1101,-5.1095,-5.1095,-5.1095,-5.1127,-5.1202,-5.1202,-5.1202,-5.1144,-5.0289,-4.9415,-4.8541,-4.7686,-4.6853,-4.6115,-4.6115,-4.6114,-4.6093,-4.6093,-4.6093,-4.6122,-4.6177,-4.6205,-4.6212,-4.6208,-4.68,-4.7501,-4.7521,-4.8093,-4.872,-4.8727,-4.8772,-4.8612,-4.7754,-4.7501,-4.7279,-4.6427,-4.6205,-4.6185,-4.6102,-4.6095,-4.6095,-4.6095,-4.6056,-4.5997,-4.5997,-4.5997,-4.5997,-4.5997,-4.5994,-4.5991,-4.5991,-4.5944,-4.5893,-4.5893,-4.5847,-4.58,-4.58,-4.58,-4.58,-4.58,-4.58,-4.58,-4.58,-4.58,-4.6206,-4.7076,-4.7096,-4.7947,-4.9687,-4.9707,-5.0113,-5.0906,-5.0906,-5.1405,-4.383,-4.4429,-4.5057,-4.5254,-4.54,-4.5531,-4.5684,-4.5805,-4.5932,-4.5986,-4.6046,-4.613,-4.6201,-4.6255,-4.6292,-4.63,-4.6308,-4.659,-4.7474,-4.7786,-4.8469,-4.9931,-5.0774,-5.1015,-5.0442,-5.0342,-5.0056,-4.9473,-4.9103,-4.891,-4.891,-4.8585,-4.8919,-5.0076,-5.0114,-5.0433,-5.1102,-5.1102,-5.1114,-5.1171,-5.1171,-5.1171,-5.1202,-5.1202,-5.0872,-5.0289,-5.002,-4.9098,-4.7757,-4.7476,-4.6873,-4.6104,-4.6104,-4.6113,-4.6122,-4.6149,-4.6177,-4.6158,-4.6181,-4.6208,-4.6189,-4.619,-4.6391,-4.6606,-4.6618,-4.7613,-4.8772,-4.8772,-4.8351,-4.7852,-4.756,-4.7053,-4.6546,-4.6266,-4.6208,-4.6181,-4.6166,-4.6122,-4.6104,-4.6105,-4.6056,-4.5997,-4.5997,-4.5997,-4.5997,-4.5994,-4.6003,-4.598,-4.5932,-4.5906,-4.6106,-4.666,-4.6704,-4.6438,-4.5838,-4.58,-4.58,-4.58,-4.58,-4.6071,-4.6651,-4.6689,-4.7096,-4.7966,-4.8566,-4.9146,-4.9707,-5.0248,-5.067,-5.0971,-5.0971,-5.145,0.0,-4.3568,-4.4129,-4.4322,-4.4461,-4.4605,-4.4735,-4.4838,-4.4943,-4.5045,-4.5112,-4.5188,-4.524,-4.5562,-4.5816,-4.5815,-4.6093,-4.6493,-4.7038,-4.7333,-4.8014,-4.94,-4.9991,-5.0063,-4.9528,-4.9429,-4.9182,-4.8638,-4.8262,-4.805,-4.805,-4.7676,-4.7876,-4.8761,-4.9091,-4.9543,-5.0149,-5.0169,-5.0169,-5.0212,-5.0212,-5.0212,-5.0223,-5.0223,-4.9943,-4.9429,-4.9099,-4.8361,0.0,-4.7057,-4.6608,-4.6149,-4.6149,-4.613,-4.6146,-4.6174,-4.6201,-4.6196,-4.6203,-4.619,-4.6203,-4.6189,-4.6195,-4.6195,-4.6206,-4.6955,-4.7814,-4.7814,-4.7418,-4.7008,-4.7008,-4.6612,-4.6196,-4.6196,-4.6196,-4.6196,-4.6201,-4.6158,-4.6093,-4.6095,-4.6047,-4.5997,-4.5997,-4.5997,-4.5986,-4.6003,-4.5991,-4.5937,-4.5906,-4.6151,-4.6543,-4.7038,-4.7386,-4.7366,-4.6825,-4.6786,-4.6786,-4.6786,-4.6786,-4.7018,-4.756,-4.7579,-4.8005,-4.8875,-4.9417,-4.9861,-5.0152,-5.0689,-5.0956,-5.1005,-5.102,-5.1339,0.0,-4.243,-4.2633,-4.2776,-4.2923,-4.3041,-4.3183,-4.326,0.0,-4.3471,-4.3545,-4.363,-4.3688,-4.4406,-4.5004,-4.4999,-4.5739,-4.6293,-4.6299,-4.6991,-4.7788,-4.851,-4.8651,-4.8643,-4.8525,-4.8524,-4.8483,-4.8425,-4.7684,-4.7214,-4.7214,-4.6375,-4.6317,-4.7175,-4.7932,-4.841,-4.8599,-4.8599,-4.8599,-4.8599,-4.8599,-4.8602,-4.8603,-4.8603,-4.8613,-4.8564,-4.7747,-4.7378,-4.7241,-4.6452,-4.613,-4.6193,-4.6193,-4.6201,-4.6203,-4.6203,-4.619,-4.6209,-4.6209,-4.6195,-4.6206,-4.6206,-4.6211,-4.6211,-4.6211,-4.6211,-4.6206,-4.6206,-4.6195,-4.6203,-4.6203,-4.619,-4.6203,-4.6196,-4.6196,-4.6196,-4.6196,-4.6146,-4.6093,-4.6093,-4.6056,-4.5997,-4.5997,-4.5997,-4.6005,-4.6003,-4.5949,-4.5912,-4.597,-4.664,-4.7154,-4.727,-4.8005,-4.8527,-4.8566,-4.8469,-4.8392,-4.8392,-4.8392,-4.843,-4.8488,-4.8488,-4.8894,-4.9765,-4.9784,-5.0152,-5.0906,-5.0971,-5.1005,-5.1005,-5.1067,-5.1108,-4.0597,0.0,-4.2717,-4.2908,-4.3028,-4.31,0.0,0.0,-4.3461,-4.3499,0.0,-4.3623,-4.369,-4.4413,-4.4998,-4.5,-4.5735,-4.63,-4.6299,-4.6989,-4.7547,-4.7693,-4.8253,-4.838,-4.7728,-4.765,-4.7337,-4.6657,-4.6422,-4.6302,-4.6302,-4.6108,-4.6088,-4.6302,-4.648,-4.7229,-4.858,-4.8599,-4.8591,-4.8593,-4.8593,-4.8623,-4.8691,-4.8691,-4.8322,-4.7689,-4.7492,-4.7053,-4.6469,-4.6259,-4.6189,-4.6196,-4.6209,-4.6196,-4.6203,-4.6195,-4.6201,-4.6201,-4.6201,-4.6206,-4.6211,-4.626,-4.6288,-4.6273,-4.6273,-4.624,-4.6206,-4.6206,-4.6206,-4.6201,-4.6209,-4.6203,-4.6196,-4.6203,-4.6196,-4.6196,-4.6196,-4.6146,-4.6093,-4.6093,-4.6056,-4.5997,-4.5997,-4.5997,-4.5986,-4.5929,-4.5917,-4.6125,-4.6737,-4.6994,-4.7618,-4.8952,-4.9262,-4.9649,-5.0268,-4.9146,-4.8392,-4.8392,-4.8392,-4.8701,-4.9378,-4.9397,-4.9784,-5.0596,-5.0616,-5.0712,-5.0906,-5.0971,-5.102,-5.1087,-5.1089,-5.1127,-3.9122,-4.0452,-4.1682,-4.1857,-4.1962,-4.206,-4.2175,0.0,0.0,0.0,0.0,0.0,-4.2506,-4.3216,-4.3945,-4.4347,-4.5132,-4.5835,-4.6195,-4.6631,-4.6875,-4.6803,-4.7184,-4.7281,-4.6805,-4.6726,-4.6502,-4.6035,-4.6005,-4.5994,-4.5994,-4.5994,-4.5994,-4.5994,-4.6026,-4.6484,-4.7395,-4.7445,-4.7446,-4.7456,-4.7447,-4.7485,-4.7551,-4.7551,-4.7298,-4.6847,-4.6855,-4.659,-4.6196,-4.6209,-4.6196,-4.6203,-4.6195,-4.6195,-4.6195,-4.6206,-4.6211,-4.6255,-4.6255,-4.626,-4.6245,-4.6292,-4.6296,-4.63,-4.63,-4.6273,-4.6245,-4.6245,-4.624,-4.6255,-4.6245,-4.6215,-4.6203,-4.619,-4.6203,-4.6196,-4.6196,-4.6174,-4.6149,-4.6122,-4.6066,-4.6037,-4.6007,-4.5997,-4.5986,-4.5917,-4.6235,-4.6636,-4.7052,-4.7792,-4.8643,-4.961,-5.0035,-5.0442,-5.0867,-5.0074,-4.9552,-4.9552,-4.9552,-4.9765,-5.0229,-5.0248,-5.0461,-5.0906,-5.0906,-5.0906,-5.0956,-5.1005,-5.1048,-5.1108,-5.1127,-5.1171,-3.7995,-3.9047,-4.0096,-4.0216,-4.0423,-4.0621,-4.0694,0.0,0.0,0.0,0.0,0.0,0.0,-4.1815,-4.2633,-4.3377,-4.4339,-4.5265,-4.6086,-4.6193,-4.6102,-4.593,-4.5901,-4.5833,-4.5627,-4.5608,-4.5608,-4.5608,-4.5608,-4.5608,-4.5608,-4.5608,-4.5608,-4.5608,-4.5677,-4.5677,-4.5618,-4.594,-4.6105,-4.6114,-4.6113,-4.6149,-4.6193,-4.6193,-4.6208,-4.6203,-4.6203,-4.6196,-4.6209,-4.6209,-4.6195,-4.6206,-4.6211,-4.6211,-4.6211,-4.6211,-4.626,-4.6308,-4.6308,-4.6292,-4.63,-4.63,-4.63,-4.63,-4.63,-4.63,-4.63,-4.63,-4.6296,-4.6308,-4.6303,-4.627,-4.6209,-4.6203,-4.6196,-4.6203,-4.6196,-4.6201,-4.6185,-4.6102,-4.6095,-4.6076,-4.6007,-4.5997,-4.6025,-4.6104,-4.6751,-4.7288,-4.7472,-4.8793,-4.9745,-4.9881,-5.05,-5.0906,-5.0906,-5.0906,-5.0906,-5.0906,-5.0906,-5.0906,-5.0906,-5.0906,-5.0906,-5.0906,-5.0906,-5.0921,-5.1005,-5.1067,-5.1095,-5.1095,-5.1171,-5.1202,-3.8035,-3.8433,-3.8636,-3.8642,-3.9209,-3.9799,-3.9863,0.0,0.0,0.0,0.0,0.0,0.0,-4.1814,-4.2444,-4.2577,-4.3894,-4.5215,-4.6079,-4.6149,-4.5833,-4.5084,-4.5007,-4.4705,-4.3957,-4.3879,-4.3879,-4.3879,-4.3879,-4.3879,-4.3879,-4.3879,-4.3879,-4.3879,-4.3889,-4.3898,-4.387,-4.5356,-4.6122,-4.6177,-4.6185,-4.6193,-4.6196,-4.6209,-4.6196,-4.6203,-4.6195,-4.6201,-4.6206,-4.6206,-4.6206,-4.6206,-4.626,-4.6284,-4.6284,-4.6273,-4.6296,-4.63,-4.63,-4.63,-4.63,-4.63,-4.63,-4.63,-4.63,-4.63,-4.63,-4.63,-4.63,-4.6296,-4.6308,-4.6284,-4.6275,-4.6209,-4.6203,-4.6196,-4.6203,-4.6201,-4.6185,-4.6102,-4.6095,-4.6076,-4.6007,-4.5997,-4.6238,-4.6981,-4.7202,-4.7759,-4.9127,-4.9533,-4.9964,-5.0635,-5.0828,-5.0906,-5.0906,-5.0906,-5.0906,-5.0906,-5.0906,-5.0906,-5.0906,-5.0906,-5.0906,-5.0906,-5.0906,-5.0921,-5.1005,-5.1067,-5.1095,-5.1095,-5.1171,-5.1202,-3.6883,-3.7001,-3.6994,-3.6994,-3.802,-3.9018,-3.9037,-3.9394,0.0,0.0,0.0,0.0,0.0,-4.142,-4.1837,-4.2278,-4.3383,-4.4328,-4.4692,-4.4705,-4.453,-4.4092,-4.4042,-4.3896,-4.3488,-4.3449,-4.3449,-4.3451,-4.3451,-4.3451,-4.351,-4.351,-4.3491,-4.351,-4.3538,-4.3556,-4.3545,-4.4347,-4.4997,-4.5504,-4.5974,-4.6203,-4.6196,-4.6189,-4.6195,-4.6195,-4.6206,-4.6211,-4.6255,-4.6255,-4.624,-4.6269,-4.6292,-4.6292,-4.6292,-4.63,-4.63,-4.63,-4.63,-4.6306,-4.6293,-4.6293,-4.6293,-4.6293,-4.6293,-4.6293,-4.6293,-4.6293,-4.6306,-4.63,-4.6296,-4.6308,-4.6284,-4.625,-4.6234,-4.6203,-4.6196,-4.6196,-4.6201,-4.6158,-4.6113,-4.6095,-4.6066,-4.6415,-4.684,-4.7233,-4.8068,-4.8916,-4.9653,-5.0162,-5.0608,-5.0966,-5.1005,-5.099,-5.0956,-5.0956,-5.0941,-5.0906,-5.0906,-5.0906,-5.0906,-5.0906,-5.0906,-5.0956,-5.0956,-5.0986,-5.1042,-5.1089,-5.1134,-5.1139,-5.119,-5.1435,-3.5541,-3.5606,-3.5636,-3.5856,0.0,-3.8195,-3.8199,-3.835,-3.8688,0.0,0.0,-3.9769,-4.0636,-4.0944,-4.1344,-4.2147,-4.2844,-4.3315,-4.3452,-4.3481,-4.3382,-4.3125,-4.3094,-4.3017,-4.2803,-4.2784,-4.2795,-4.2809,-4.2809,-4.2839,-4.2889,-4.2908,-4.2908,-4.2907,-4.2952,-4.2996,-4.2992,-4.3208,-4.3858,-4.4915,-4.5586,-4.5994,-4.6189,-4.6226,-4.6211,-4.6231,-4.6216,-4.624,-4.6308,-4.6308,-4.6292,-4.63,-4.6306,-4.6306,-4.6306,-4.6306,-4.6306,-4.6306,-4.6303,-4.6309,-4.63,-4.6303,-4.6305,-4.6305,-4.6305,-4.6303,-4.6301,-4.6301,-4.6293,-4.63,-4.63,-4.6296,-4.6308,-4.6303,-4.625,-4.6215,-4.6209,-4.6196,-4.6196,-4.6193,-4.6158,-4.6113,-4.6095,-4.6785,-4.7395,-4.7586,-4.8875,-4.9892,-5.0067,-5.0687,-5.1114,-5.1101,-5.1101,-5.1087,-5.102,-5.102,-5.1005,-5.0956,-5.0921,-5.0921,-5.0921,-5.0941,-5.0971,-5.102,-5.102,-5.1048,-5.1095,-5.1095,-5.1127,-5.1202,-5.1396,-5.1804,-3.4492,-3.4685,-3.4899,-3.5708,-3.6598,-3.7284,-3.7285,-3.7928,0.0,-3.858,-3.8588,-3.8862,-3.9734,-4.0505,-4.1268,-4.2088,-4.2257,-4.2567,-4.3305,-4.3419,-4.3106,-4.2291,-4.2194,-4.1884,-4.1059,-4.0981,-4.1011,-4.1071,-4.1082,-4.1072,-4.1082,-4.1148,-4.1177,-4.1177,-4.1179,-4.1188,-4.1182,-4.2058,-4.3298,-4.4896,-4.4955,-4.5415,-4.6206,-4.626,-4.6279,-4.6294,-4.6292,-4.63,-4.63,-4.63,-4.63,-4.6303,-4.6297,-4.6301,-4.6301,-4.6301,-4.6301,-4.63,-4.6306,-4.63,-4.6306,-4.6307,-4.6308,-4.6308,-4.6308,-4.6307,-4.6301,-4.6301,-4.6293,-4.63,-4.63,-4.63,-4.6296,-4.6308,-4.6303,-4.6275,-4.6209,-4.6203,-4.619,-4.6193,-4.6205,-4.6177,-4.6122,-4.6824,-4.764,-4.8379,-4.929,-5.0161,-5.0901,-5.1056,-5.1102,-5.1101,-5.1101,-5.1101,-5.1101,-5.1101,-5.1087,-5.1087,-5.102,-5.0986,-5.0986,-5.1053,-5.1087,-5.1101,-5.1101,-5.1095,-5.1095,-5.1095,-5.1127,-5.1222,-5.1979,-5.2348,-3.3717,-3.3765,-3.3799,-3.4135,-3.4842,0.0,0.0,-3.665,-3.7035,-3.7537,-3.7631,-3.7883,-3.8699,-3.9118,-3.9412,-3.9743,-3.9772,-3.9867,-4.0126,-4.0173,-4.0033,-3.9656,-3.9649,-3.9545,-3.9216,-3.917,-3.9204,-3.9286,-3.9266,-3.9539,-4.013,-4.0177,-4.0446,-4.0988,-4.0991,-4.102,-4.1064,-4.1407,-4.2178,-4.3363,-4.4436,-4.5138,-4.5475,-4.6035,-4.6292,-4.6292,-4.6309,-4.6295,-4.6295,-4.6295,-4.629,-4.6303,-4.6305,-4.6307,-4.6307,-4.6307,-4.6307,-4.6307,-4.6306,-4.6305,-4.6306,-4.6308,-4.6308,-4.6308,-4.6308,-4.6308,-4.6307,-4.6307,-4.6307,-4.6303,-4.6297,-4.6309,-4.63,-4.6296,-4.6296,-4.6292,-4.6275,-4.6226,-4.6195,-4.6209,-4.6196,-4.6181,-4.6177,-4.6852,-4.769,-4.8526,-4.9361,-5.0215,-5.1039,-5.1163,-5.1159,-5.1166,-5.1121,-5.1102,-5.1102,-5.1095,-5.1101,-5.1101,-5.1087,-5.1053,-5.1053,-5.1087,-5.1114,-5.1089,-5.1102,-5.1114,-5.1159,-5.1159,-5.1423,-5.194,-5.2294,-5.3025,-3.2753,-3.2787,-3.2798,-3.3075,0.0,0.0,-3.4833,-3.5422,-3.599,-3.6534,-3.6848,-3.721,-3.7764,-3.8073,-3.8276,-3.8274,-3.8244,-3.8222,-3.8168,-3.8175,-3.8163,-3.8112,-3.8144,-3.8177,-3.8208,-3.8214,-3.823,-3.8287,-3.8306,-3.8588,-3.9246,-3.9291,-3.956,-4.0186,-4.0487,-4.0649,-4.0691,-4.095,-4.1393,-4.2018,-4.3478,-4.4473,-4.5035,-4.5893,-4.6306,-4.63,-4.6293,-4.6303,-4.6308,-4.6308,-4.6307,-4.6301,-4.6308,-4.6308,-4.6308,-4.6308,-4.6308,-4.6308,-4.6308,-4.6308,-4.6308,-4.6308,-4.6308,-4.6306,-4.6306,-4.6307,-4.6308,-4.6308,-4.6308,-4.6308,-4.6307,-4.6301,-4.6295,-4.6309,-4.6303,-4.63,-4.6292,-4.626,-4.6231,-4.6195,-4.6196,-4.6203,-4.6208,-4.6859,-4.7698,-4.8574,-4.9411,-5.0247,-5.1083,-5.1197,-5.1194,-5.1202,-5.1159,-5.1127,-5.1127,-5.1121,-5.1127,-5.1127,-5.1127,-5.1127,-5.1095,-5.1127,-5.1121,-5.1127,-5.1127,-5.1139,-5.1202,-5.1194,-5.1622,-5.2449,-5.2764,-5.368,-3.1555,-3.1748,-3.1911,-3.2759,0.0,0.0,-3.2983,-3.4378,-3.5679,-3.5669,-3.6325,-3.6875,-3.6875,-3.7588,-3.8163,-3.8163,-3.8106,-3.808,-3.808,-3.808,-3.808,-3.808,-3.808,-3.8093,-3.817,-3.817,-3.8187,-3.8257,-3.8287,-3.8307,-3.8377,-3.8393,-3.8415,-3.8494,-3.9349,-3.9794,-3.9809,-4.066,-4.1097,-4.1108,-4.1986,-4.3313,-4.5012,-4.5887,-4.6295,-4.63,-4.63,-4.6307,-4.628,-4.628,-4.627,-4.6282,-4.6282,-4.6286,-4.6289,-4.6289,-4.6289,-4.6289,-4.6308,-4.6308,-4.6308,-4.6308,-4.6303,-4.63,-4.63,-4.6301,-4.6308,-4.6308,-4.6308,-4.6308,-4.6308,-4.6308,-4.6308,-4.6303,-4.6293,-4.63,-4.63,-4.6292,-4.6279,-4.6211,-4.6195,-4.6203,-4.6203,-4.6851,-4.7676,-4.8552,-4.943,-5.0277,-5.1094,-5.121,-5.1197,-5.1202,-5.1202,-5.1202,-5.1202,-5.1202,-5.1202,-5.1202,-5.1202,-5.1171,-5.1095,-5.1171,-5.1202,-5.1202,-5.1202,-5.1202,-5.1202,-5.1217,-5.1655,-5.2541,-5.3418,-5.4285,-3.1686,-3.1584,-3.1469,-3.1117,0.0,0.0,0.0,-3.2877,0.0,-3.4538,-3.4834,-3.5181,-3.574,-3.6055,-3.6247,-3.6293,-3.628,-3.628,-3.628,-3.628,-3.6267,-3.6279,-3.6318,-3.6356,-3.6369,-3.6404,-3.645,-3.6474,-3.6464,-3.6764,-3.7455,-3.7525,-3.7838,-3.8474,-3.8745,-3.9175,-3.9798,-4.0055,-4.0492,-4.1108,-4.1986,-4.298,-4.4117,-4.4996,-4.5722,-4.6305,-4.6308,-4.5955,-4.5341,-4.4725,-4.4468,-4.4474,-4.4474,-4.4477,-4.456,-4.5151,-4.5387,-4.5465,-4.609,-4.6305,-4.6305,-4.6305,-4.6301,-4.6295,-4.6303,-4.6306,-4.6297,-4.6303,-4.6305,-4.6305,-4.6305,-4.6307,-4.6308,-4.6308,-4.6307,-4.6303,-4.6306,-4.63,-4.6296,-4.6273,-4.6264,-4.625,-4.6201,-4.6398,-4.6852,-4.7723,-4.8549,-4.9595,-5.1016,-5.1201,-5.119,-5.121,-5.12,-5.12,-5.12,-5.12,-5.12,-5.12,-5.12,-5.1178,-5.1171,-5.1175,-5.1197,-5.1197,-5.12,-5.12,-5.12,-5.1813,-5.2562,-5.3438,-5.4305,-5.5171,-3.2042,-3.1649,-3.1238,-3.0738,-3.0704,-3.0803,-3.0803,-3.1867,-3.3025,-3.3498,-3.3599,-3.3766,-3.4279,-3.4625,-3.487,-3.4916,-3.5218,-3.5315,-3.4982,-3.4943,-3.4828,-3.4507,-3.4809,-3.5039,-3.5071,-3.5427,-3.5676,-3.5699,-3.5708,-3.5978,-3.6596,-3.665,-3.6911,-3.7453,-3.78,-3.84,-3.9275,-3.965,-4.0268,-4.1105,-4.164,-4.2344,-4.3202,-4.4082,-4.4778,-4.5265,-4.5277,-4.4967,-4.444,-4.3925,-4.3704,-4.3704,-4.3704,-4.3704,-4.3766,-4.4282,-4.4694,-4.5085,-4.5592,-4.6002,-4.6295,-4.6295,-4.6295,-4.6293,-4.6303,-4.63,-4.6303,-4.6293,-4.6295,-4.6295,-4.6295,-4.63,-4.6306,-4.6308,-4.6308,-4.6308,-4.6301,-4.6295,-4.6309,-4.6303,-4.6296,-4.6288,-4.6245,-4.6226,-4.6507,-4.7365,-4.8509,-4.9609,-5.0596,-5.1035,-5.122,-5.1191,-5.1211,-5.1211,-5.1211,-5.1211,-5.1211,-5.1211,-5.1211,-5.119,-5.1197,-5.12,-5.121,-5.121,-5.1201,-5.1211,-5.1211,-5.2096,-5.2981,-5.3818,-5.4713,-5.5608,-3.2594,-3.1951,-3.1254,-3.1178,-3.0516,-2.9872,-2.9872,-3.1213,-3.2447,-3.2539,-3.2558,-3.2611,-3.2752,-3.3383,-3.3895,-3.3959,-3.4591,-3.4817,-3.4087,-3.3991,-3.3717,-3.3006,-3.3602,-3.4121,-3.4183,-3.4971,-3.551,-3.5582,-3.565,-3.5754,-3.5898,-3.5905,-3.5911,-3.5909,-3.6684,-3.7515,-3.8381,-3.9328,-4.0186,-4.0996,-4.1054,-4.152,-4.2301,-4.3173,-4.362,-4.3704,-4.3626,-4.3587,-4.3587,-4.3509,-4.345,-4.345,-4.345,-4.345,-4.3469,-4.3548,-4.4133,-4.4894,-4.4972,-4.5578,-4.63,-4.63,-4.63,-4.63,-4.63,-4.63,-4.63,-4.63,-4.63,-4.63,-4.63,-4.63,-4.6309,-4.6307,-4.6308,-4.6308,-4.6308,-4.6307,-4.63,-4.6306,-4.6303,-4.6303,-4.63,-4.6245,-4.6504,-4.7376,-4.8847,-4.99,-5.0002,-5.0708,-5.1189,-5.123,-5.122,-5.122,-5.122,-5.122,-5.122,-5.122,-5.122,-5.122,-5.122,-5.122,-5.1211,-5.1211,-5.1211,-5.122,-5.122,-5.2221,-5.3087,-5.3827,-5.4838,-5.5751,-3.3293,-3.2522,0.0,-3.1111,-3.034,-2.9738,-2.9738,-3.0074,-3.056,-3.1358,-3.1559,-3.1803,-3.2463,-3.2746,-3.2928,-3.3004,-3.3138,-3.324,-3.3171,-3.3166,-3.3115,-3.2986,-3.3138,-3.3277,-3.3338,-3.4156,-3.4681,-3.4758,-3.5396,-3.5807,-3.5898,-3.5905,-3.5914,-3.5981,-3.6169,-3.6684,-3.7552,-3.8444,-3.9313,-4.0176,-4.0794,-4.1194,-4.1404,-4.2282,-4.3043,-4.3665,-4.2982,-4.2689,-4.263,-4.1947,-4.1654,-4.1654,-4.1654,-4.1654,-4.1732,-4.2435,-4.3235,-4.4075,-4.4758,-4.5578,-4.63,-4.63,-4.63,-4.63,-4.63,-4.63,-4.63,-4.63,-4.63,-4.63,-4.63,-4.63,-4.6303,-4.6309,-4.63,-4.6306,-4.6308,-4.6308,-4.6307,-4.63,-4.6297,-4.6295,-4.6303,-4.6296,-4.6561,-4.7382,-4.7819,-4.856,-4.99,-5.0231,-5.0615,-5.1297,-5.1349,-5.1349,-5.1349,-5.1349,-5.1349,-5.1349,-5.1349,-5.1349,-5.1349,-5.1312,-5.1278,-5.1278,-5.1276,-5.1284,-5.1284,-5.2848,-5.3713,-5.3908,-5.5489,-5.6315,-3.3844,0.0,0.0,-3.1024,-3.0109,-2.9531,-2.955,-2.955,-2.9701,-3.0264,-3.0448,-3.0686,-3.117,-3.1621,-3.1955,-3.2065,-3.2405,-3.255,-3.2319,-3.2275,-3.2148,-3.1792,-3.2146,-3.245,-3.2463,-3.3258,-3.3809,-3.3865,-3.4307,-3.4766,-3.5256,-3.5287,-3.5495,-3.5986,-3.5994,-3.6414,-3.7282,-3.7748,-3.8613,-3.9901,-4.0338,-4.0734,-4.1121,-4.1576,-4.2022,-4.2428,-4.1967,-4.1771,-4.1732,-4.1283,-4.1108,-4.1108,-4.1108,-4.1108,-4.1166,-4.1615,-4.2591,-4.3762,-4.4211,-4.5226,-4.63,-4.63,-4.63,-4.63,-4.63,-4.63,-4.63,-4.63,-4.63,-4.63,-4.63,-4.63,-4.63,-4.63,-4.5975,-4.567,-4.5677,-4.535,-4.5176,-4.5604,-4.5682,-4.5815,-4.6225,-4.63,-4.6433,-4.685,-4.726,-4.7977,-4.9318,-4.9839,-5.0438,-5.1316,-5.1394,-5.1394,-5.1394,-5.1394,-5.1394,-5.1394,-5.1394,-5.1394,-5.1394,-5.1369,-5.1355,-5.1355,-5.1342,-5.1349,-5.1349,-5.2643,-5.3488,-5.3936,-5.525,-5.6095,-3.4173,0.0,-3.2405,-3.0865,-2.9882,-2.9291,-2.9351,-2.9372,-2.9392,-2.9453,-2.9589,-2.9735,-2.9857,-3.0476,-3.1016,-3.1146,-3.173,-3.197,-3.1454,-3.1385,-3.1136,-3.0494,-3.1116,-3.1592,-3.1584,-3.2387,-3.2927,-3.299,-3.313,-3.3556,-3.4328,-3.4539,-3.4974,-3.5752,-3.5916,-3.6359,-3.7075,-3.7225,-3.8026,-3.9445,-3.9747,-4.0317,-4.1109,-4.1101,-4.1101,-4.109,-4.1101,-4.1108,-4.1108,-4.1108,-4.1108,-4.1108,-4.1108,-4.1108,-4.1108,-4.1108,-4.2103,-4.3509,-4.3645,-4.4738,-4.6105,-4.6241,-4.63,-4.63,-4.63,-4.63,-4.63,-4.63,-4.63,-4.63,-4.63,-4.63,-4.63,-4.63,-4.5519,-4.482,-4.4976,-4.4327,-4.3906,-4.4648,-4.4902,-4.5272,-4.6156,-4.6306,-4.6306,-4.6306,-4.6869,-4.7604,-4.8474,-4.9343,-5.021,-5.1088,-5.1302,-5.14,-5.14,-5.14,-5.14,-5.14,-5.14,-5.14,-5.14,-5.14,-5.14,-5.14,-5.1394,-5.1394,-5.1394,-5.2213,-5.3078,-5.3936,-5.4814,-5.5672,-3.4023,0.0,-3.1584,0.0,-2.981,-2.9222,-2.9222,-2.9283,-2.9326,-2.9332,-2.9531,-2.9701,-2.9719,-2.9921,-3.0097,-3.0159,-3.0335,-3.0448,-3.0458,-3.0471,-3.0494,-3.0488,-3.0656,-3.0752,-3.0761,-3.154,-3.2097,-3.2159,-3.2856,-3.3336,-3.3462,-3.4233,-3.4737,-3.4862,-3.5614,-3.6062,-3.6171,-3.6914,-3.742,-3.7656,-3.913,-4.0266,-4.11,-4.1096,-4.1096,-4.1096,-4.109,-4.1097,-4.1097,-4.1104,-4.1108,-4.1108,-4.1108,-4.1108,-4.1108,-4.1108,-4.1732,-4.2689,-4.343,-4.4348,-4.5304,-4.6046,-4.63,-4.63,-4.63,-4.63,-4.63,-4.63,-4.63,-4.63,-4.63,-4.63,-4.63,-4.63,-4.5051,-4.4075,-4.4839,-4.4315,-4.3735,-4.3842,-4.4472,-4.5273,-4.6152,-4.6305,-4.63,-4.63,-4.6387,-4.6788,-4.7647,-4.8521,-4.938,-5.02,-5.0941,-5.141,-5.141,-5.141,-5.141,-5.141,-5.141,-5.141,-5.141,-5.141,-5.141,-5.141,-5.1405,-5.1394,-5.1394,-5.2264,-5.3133,-5.4011,-5.4879,-5.5743,-3.3807,-3.2606,-3.1304,-3.0987,-2.9958,-2.9044,-2.9112,-2.9175,-2.9218,-2.9286,-2.9431,-2.9569,-2.9664,-2.9774,-2.9876,-2.9972,-3.0072,-3.0147,-3.0266,-3.0299,-3.034,-3.0469,-3.0569,-3.0597,-3.0593,-3.0975,-3.1239,-3.1261,-3.1625,-3.2077,-3.2596,-3.3024,-3.3684,-3.4671,-3.5066,-3.5506,-3.5996,-3.6384,-3.6823,-3.7315,-3.8994,-3.9994,-4.0393,-4.0875,-4.1095,-4.1106,-4.1096,-4.1105,-4.1094,-4.1097,-4.1104,-4.1108,-4.1108,-4.1108,-4.1108,-4.1108,-4.1654,-4.2513,-4.3391,-4.427,-4.5148,-4.6027,-4.63,-4.63,-4.63,-4.63,-4.63,-4.63,-4.63,-4.63,-4.63,-4.63,-4.63,-4.63,-4.4972,-4.3801,-4.4192,-4.3196,-4.2536,-4.3518,-4.4407,-4.5272,-4.615,-4.6308,-4.6307,-4.6307,-4.6306,-4.6614,-4.7486,-4.7935,-4.8479,-4.9338,-4.9768,-5.0002,-5.0002,-5.0002,-5.0002,-5.0002,-5.0002,-5.0198,-5.0647,-5.0666,-5.09,-5.1389,-5.139,-5.1396,-5.1396,-5.1776,-5.2674,-5.4006,-5.44,-5.5298,-3.3633,0.0,-3.1472,-3.1305,-3.0216,-2.9185,-2.9058,-2.9085,-2.9112,-2.924,-2.9328,-2.9433,-2.9626,-2.9719,-2.9842,-2.9956,-3.0057,-3.0147,-3.0266,-3.0311,-3.0371,-3.0479,-3.0559,-3.0615,-3.061,-3.068,-3.071,-3.0698,-3.0722,-3.1037,-3.1729,-3.1976,-3.2693,-3.3997,-3.447,-3.5019,-3.5663,-3.5884,-3.6433,-3.7281,-3.8546,-3.9355,-3.9797,-4.0448,-4.0877,-4.1084,-4.1081,-4.1096,-4.1109,-4.1094,-4.1101,-4.1108,-4.1108,-4.1108,-4.1108,-4.1108,-4.1518,-4.222,-4.3313,-4.4133,-4.4855,-4.5948,-4.63,-4.63,-4.63,-4.63,-4.63,-4.63,-4.63,-4.63,-4.63,-4.63,-4.63,-4.63,-4.4972,-4.3587,-4.3138,-4.2025,-4.1615,-4.3352,-4.422,-4.5028,-4.6102,-4.6303,-4.6307,-4.6308,-4.6308,-4.6523,-4.7186,-4.7459,-4.785,-4.8494,-4.8768,-4.8904,-4.8904,-4.8904,-4.8904,-4.8904,-4.8904,-4.9256,-5.0076,-5.0096,-5.0506,-5.1385,-5.1398,-5.1391,-5.1402,-5.1402,-5.23,-5.4002,-5.3998,-5.4935,-3.3605,-3.2985,-3.2156,-3.1399,-3.0629,-2.9856,-2.907,-2.8998,-2.9112,-2.9178,-2.9267,-2.9353,-2.9492,-2.9664,-2.9806,-2.9888,-3.0022,-3.0147,-3.0266,-3.0343,-3.0414,-3.0481,-3.0558,-3.061,-3.0692,-3.069,-3.0698,-3.0697,-3.0764,-3.0813,-3.0872,-3.164,-3.2146,-3.2222,-3.3847,-3.4724,-3.4764,-3.5594,-3.6419,-3.7216,-3.7278,-3.8163,-3.9708,-3.9747,-4.0214,-4.1013,-4.1064,-4.1106,-4.1096,-4.1109,-4.1101,-4.1108,-4.1108,-4.1108,-4.1108,-4.1108,-4.1127,-4.14,-4.3118,-4.3723,-4.4055,-4.5753,-4.63,-4.63,-4.63,-4.63,-4.63,-4.63,-4.63,-4.63,-4.63,-4.63,-4.63,-4.63,-4.4972,-4.3255,-4.1596,-4.1166,-4.1615,-4.3352,-4.3743,-4.4309,-4.6007,-4.6303,-4.6309,-4.6301,-4.6301,-4.6323,-4.6362,-4.7084,-4.7612,-4.7651,-4.8412,-4.89,-4.89,-4.89,-4.89,-4.89,-4.89,-4.9252,-5.0072,-5.0092,-5.0502,-5.1381,-5.14,-5.1406,-5.1398,-5.1398,-5.2297,-5.3996,-5.3996,-5.4933,-3.3481,-3.2881,-3.221,-3.1965,-3.0972,-2.9972,-2.9722,-2.9337,-2.9085,-2.9178,-2.9243,-2.9349,-2.9472,-2.9645,-2.977,-2.9872,-3.0019,-3.0157,-3.0279,-3.0367,-3.0428,-3.0491,-3.0558,-3.0618,-3.0695,-3.0704,-3.0724,-3.0753,-3.0794,-3.0789,-3.079,-3.109,-3.1521,-3.2089,-3.2714,-3.3568,-3.4697,-3.5522,-3.609,-3.6362,-3.6935,-3.7501,-3.8111,-3.8669,-3.937,-4.0169,-4.0234,-4.0588,-4.1096,-4.11,-4.1094,-4.1108,-4.1108,-4.1108,-4.1108,-4.1108,-4.1108,-4.1342,-4.3099,-4.3704,-4.3997,-4.5734,-4.63,-4.63,-4.63,-4.63,-4.63,-4.63,-4.63,-4.63,-4.63,-4.63,-4.6163,-4.5597,-4.4563,-4.3372,-4.2181,-4.1498,-4.1615,-4.3352,-4.3704,-4.425,-4.6007,-4.63,-4.6303,-4.6309,-4.63,-4.6292,-4.6292,-4.6526,-4.6702,-4.6702,-4.6975,-4.7178,-4.7227,-4.7227,-4.7227,-4.7227,-4.7227,-4.7617,-4.8457,-4.9023,-4.9723,-5.0546,-5.1112,-5.1394,-5.1406,-5.1406,-5.2011,-5.3183,-5.3749,-5.4628,-3.3393,-3.3013,-3.2542,-3.2327,-3.1511,-3.0644,-3.0173,-2.9692,-2.9347,-2.9211,-2.924,-2.9326,-2.9472,-2.9608,-2.9735,-2.9872,-3.0,-3.0138,-3.0279,-3.0359,-3.0419,-3.0482,-3.0567,-3.0626,-3.0697,-3.0691,-3.0736,-3.0789,-3.0804,-3.0802,-3.0794,-3.0813,-3.1224,-3.2067,-3.2102,-3.2931,-3.4686,-3.5212,-3.5602,-3.5903,-3.6463,-3.6878,-3.7194,-3.7799,-3.8507,-3.9286,-3.9637,-4.029,-4.1091,-4.1091,-4.1109,-4.1108,-4.1108,-4.1108,-4.1108,-4.1108,-4.1108,-4.1303,-4.2767,-4.345,-4.3938,-4.5382,-4.6066,-4.63,-4.63,-4.63,-4.63,-4.63,-4.63,-4.63,-4.63,-4.63,-4.6085,-4.5207,-4.4563,-4.3899,-4.3017,-4.2139,-4.1967,-4.3427,-4.3935,-4.4594,-4.6019,-4.6269,-4.6269,-4.6269,-4.6275,-4.6265,-4.6265,-4.6226,-4.6206,-4.6206,-4.6206,-4.6216,-4.6269,-4.6269,-4.6269,-4.6269,-4.6269,-4.6663,-4.7522,-4.8396,-4.9254,-5.0074,-5.0952,-5.139,-5.1405,-5.1408,-5.184,-5.2722,-5.3598,-5.4613,0.0,0.0,0.0,-3.2433,-3.2272,-3.191,-3.0407,-3.0118,-2.9978,-2.9359,-2.9237,-2.9283,-2.9471,-2.9608,-2.9756,-2.9891,-3.0,-3.0152,-3.0279,-3.0359,-3.043,-3.0492,-3.0557,-3.0634,-3.0691,-3.0691,-3.0734,-3.0799,-3.0806,-3.0801,-3.0807,-3.0856,-3.1266,-3.2037,-3.2095,-3.2923,-3.4642,-3.4613,-3.5046,-3.5905,-3.5826,-3.6231,-3.7055,-3.7136,-3.7591,-3.8427,-3.9325,-4.0232,-4.1052,-4.1091,-4.1109,-4.1108,-4.1108,-4.1108,-4.1108,-4.1108,-4.1108,-4.1228,-4.2106,-4.2965,-4.384,-4.4719,-4.5597,-4.63,-4.63,-4.63,-4.63,-4.63,-4.63,-4.63,-4.63,-4.63,-4.6085,-4.5246,-4.5012,-4.4774,-4.3927,-4.3072,-4.2724,-4.3572,-4.443,-4.5245,-4.6055,-4.6206,-4.6206,-4.6206,-4.6206,-4.6206,-4.6206,-4.6206,-4.6206,-4.6206,-4.6206,-4.6206,-4.6206,-4.6206,-4.6206,-4.6206,-4.6206,-4.6577,-4.7435,-4.8293,-4.9171,-5.0048,-5.0926,-5.1375,-5.1394,-5.1401,-5.1824,-5.2683,-5.358,-5.4927,-3.3393,0.0,0.0,0.0,0.0,0.0,-3.1828,-3.1367,-3.0876,-3.0208,-3.0064,-2.9946,-2.9565,-2.9608,-2.9756,-2.9891,-3.0049,-3.0199,-3.0299,-3.0402,-3.0471,-3.0492,-3.0557,-3.0634,-3.0691,-3.0697,-3.0739,-3.0793,-3.079,-3.0798,-3.0801,-3.0859,-3.0979,-3.1159,-3.1776,-3.2627,-3.3745,-3.4325,-3.5048,-3.5911,-3.5818,-3.5931,-3.6157,-3.6234,-3.6735,-3.7559,-3.7818,-3.878,-4.0218,-4.0842,-4.1109,-4.1108,-4.1108,-4.1108,-4.1108,-4.1108,-4.1097,-4.1221,-4.2099,-4.2978,-4.3837,-4.4716,-4.5595,-4.6297,-4.6297,-4.6297,-4.6295,-4.6303,-4.63,-4.63,-4.63,-4.63,-4.6241,-4.6007,-4.546,-4.493,-4.4684,-4.445,-4.4333,-4.4534,-4.4768,-4.5197,-4.605,-4.6206,-4.6206,-4.6206,-4.6201,-4.6209,-4.6196,-4.6203,-4.6189,-4.6135,-4.6135,-4.6135,-4.613,-4.6137,-4.6157,-4.619,-4.6203,-4.6306,-4.654,-4.741,-4.8273,-4.9132,-5.0029,-5.077,-5.1394,-5.14,-5.1528,-5.1796,-5.3303,-5.4596,-3.39,-3.3665,-3.3411,-3.3422,0.0,0.0,-3.2493,-3.2143,-3.1678,-3.1015,-3.066,-3.0339,-3.0049,-2.9832,-2.9736,-2.9891,-3.0064,-3.0213,-3.0279,-3.0421,-3.05,-3.0492,-3.0557,-3.0642,-3.0697,-3.0703,-3.0725,-3.0786,-3.0794,-3.0807,-3.0806,-3.0857,-3.0875,-3.0804,-3.1289,-3.1976,-3.2849,-3.3665,-3.4504,-3.5366,-3.5648,-3.5795,-3.5807,-3.5864,-3.6177,-3.6677,-3.7044,-3.7786,-3.8814,-4.0043,-4.0762,-4.1108,-4.1108,-4.1094,-4.1097,-4.1091,-4.1094,-4.1182,-4.1715,-4.2459,-4.3299,-4.4177,-4.5056,-4.5837,-4.6189,-4.6306,-4.6305,-4.6295,-4.6306,-4.63,-4.63,-4.63,-4.63,-4.63,-4.5909,-4.5535,-4.5518,-4.5494,-4.5372,-4.4986,-4.5181,-4.561,-4.6111,-4.6203,-4.6196,-4.6196,-4.6183,-4.6169,-4.6154,-4.6166,-4.613,-4.6093,-4.6093,-4.6102,-4.6091,-4.6099,-4.6119,-4.6154,-4.6162,-4.615,-4.615,-4.7002,-4.7859,-4.8736,-4.9613,-5.0497,-5.1362,-5.1382,-5.1595,-5.1977,-5.3328,-5.4426,-3.4624,-3.4081,-3.3531,-3.3528,-3.3538,0.0,-3.2766,-3.2637,-3.2496,-3.1863,-3.1219,-3.0757,-3.0723,-3.0246,-2.9866,-2.9907,-3.0064,-3.0213,-3.0279,-3.0421,-3.05,-3.0511,-3.0557,-3.0642,-3.0691,-3.0703,-3.0725,-3.0794,-3.082,-3.0801,-3.0801,-3.0871,-3.0872,-3.0801,-3.0798,-3.1211,-3.2094,-3.2908,-3.3744,-3.4613,-3.5418,-3.5807,-3.5803,-3.5878,-3.5898,-3.593,-3.6737,-3.7128,-3.7336,-3.8998,-4.018,-4.0971,-4.1074,-4.1101,-4.1108,-4.1099,-4.1097,-4.1119,-4.1171,-4.1719,-4.2539,-4.3301,-4.4219,-4.5137,-4.5918,-4.6211,-4.6308,-4.6305,-4.6297,-4.6306,-4.63,-4.63,-4.63,-4.63,-4.63,-4.6277,-4.6216,-4.6206,-4.5967,-4.5189,-4.5676,-4.6196,-4.6196,-4.6201,-4.6205,-4.6185,-4.6149,-4.6093,-4.6093,-4.6093,-4.6093,-4.6084,-4.6084,-4.6084,-4.6084,-4.6084,-4.6084,-4.6084,-4.6093,-4.6093,-4.6093,-4.6833,-4.7669,-4.8545,-4.9498,-5.0432,-5.1287,-5.1369,-5.1784,-5.2564,-5.3384,-5.4222,-3.483,-3.457,-3.4327,-3.3712,-3.3633,0.0,-3.3515,-3.3542,-3.3408,-3.2699,-3.2543,-3.2162,-3.0988,-3.0772,-3.0582,-3.0054,-3.0113,-3.0213,-3.0279,-3.0421,-3.049,-3.0501,-3.0567,-3.0634,-3.0691,-3.0691,-3.0725,-3.0794,-3.0849,-3.0884,-3.0877,-3.0892,-3.0875,-3.0807,-3.0801,-3.1215,-3.209,-3.2894,-3.3732,-3.4614,-3.5422,-3.5803,-3.5811,-3.5859,-3.5903,-3.5908,-3.6138,-3.6637,-3.7363,-3.8408,-3.9351,-4.0193,-4.0856,-4.1093,-4.1094,-4.1093,-4.1093,-4.1092,-4.111,-4.1676,-4.2438,-4.2594,-4.3729,-4.5039,-4.5195,-4.5742,-4.6308,-4.6308,-4.6308,-4.6306,-4.6306,-4.63,-4.63,-4.63,-4.63,-4.6296,-4.6284,-4.6236,-4.6142,-4.5975,-4.6073,-4.6196,-4.6201,-4.6193,-4.6185,-4.6122,-4.6122,-4.6113,-4.6105,-4.6105,-4.6076,-4.6037,-4.6017,-4.6017,-4.6017,-4.6017,-4.6017,-4.6017,-4.6076,-4.6105,-4.6105,-4.626,-4.6755,-4.763,-4.9196,-5.0403,-5.122,-5.1289,-5.1414,-5.159,-5.25,-5.3364,-3.6017,-3.5339,-3.467,-3.4337,-3.3963,0.0,0.0,-3.3834,-3.381,-3.3456,-3.3215,-3.284,-3.2168,-3.1824,-3.1562,-3.1284,-3.1352,-3.1475,-3.1544,-3.0941,-3.049,-3.0491,-3.0558,-3.0634,-3.0691,-3.0691,-3.0725,-3.0794,-3.0833,-3.0866,-3.0896,-3.0897,-3.0862,-3.0807,-3.0801,-3.1215,-3.2085,-3.29,-3.3745,-3.4614,-3.5444,-3.5852,-3.5853,-3.5878,-3.5914,-3.5943,-3.599,-3.6258,-3.6758,-3.8059,-3.8863,-3.937,-4.0625,-4.1093,-4.1107,-4.1101,-4.1099,-4.1099,-4.1099,-4.1392,-4.1824,-4.2253,-4.2999,-4.3862,-4.4743,-4.5604,-4.6307,-4.6308,-4.6308,-4.6308,-4.6303,-4.6297,-4.629,-4.6303,-4.63,-4.6296,-4.6308,-4.6255,-4.6201,-4.6209,-4.619,-4.6189,-4.6193,-4.6177,-4.6141,-4.6104,-4.6066,-4.6056,-4.6047,-4.6046,-4.6035,-4.6005,-4.5964,-4.5953,-4.5953,-4.5953,-4.5953,-4.5953,-4.5975,-4.5994,-4.5994,-4.5997,-4.6629,-4.796,-4.9284,-5.0363,-5.119,-5.1219,-5.1245,-5.1265,-5.2177,-5.2828,-3.7158,-3.6109,-3.5031,-3.4952,-3.4311,-3.3726,0.0,0.0,0.0,-3.3998,-3.3672,-3.3351,-3.3312,-3.2878,-3.2524,-3.2515,-3.261,-3.2703,-3.279,-3.1749,-3.0981,-3.0993,-3.1042,-3.1111,-3.1183,-3.1041,-3.0984,-3.1047,-3.0891,-3.0827,-3.0895,-3.1054,-3.1104,-3.1045,-3.1214,-3.1644,-3.2333,-3.3145,-3.3893,-3.4601,-3.5483,-3.5905,-3.5908,-3.5914,-3.5948,-3.6001,-3.6001,-3.5999,-3.6127,-3.7695,-3.8436,-3.8748,-4.0448,-4.1105,-4.1104,-4.1104,-4.1104,-4.1104,-4.1104,-4.1104,-4.1222,-4.1927,-4.2376,-4.2946,-4.4518,-4.5614,-4.63,-4.6307,-4.6308,-4.6308,-4.6308,-4.6307,-4.6303,-4.6293,-4.6306,-4.63,-4.6308,-4.6255,-4.6206,-4.6189,-4.619,-4.6189,-4.6185,-4.6149,-4.6104,-4.6076,-4.6026,-4.5997,-4.5997,-4.5983,-4.5991,-4.5991,-4.5929,-4.5905,-4.5905,-4.5905,-4.5905,-4.5905,-4.5905,-4.5905,-4.5905,-4.5905,-4.6674,-4.8289,-4.9198,-5.0056,-5.0934,-5.1111,-5.119,-5.123,-5.193,-5.2368,-3.7429,-3.6632,-3.5802,-3.5145,-3.4367,-3.3807,-3.3868,0.0,-3.3998,-3.4074,0.0,-3.4054,-3.3414,0.0,0.0,-3.2661,-3.2594,-3.2657,-3.279,-3.2744,-3.2733,-3.2717,-3.2842,-3.2906,-3.2912,-3.2312,-3.1938,-3.1945,-3.1243,-3.0825,-3.0894,-3.1582,-3.1966,-3.1951,-3.27,-3.3154,-3.3258,-3.4052,-3.4503,-3.4619,-3.5488,-3.5908,-3.5889,-3.5958,-3.599,-3.5997,-3.5991,-3.5996,-3.6074,-3.7048,-3.7875,-3.8674,-4.0414,-4.1097,-4.109,-4.11,-4.11,-4.11,-4.11,-4.11,-4.112,-4.123,-4.2291,-4.3723,-4.4703,-4.562,-4.6303,-4.6306,-4.6303,-4.6308,-4.6308,-4.6308,-4.6308,-4.6308,-4.63,-4.63,-4.63,-4.6245,-4.6206,-4.6206,-4.6203,-4.6189,-4.613,-4.6122,-4.6084,-4.6017,-4.6005,-4.6003,-4.6003,-4.5949,-4.5917,-4.5917,-4.5898,-4.5905,-4.5905,-4.5905,-4.5905,-4.5905,-4.5905,-4.5905,-4.5905,-4.5905,-4.6351,-4.734,-4.8225,-4.9097,-4.9964,-5.0739,-5.1139,-5.1211,-5.1308,-5.1775,-3.8076,-3.7461,-3.6732,-3.5954,-3.5128,-3.4376,-3.3979,-3.3947,-3.4023,-3.4099,0.0,0.0,0.0,0.0,0.0,0.0,-3.4042,-3.4088,-3.4232,-3.437,-3.4084,-3.3122,-3.3122,-3.3214,-3.325,-3.2986,-3.281,-3.2845,-3.2524,-3.2321,-3.2352,-3.2675,-3.2849,-3.2848,-3.3214,-3.3636,-3.4148,-3.4486,-3.491,-3.5417,-3.5773,-3.5953,-3.5958,-3.599,-3.5991,-3.6009,-3.5995,-3.5994,-3.606,-3.6933,-3.778,-3.8619,-3.9858,-4.0657,-4.11,-4.1096,-4.1091,-4.1091,-4.1091,-4.1091,-4.1174,-4.1686,-4.2689,-4.3864,-4.4747,-4.5609,-4.6292,-4.63,-4.629,-4.6301,-4.6308,-4.6308,-4.6308,-4.6308,-4.6307,-4.6301,-4.6303,-4.6273,-4.6245,-4.6211,-4.6189,-4.6176,-4.6111,-4.6093,-4.6075,-4.6005,-4.6003,-4.5991,-4.5949,-4.5925,-4.5899,-4.5899,-4.5867,-4.5835,-4.5835,-4.5835,-4.5835,-4.5835,-4.5835,-4.5835,-4.5835,-4.5835,-4.6261,-4.7178,-4.7566,-4.8418,-4.9802,-5.017,-5.0623,-5.1152,-5.1144,-5.1353,-3.8541,-3.7888,-3.7019,-3.645,-3.5477,-3.455,-3.4042,-3.3972,-3.4049,-3.4148,-3.4293,0.0,0.0,0.0,-3.4868,-3.5039,0.0,-3.5157,-3.5266,-3.5398,-3.5039,-3.3855,-3.3799,-3.3921,-3.4004,-3.3809,-3.3682,-3.3743,-3.3535,-3.3406,-3.3398,-3.3629,-3.3769,-3.3758,-3.3986,-3.4426,-3.5057,-3.5053,-3.5362,-3.6001,-3.6005,-3.6009,-3.5994,-3.6007,-3.6007,-3.5996,-3.5995,-3.6003,-3.6052,-3.6653,-3.7542,-3.8566,-3.9182,-4.0097,-4.107,-4.107,-4.107,-4.107,-4.1075,-4.1237,-4.1559,-4.2183,-4.3139,-4.4158,-4.4772,-4.5597,-4.6308,-4.6296,-4.63,-4.6306,-4.6305,-4.6308,-4.6308,-4.6308,-4.6308,-4.6307,-4.6293,-4.6303,-4.6277,-4.6211,-4.6195,-4.619,-4.6111,-4.6093,-4.6075,-4.6014,-4.5991,-4.5949,-4.5905,-4.5887,-4.586,-4.586,-4.5833,-4.5805,-4.5805,-4.5786,-4.5771,-4.5771,-4.5771,-4.5771,-4.5771,-4.5771,-4.6095,-4.6781,-4.7013,-4.7763,-4.903,-4.9509,-5.007,-5.0724,-5.0978,-5.1127,-3.8658,-3.7551,-3.6321,-3.6303,-3.511,-3.3957,-3.3991,-3.4049,-3.4124,-3.4269,-3.434,-3.445,-3.458,-3.4708,-3.4849,-3.4983,-3.5057,0.0,0.0,-3.5364,-3.5435,-3.5502,-3.559,-3.5668,-3.5794,-3.5042,-3.4586,-3.4655,-3.3883,-3.3402,-3.3395,-3.4193,-3.4667,-3.4668,-3.5478,-3.5932,-3.5952,-3.5955,-3.5962,-3.5992,-3.6009,-3.599,-3.6005,-3.5991,-3.5996,-3.5996,-3.5996,-3.5997,-3.5994,-3.5963,-3.6941,-3.85,-3.8461,-3.9497,-4.0996,-4.0996,-4.0996,-4.1003,-4.1006,-4.1598,-4.2362,-4.2382,-4.3524,-4.488,-4.4899,-4.5553,-4.6303,-4.6303,-4.6292,-4.63,-4.6303,-4.6301,-4.6308,-4.6308,-4.6308,-4.6308,-4.6303,-4.6293,-4.6277,-4.6211,-4.6195,-4.619,-4.6111,-4.6093,-4.6075,-4.6014,-4.5929,-4.5905,-4.5906,-4.5847,-4.58,-4.58,-4.5791,-4.5815,-4.5815,-4.5731,-4.5696,-4.5696,-4.5696,-4.5696,-4.5696,-4.5696,-4.5715,-4.5754,-4.6584,-4.7028,-4.7086,-4.8778,-4.9656,-4.9761,-5.0685,-5.1101,-3.8046,-3.7496,-3.6864,-3.5827,-3.5156,-3.4639,-3.4178,-3.4074,-3.4148,-3.4269,-3.434,-3.445,-3.4645,-3.4747,-3.4849,-3.4983,-3.5057,-3.5127,0.0,-3.5369,-3.5501,-3.5596,-3.5658,-3.5736,-3.5834,-3.5612,-3.547,-3.549,-3.5256,-3.5116,-3.5112,-3.5402,-3.5564,-3.5566,-3.5858,-3.6009,-3.5994,-3.6007,-3.6004,-3.6001,-3.6005,-3.5991,-3.5991,-3.5995,-3.5994,-3.5996,-3.6001,-3.5966,-3.5924,-3.5914,-3.691,-3.8422,-3.842,-3.9474,-4.0999,-4.0988,-4.0996,-4.0996,-4.1003,-4.1602,-4.2427,-4.3006,-4.3968,-4.5014,-4.5579,-4.5981,-4.6245,-4.6279,-4.6308,-4.6292,-4.63,-4.6309,-4.63,-4.6308,-4.6308,-4.6308,-4.6303,-4.6293,-4.6277,-4.6211,-4.6201,-4.6183,-4.6111,-4.6093,-4.6066,-4.5941,-4.5917,-4.5893,-4.5827,-4.5805,-4.581,-4.581,-4.5746,-4.5731,-4.5731,-4.5715,-4.57,-4.57,-4.57,-4.57,-4.57,-4.57,-4.57,-4.57,-4.5989,-4.6414,-4.6992,-4.8166,-4.9032,-4.9589,-5.0491,-5.096,-3.7261,-3.6912,-3.6481,-3.5487,-3.5034,-3.47,-3.4203,-3.4148,-3.4197,-3.4316,-3.4386,-3.4495,-3.4666,-3.4747,-3.4849,-3.4946,-3.5038,-3.5127,0.0,-3.5383,-3.563,-3.5982,-3.5841,-3.5737,-3.5791,-3.5857,-3.5898,-3.5908,-3.5953,-3.5994,-3.5991,-3.6001,-3.601,-3.5995,-3.5996,-3.5996,-3.6009,-3.6007,-3.6005,-3.6005,-3.5995,-3.5995,-3.6009,-3.5991,-3.6001,-3.6005,-3.5962,-3.5948,-3.5908,-3.5872,-3.6878,-3.8397,-3.838,-3.9421,-4.0936,-4.0963,-4.098,-4.1007,-4.1007,-4.1766,-4.2844,-4.3424,-4.4394,-4.5472,-4.602,-4.6196,-4.6209,-4.6245,-4.6279,-4.6308,-4.6292,-4.6296,-4.6306,-4.6303,-4.6307,-4.6308,-4.6307,-4.6295,-4.6296,-4.6245,-4.6216,-4.6189,-4.6135,-4.613,-4.6047,-4.5929,-4.5905,-4.588,-4.5814,-4.5791,-4.58,-4.58,-4.5735,-4.5703,-4.5668,-4.5668,-4.5668,-4.5668,-4.5668,-4.5668,-4.5668,-4.5668,-4.5668,-4.5668,-4.5668,-4.5938,-4.6497,-4.7381,-4.8229,-4.9059,-4.9924,-5.0571]}]]